[[{"header":{"parameterUnit":"m.s-1","parameterCategory":1,"la1":31.0,"la2":29.5877,"lo1":-88.7671,"lo2":-86.6584,"dy":0.0162,"dx":0.0185,"nx":115,"ny":88,"refTime":"2024-12-19T18:00:00:Z","depth":0,"parameterNumber":2,"parameterNumberName":"U-component_of_WINDS"},"data":[0.0,0.0,0.0,0.0,0.0,0.0,0.0,0.0,0.0,0.0,0.0,0.0,0.0,0.0,0.0,0.0,0.0,0.0,0.0,0.0,0.0,0.0,0.0,0.0,0.0,0.0,0.0,0.0,0.0,0.0,0.0,0.0,0.0,0.0,0.0,0.0,0.0,0.0,0.0,0.0,0.0,0.0,0.0,0.0,0.0,0.0,0.0,0.0,0.0,0.0,0.0,0.0,0.0,0.0,0.0,0.0,0.0,0.0,0.0,0.0,0.0,0.0,0.0,0.0,0.0,0.0,0.0,0.0,0.0,0.0,0.0,0.0,0.0,0.0,0.0,0.0,0.0,0.0,0.0,0.0,0.0,0.0,0.0,0.0,0.0,0.0,0.0,0.0,0.0,0.0,0.0,0.0,0.0,0.0,0.0,0.0,0.0,0.0,0.0,0.0,0.0,0.0,0.0,0.0,0.0,0.0,0.0,0.0,0.0,0.0,0.0,0.0,0.0,0.0,0.0,0.0,0.0,0.0,0.0,0.0,0.0,0.0,0.0,0.0,0.0,0.0,0.0,0.0,0.0,0.0,0.0,0.0,0.0,0.0,0.0,0.0,0.0,0.0,0.0,0.0,0.0,0.0,0.0,0.0,0.0,0.0,0.0,0.0,0.0,0.0,0.0,0.0,0.0,0.0,0.0,0.0,0.0,0.0,0.0,0.0,0.0,0.0,0.0,0.0,0.0,0.0,0.0,0.0,0.0,0.0,0.0,0.0,0.0,0.0,0.0,0.0,0.0,0.0,0.0,0.0,0.0,0.0,0.0,0.0,0.0,0.0,0.0,0.0,0.0,0.0,0.0,0.0,0.0,0.0,0.0,0.0,0.0,0.0,0.0,0.0,0.0,0.0,0.0,0.0,0.0,0.0,0.0,0.0,0.0,0.0,0.0,0.0,0.0,0.0,0.0,0.0,0.0,0.0,0.0,0.0,0.0,0.0,0.0,0.0,0.0,0.0,0.0,0.0,0.0,0.0,0.0,0.0,0.0,0.0,0.0,0.0,0.0,0.0,0.0,0.0,0.0,0.0,0.0,0.0,0.0,0.0,0.0,0.0,0.0,0.0,0.0,0.0,0.0,0.0,0.0,0.0,0.0,0.0,0.0,0.0,0.0,0.0,0.0,0.0,0.0,0.0,0.0,0.0,0.0,0.0,0.0,0.0,0.0,0.0,0.0,0.0,0.0,0.0,0.0,0.0,0.0,0.0,0.0,0.0,0.0,0.0,0.0,0.0,0.0,0.0,0.0,0.0,0.0,0.0,0.0,0.0,0.0,0.0,0.0,0.0,0.0,0.0,0.0,0.0,0.0,0.0,0.0,0.0,0.0,0.0,0.0,0.0,0.0,0.0,0.0,0.0,0.0,0.0,0.0,0.0,0.0,0.0,0.0,0.0,0.0,0.0,0.0,0.0,0.0,0.0,0.0,0.0,0.0,0.0,0.0,0.0,0.0,0.0,0.0,0.0,0.0,0.0,0.0,0.0,0.0,0.0,0.0,0.0,0.0,0.0,0.0,0.0,0.0,0.0,0.0,0.0,0.0,0.0,0.0,0.0,0.0,0.0,0.0,0.0,0.0,0.0,0.0,0.0,0.0,0.0,0.0,0.0,0.0,0.0,0.0,0.0,0.0,0.0,0.0,0.0,0.0,0.0,0.0,0.0,0.0,0.0,0.0,0.0,0.0,0.0,0.0,0.0,0.0,0.0,0.0,0.0,0.0,0.0,0.0,0.0,0.0,0.0,0.0,0.0,0.0,0.0,0.0,0.0,0.0,0.0,0.0,0.0,0.0,0.0,0.0,0.0,0.0,0.0,0.0,0.0,0.0,0.0,0.0,0.0,0.0,0.0,0.0,0.0,0.0,0.0,0.0,0.0,0.0,0.0,0.0,0.0,0.0,0.0,0.0,0.0,0.0,0.0,0.0,0.0,0.0,0.0,0.0,0.0,0.0,0.0,0.0,0.0,0.0,0.0,0.0,0.0,0.0,0.0,0.0,0.0,0.0,0.0,0.0,0.0,0.0,0.0,0.0,0.0,0.0,0.0,0.0,0.0,0.0,0.0,0.0,0.0,0.0,0.0,0.0,0.0,0.0,0.0,0.0,0.0,0.0,0.0,0.0,0.0,0.0,0.0,0.0,0.0,0.0,0.0,0.0,0.0,0.0,0.0,0.0,0.0,0.0,0.0,0.0,0.0,0.0,0.0,0.0,0.0,0.0,0.0,0.0,0.0,0.0,0.0,0.0,0.0,0.0,0.0,0.0,0.0,0.0,0.0,0.0,0.0,0.0,0.0,0.0,0.0,0.0,0.0,0.0,0.0,0.0,0.0,0.0,0.0,0.0,0.0,0.0,0.0,0.0,0.0,0.0,0.0,0.0,0.0,0.0,0.0,0.0,0.0,0.0,0.0,0.0,0.0,0.0,0.0,0.0,0.0,0.0,0.0,0.0,0.0,0.0,0.0,0.0,0.0,0.0,0.0,0.0,0.0,0.0,0.0,0.0,0.0,0.0,0.0,0.0,0.0,0.0,0.0,0.0,0.0,0.0,0.0,0.0,0.0,0.0,0.0,0.0,0.0,0.0,0.0,0.0,0.0,0.0,0.0,0.0,0.0,0.0,0.0,0.0,0.0,0.0,0.0,0.0,0.0,0.0,0.0,0.0,0.0,0.0,0.0,0.0,0.0,0.0,0.0,0.0,0.0,0.0,0.0,0.0,0.0,0.0,0.0,0.0,0.0,0.0,0.0,0.0,0.0,0.0,0.0,0.0,0.0,0.0,0.0,0.0,0.0,0.0,0.0,0.0,0.0,0.0,0.0,0.0,0.0,0.0,0.0,0.0,0.0,0.0,0.0,0.0,0.0,0.0,0.0,0.0,0.0,0.0,0.0,0.0,0.0,0.0,0.0,0.0,0.0,0.0,0.0,0.0,0.0,0.0,0.0,0.0,0.0,0.0,0.0,0.0,0.0,0.0,0.0,0.0,0.0,0.0,0.0,0.0,0.0,0.0,0.0,0.0,0.0,0.0,0.0,0.0,0.0,0.0,0.0,0.0,0.0,0.0,0.0,0.0,0.0,0.0,0.0,0.0,0.0,0.0,0.0,0.0,0.0,0.0,0.0,0.0,0.0,0.0,0.0,0.0,0.0,0.0,0.0,0.0,0.0,0.0,0.0,0.0,0.0,0.0,0.0,0.0,0.0,0.0,0.0,0.0,0.0,0.0,0.0,0.0,0.0,0.0,0.0,0.0,0.0,0.0,0.0,0.0,0.0,0.0,0.0,0.0,0.0,0.0,0.0,0.0,0.0,0.0,0.0,0.0,0.0,0.0,0.0,0.0,0.0,0.0,0.0,0.0,0.0,0.0,0.0,0.0,0.0,0.0,0.0,0.0,0.0,0.0,0.0,0.0,0.0,0.0,0.0,0.0,0.0,0.0,0.0,0.0,0.0,0.0,0.0,0.0,0.0,0.0,0.0,0.0,0.0,0.0,0.0,0.0,0.0,0.0,0.0,0.0,0.0,0.0,0.0,0.0,0.0,0.0,0.0,0.0,0.0,0.0,0.0,0.0,0.0,0.0,0.0,0.0,0.0,0.0,0.0,0.0,0.0,0.0,0.0,0.0,0.0,0.0,0.0,0.0,0.0,0.0,0.0,0.0,0.0,0.0,0.0,0.0,0.0,0.0,0.0,0.0,0.0,0.0,0.0,0.0,0.0,0.0,0.0,0.0,0.0,0.0,0.0,0.0,0.0,0.0,0.0,0.0,0.0,0.0,0.0,0.0,0.0,0.0,0.0,0.0,0.0,0.0,0.0,0.0,0.0,0.0,0.0,0.0,0.0,0.0,0.0,0.0,0.0,0.0,0.0,0.0,0.0,0.0,0.0,0.0,0.0,0.0,0.0,0.0,0.0,0.0,0.0,0.0,0.0,0.0,0.0,0.0,0.0,0.0,0.0,0.0,0.0,0.0,0.0,0.0,0.0,0.0,0.0,0.0,0.0,0.0,0.0,0.0,0.0,0.0,0.0,0.0,0.0,0.0,0.0,0.0,0.0,0.0,0.0,0.0,0.0,0.0,0.0,0.0,0.0,0.0,0.0,0.0,0.0,0.0,0.0,0.0,0.0,0.0,0.0,0.0,0.0,0.0,0.0,0.0,0.0,0.0,0.0,0.0,0.0,0.0,0.0,0.0,0.0,0.0,0.0,0.0,0.0,0.0,0.0,0.0,0.0,0.0,0.0,0.0,0.0,4.1185,0.0,0.0,0.0,0.0,0.0,0.0,0.0,0.0,0.0,0.0,0.0,0.0,0.0,0.0,0.0,0.0,0.0,0.0,0.0,0.0,0.0,0.0,0.0,0.0,0.0,0.0,0.0,0.0,0.0,0.0,0.0,0.0,0.0,0.0,0.0,0.0,0.0,0.0,0.0,0.0,0.0,0.0,0.0,0.0,0.0,0.0,0.0,0.0,0.0,0.0,0.0,0.0,0.0,0.0,0.0,0.0,0.0,0.0,0.0,0.0,0.0,0.0,0.0,0.0,0.0,0.0,0.0,0.0,0.0,0.0,0.0,0.0,0.0,0.0,0.0,0.0,0.0,0.0,0.0,0.0,0.0,0.0,0.0,0.0,0.0,0.0,0.0,0.0,0.0,0.0,0.0,0.0,0.0,0.0,0.0,0.0,0.0,0.0,0.0,0.0,0.0,0.0,0.0,0.0,0.0,0.0,0.0,0.0,0.0,0.0,4.3497,4.3497,4.3497,4.2727,4.1185,0.0,0.0,0.0,0.0,0.0,0.0,0.0,0.0,0.0,0.0,0.0,0.0,0.0,0.0,0.0,0.0,0.0,0.0,0.0,0.0,0.0,0.0,0.0,0.0,0.0,0.0,0.0,0.0,0.0,0.0,0.0,0.0,0.0,0.0,0.0,0.0,0.0,0.0,0.0,0.0,0.0,0.0,0.0,0.0,0.0,0.0,0.0,0.0,0.0,0.0,0.0,0.0,0.0,0.0,0.0,0.0,0.0,0.0,0.0,0.0,0.0,0.0,0.0,0.0,0.0,0.0,0.0,0.0,0.0,0.0,0.0,0.0,0.0,0.0,0.0,0.0,0.0,0.0,0.0,0.0,0.0,0.0,0.0,0.0,0.0,0.0,0.0,0.0,0.0,0.0,0.0,0.0,0.0,0.0,0.0,0.0,0.0,0.0,0.0,0.0,0.0,0.0,0.0,0.0,0.0,0.0,0.0,0.0,0.0,0.0,0.0,0.0,4.4305,4.3571,4.1992,0.0,0.0,0.0,0.0,0.0,0.0,0.0,0.0,0.0,0.0,0.0,0.0,0.0,0.0,0.0,0.0,0.0,0.0,0.0,0.0,0.0,0.0,0.0,0.0,0.0,0.0,0.0,0.0,0.0,0.0,0.0,0.0,0.0,0.0,0.0,0.0,0.0,0.0,0.0,0.0,0.0,0.0,0.0,0.0,0.0,0.0,0.0,0.0,0.0,0.0,0.0,0.0,0.0,0.0,0.0,0.0,0.0,0.0,0.0,0.0,0.0,0.0,0.0,0.0,0.0,0.0,0.0,0.0,0.0,0.0,0.0,0.0,0.0,0.0,0.0,0.0,0.0,0.0,0.0,0.0,0.0,0.0,0.0,0.0,0.0,0.0,0.0,0.0,0.0,0.0,0.0,0.0,0.0,0.0,0.0,0.0,0.0,0.0,0.0,0.0,0.0,0.0,0.0,0.0,0.0,0.0,0.0,0.0,0.0,0.0,4.4562,4.6654,4.6764,0.0,4.449,0.0,0.0,0.0,0.0,0.0,0.0,0.0,0.0,0.0,0.0,0.0,0.0,0.0,0.0,0.0,0.0,0.0,0.0,0.0,0.0,0.0,0.0,0.0,0.0,0.0,0.0,0.0,0.0,0.0,0.0,0.0,0.0,0.0,0.0,0.0,0.0,0.0,0.0,0.0,0.0,0.0,0.0,0.0,0.0,0.0,0.0,0.0,0.0,0.0,0.0,0.0,0.0,0.0,0.0,0.0,0.0,0.0,0.0,0.0,0.0,0.0,0.0,0.0,0.0,0.0,0.0,0.0,0.0,0.0,0.0,0.0,0.0,0.0,0.0,0.0,0.0,0.0,0.0,0.0,0.0,0.0,0.0,0.0,0.0,0.0,0.0,0.0,0.0,0.0,0.0,0.0,0.0,0.0,0.0,0.0,0.0,0.0,0.0,0.0,0.0,0.0,0.0,0.0,0.0,0.0,0.0,0.0,0.0,0.0,0.0,0.0,4.7095,4.6177,4.5369,0.0,0.0,0.0,0.0,0.0,0.0,0.0,0.0,0.0,0.0,0.0,0.0,0.0,0.0,0.0,0.0,0.0,0.0,0.0,0.0,0.0,0.0,0.0,0.0,0.0,0.0,0.0,0.0,0.0,0.0,0.0,0.0,0.0,0.0,0.0,0.0,0.0,0.0,0.0,0.0,0.0,0.0,0.0,0.0,0.0,0.0,0.0,0.0,0.0,0.0,0.0,0.0,0.0,0.0,0.0,0.0,0.0,0.0,0.0,0.0,0.0,0.0,0.0,0.0,0.0,0.0,0.0,0.0,0.0,0.0,0.0,0.0,0.0,0.0,0.0,0.0,0.0,0.0,0.0,0.0,0.0,0.0,0.0,0.0,0.0,0.0,0.0,0.0,0.0,0.0,0.0,0.0,0.0,0.0,0.0,0.0,0.0,0.0,0.0,0.0,0.0,0.0,0.0,0.0,0.0,0.0,0.0,0.0,0.0,0.0,4.6581,0.0,4.7719,4.6874,4.5663,4.4121,0.0,0.0,0.0,0.0,0.0,0.0,0.0,0.0,0.0,0.0,0.0,0.0,0.0,0.0,0.0,0.0,0.0,0.0,0.0,0.0,0.0,0.0,0.0,0.0,0.0,0.0,0.0,0.0,0.0,0.0,0.0,0.0,0.0,0.0,0.0,0.0,0.0,0.0,0.0,0.0,0.0,0.0,0.0,0.0,0.0,0.0,0.0,0.0,0.0,0.0,0.0,0.0,0.0,0.0,0.0,0.0,0.0,0.0,0.0,0.0,0.0,0.0,0.0,0.0,0.0,0.0,0.0,0.0,0.0,0.0,0.0,0.0,0.0,0.0,0.0,0.0,0.0,0.0,0.0,0.0,0.0,0.0,0.0,0.0,0.0,0.0,0.0,0.0,0.0,0.0,0.0,0.0,0.0,0.0,0.0,0.0,0.0,0.0,0.0,0.0,0.0,0.0,0.0,0.0,0.0,0.0,0.0,0.0,0.0,4.8233,4.7865,4.937,5.0105,4.7976,0.0,0.0,0.0,0.0,0.0,0.0,0.0,0.0,0.0,0.0,0.0,0.0,0.0,0.0,0.0,0.0,0.0,0.0,0.0,0.0,0.0,0.0,0.0,0.0,0.0,0.0,0.0,0.0,0.0,0.0,0.0,0.0,0.0,0.0,0.0,0.0,0.0,0.0,0.0,0.0,0.0,0.0,0.0,0.0,0.0,0.0,0.0,0.0,0.0,0.0,0.0,0.0,0.0,0.0,0.0,0.0,0.0,0.0,0.0,0.0,0.0,0.0,0.0,0.0,0.0,0.0,0.0,0.0,0.0,0.0,0.0,0.0,0.0,0.0,0.0,0.0,0.0,0.0,0.0,0.0,0.0,0.0,0.0,0.0,0.0,0.0,0.0,0.0,0.0,0.0,0.0,0.0,0.0,0.0,0.0,0.0,0.0,0.0,0.0,0.0,0.0,0.0,0.0,0.0,0.0,0.0,0.0,0.0,0.0,4.603,4.6764,4.8893,5.2344,4.893,4.6434,0.0,0.0,0.0,0.0,0.0,0.0,0.0,0.0,0.0,0.0,0.0,0.0,0.0,0.0,0.0,0.0,0.0,0.0,0.0,0.0,0.0,0.0,0.0,0.0,0.0,0.0,0.0,0.0,0.0,0.0,0.0,0.0,0.0,0.0,0.0,0.0,0.0,0.0,0.0,0.0,0.0,0.0,0.0,0.0,0.0,0.0,0.0,0.0,0.0,0.0,0.0,0.0,0.0,0.0,0.0,0.0,0.0,0.0,0.0,0.0,0.0,0.0,0.0,0.0,0.0,0.0,0.0,0.0,0.0,0.0,0.0,0.0,0.0,0.0,0.0,0.0,0.0,0.0,0.0,0.0,0.0,0.0,0.0,0.0,0.0,0.0,0.0,0.0,0.0,0.0,0.0,0.0,0.0,0.0,0.0,0.0,0.0,0.0,0.0,0.0,0.0,0.0,0.0,0.0,0.0,0.0,0.0,0.0,0.0,4.5443,0.0,5.0178,0.0,4.8196,4.5186,0.0,0.0,0.0,0.0,0.0,0.0,0.0,0.0,0.0,0.0,0.0,0.0,0.0,0.0,0.0,0.0,0.0,0.0,0.0,0.0,0.0,0.0,0.0,0.0,0.0,0.0,0.0,0.0,0.0,0.0,0.0,0.0,0.0,0.0,0.0,0.0,0.0,0.0,0.0,0.0,0.0,0.0,0.0,0.0,0.0,0.0,0.0,0.0,0.0,0.0,0.0,0.0,0.0,0.0,0.0,0.0,0.0,0.0,0.0,0.0,0.0,0.0,0.0,0.0,0.0,0.0,0.0,0.0,0.0,0.0,0.0,0.0,0.0,0.0,0.0,0.0,0.0,0.0,0.0,0.0,0.0,0.0,0.0,0.0,0.0,0.0,0.0,0.0,0.0,0.0,0.0,0.0,0.0,0.0,0.0,0.0,0.0,0.0,0.0,0.0,0.0,0.0,0.0,0.0,0.0,0.0,0.0,0.0,0.0,4.926,5.172,5.1499,4.8563,4.8233,4.4525,0.0,0.0,0.0,0.0,0.0,0.0,0.0,0.0,0.0,0.0,0.0,0.0,0.0,0.0,0.0,0.0,0.0,0.0,0.0,0.0,0.0,0.0,0.0,0.0,0.0,0.0,0.0,0.0,0.0,0.0,0.0,0.0,0.0,0.0,0.0,0.0,0.0,0.0,0.0,0.0,0.0,0.0,0.0,0.0,0.0,0.0,0.0,0.0,0.0,0.0,0.0,0.0,0.0,0.0,0.0,0.0,0.0,0.0,0.0,0.0,0.0,0.0,0.0,0.0,0.0,0.0,0.0,0.0,0.0,0.0,0.0,0.0,0.0,0.0,0.0,0.0,0.0,0.0,0.0,0.0,0.0,0.0,0.0,0.0,0.0,0.0,0.0,0.0,0.0,0.0,0.0,0.0,0.0,0.0,0.0,0.0,0.0,0.0,0.0,0.0,0.0,0.0,0.0,0.0,0.0,0.0,0.0,0.0,0.0,4.7058,4.9407,5.0986,5.1499,4.7315,4.4599,0.0,0.0,0.0,0.0,0.0,0.0,0.0,0.0,0.0,0.0,0.0,0.0,0.0,0.0,0.0,0.0,0.0,0.0,0.0,0.0,0.0,0.0,0.0,0.0,0.0,0.0,0.0,0.0,0.0,0.0,0.0,0.0,0.0,0.0,0.0,0.0,0.0,0.0,0.0,0.0,0.0,0.0,0.0,0.0,0.0,0.0,0.0,0.0,0.0,0.0,0.0,0.0,0.0,0.0,0.0,0.0,0.0,0.0,0.0,0.0,0.0,0.0,0.0,0.0,0.0,0.0,0.0,0.0,0.0,0.0,0.0,0.0,0.0,0.0,0.0,0.0,0.0,0.0,0.0,0.0,0.0,0.0,0.0,0.0,0.0,0.0,0.0,0.0,0.0,0.0,0.0,0.0,0.0,0.0,0.0,0.0,0.0,0.0,0.0,0.0,0.0,0.0,0.0,0.0,0.0,0.0,0.0,0.0,0.0,4.8758,5.0973,5.2527,5.3188,4.8049,4.5149,4.4782,0.0,0.0,0.0,0.0,0.0,0.0,0.0,0.0,0.0,0.0,0.0,0.0,0.0,0.0,0.0,0.0,0.0,0.0,0.0,0.0,0.0,0.0,0.0,0.0,0.0,0.0,0.0,0.0,0.0,0.0,0.0,0.0,0.0,0.0,0.0,0.0,0.0,0.0,0.0,0.0,0.0,0.0,0.0,0.0,0.0,0.0,0.0,0.0,0.0,0.0,0.0,0.0,0.0,0.0,0.0,0.0,0.0,0.0,0.0,0.0,0.0,0.0,0.0,0.0,0.0,0.0,0.0,0.0,0.0,0.0,0.0,0.0,0.0,0.0,0.0,0.0,0.0,0.0,0.0,0.0,0.0,0.0,0.0,0.0,0.0,0.0,0.0,0.0,0.0,0.0,0.0,0.0,0.0,0.0,0.0,0.0,0.0,0.0,0.0,0.0,0.0,0.0,0.0,0.0,0.0,0.0,0.0,0.0,5.3376,5.5842,5.5978,5.3665,5.0178,4.6214,0.0,0.0,0.0,0.0,0.0,0.0,0.0,0.0,0.0,0.0,0.0,0.0,0.0,0.0,0.0,0.0,0.0,0.0,0.0,0.0,0.0,0.0,0.0,0.0,0.0,0.0,0.0,0.0,0.0,0.0,0.0,0.0,0.0,0.0,0.0,0.0,0.0,0.0,0.0,0.0,0.0,0.0,0.0,0.0,0.0,0.0,0.0,0.0,0.0,0.0,0.0,0.0,0.0,0.0,0.0,0.0,0.0,0.0,0.0,0.0,0.0,0.0,0.0,0.0,0.0,0.0,0.0,0.0,0.0,0.0,0.0,0.0,0.0,0.0,0.0,0.0,0.0,0.0,0.0,0.0,0.0,0.0,0.0,0.0,0.0,0.0,0.0,0.0,0.0,0.0,0.0,0.0,0.0,0.0,0.0,0.0,0.0,0.0,0.0,0.0,0.0,0.0,0.0,0.0,0.0,0.0,0.0,0.0,0.0,5.4542,5.8906,6.0089,5.7629,5.216,4.8306,0.0,0.0,0.0,0.0,0.0,0.0,0.0,0.0,0.0,0.0,0.0,0.0,0.0,0.0,0.0,0.0,0.0,0.0,0.0,0.0,0.0,0.0,0.0,0.0,0.0,0.0,0.0,0.0,0.0,0.0,0.0,0.0,0.0,0.0,0.0,0.0,0.0,0.0,0.0,0.0,0.0,0.0,0.0,0.0,0.0,0.0,0.0,0.0,0.0,0.0,0.0,0.0,0.0,0.0,0.0,0.0,0.0,0.0,0.0,0.0,0.0,0.0,0.0,0.0,0.0,0.0,0.0,0.0,0.0,0.0,0.0,0.0,0.0,0.0,0.0,0.0,0.0,0.0,0.0,0.0,0.0,0.0,0.0,0.0,0.0,0.0,0.0,0.0,0.0,0.0,0.0,0.0,0.0,0.0,0.0,0.0,0.0,0.0,0.0,0.0,0.0,0.0,0.0,0.0,0.0,0.0,0.0,0.0,5.3744,5.6787,6.0716,6.2258,6.1251,5.6308,5.1903,0.0,0.0,0.0,0.0,0.0,0.0,0.0,0.0,0.0,0.0,0.0,0.0,0.0,0.0,0.0,0.0,0.0,0.0,0.0,0.0,0.0,0.0,0.0,0.0,0.0,0.0,0.0,0.0,0.0,0.0,0.0,0.0,0.0,0.0,0.0,0.0,0.0,0.0,0.0,0.0,0.0,0.0,0.0,0.0,0.0,0.0,0.0,0.0,0.0,0.0,0.0,0.0,0.0,0.0,0.0,0.0,0.0,0.0,0.0,0.0,0.0,0.0,0.0,0.0,0.0,0.0,0.0,0.0,0.0,0.0,0.0,0.0,0.0,0.0,0.0,0.0,0.0,0.0,0.0,0.0,0.0,0.0,0.0,0.0,0.0,0.0,0.0,0.0,0.0,0.0,0.0,0.0,0.0,0.0,0.0,0.0,0.0,0.0,0.0,0.0,0.0,0.0,0.0,0.0,0.0,0.0,0.0,0.0,5.4799,5.9432,6.1858,6.3418,6.4112,6.0896,5.5794,0.0,0.0,0.0,0.0,0.0,0.0,0.0,0.0,0.0,0.0,0.0,0.0,0.0,0.0,0.0,0.0,0.0,0.0,0.0,0.0,0.0,0.0,0.0,0.0,0.0,0.0,0.0,0.0,0.0,0.0,0.0,0.0,0.0,0.0,0.0,0.0,0.0,0.0,0.0,0.0,0.0,0.0,0.0,0.0,0.0,0.0,0.0,0.0,0.0,0.0,0.0,0.0,0.0,0.0,0.0,0.0,0.0,0.0,0.0,0.0,0.0,0.0,0.0,0.0,0.0,0.0,0.0,0.0,0.0,0.0,0.0,0.0,0.0,0.0,0.0,0.0,0.0,0.0,0.0,0.0,0.0,0.0,0.0,0.0,0.0,0.0,0.0,0.0,0.0,0.0,0.0,0.0,0.0,0.0,0.0,0.0,0.0,0.0,0.0,0.0,0.0,0.0,0.0,0.0,0.0,0.0,0.0,0.0,5.6519,5.9467,6.3513,6.5424,6.5029,6.0639,5.5721,0.0,0.0,0.0,0.0,0.0,0.0,0.0,0.0,0.0,0.0,0.0,0.0,0.0,0.0,0.0,0.0,0.0,0.0,0.0,0.0,0.0,0.0,0.0,0.0,0.0,0.0,0.0,0.0,0.0,0.0,0.0,0.0,0.0,0.0,0.0,0.0,0.0,0.0,0.0,0.0,0.0,0.0,0.0,0.0,0.0,0.0,0.0,0.0,3.6243,0.0,0.0,0.0,0.0,0.0,0.0,0.0,0.0,0.0,0.0,0.0,0.0,0.0,0.0,0.0,0.0,0.0,0.0,0.0,0.0,0.0,0.0,0.0,0.0,0.0,0.0,0.0,0.0,0.0,0.0,0.0,0.0,0.0,0.0,0.0,0.0,0.0,0.0,0.0,0.0,0.0,0.0,0.0,0.0,0.0,0.0,0.0,0.0,0.0,0.0,0.0,0.0,0.0,0.0,0.0,0.0,0.0,0.0,0.0,5.7473,6.098,6.4126,6.579,6.5726,6.2218,5.7629,0.0,0.0,0.0,0.0,0.0,0.0,0.0,0.0,0.0,0.0,0.0,0.0,0.0,0.0,0.0,0.0,0.0,0.0,0.0,0.0,0.0,0.0,0.0,0.0,0.0,0.0,0.0,0.0,0.0,0.0,0.0,0.0,0.0,0.0,0.0,0.0,0.0,0.0,0.0,0.0,0.0,0.0,0.0,0.0,0.0,0.0,0.0,0.0,0.0,0.0,0.0,0.0,0.0,0.0,0.0,0.0,0.0,0.0,0.0,0.0,0.0,0.0,0.0,0.0,0.0,0.0,0.0,0.0,0.0,0.0,0.0,0.0,0.0,0.0,0.0,0.0,0.0,0.0,0.0,0.0,0.0,0.0,0.0,0.0,0.0,0.0,0.0,0.0,0.0,0.0,0.0,0.0,0.0,0.0,0.0,0.0,0.0,0.0,0.0,0.0,0.0,0.0,0.0,0.0,0.0,0.0,0.0,5.3247,5.7946,6.2769,6.4321,6.551,6.6423,6.409,5.9869,5.3665,0.0,0.0,0.0,0.0,0.0,0.0,0.0,0.0,0.0,0.0,0.0,0.0,0.0,0.0,0.0,0.0,0.0,0.0,0.0,0.0,0.0,0.0,0.0,0.0,0.0,0.0,0.0,0.0,0.0,0.0,0.0,0.0,0.0,0.0,0.0,0.0,0.0,0.0,3.5419,3.8294,0.0,0.0,0.0,0.0,0.0,0.0,0.0,0.0,3.8396,0.0,0.0,0.0,0.0,0.0,0.0,0.0,0.0,0.0,0.0,0.0,0.0,0.0,0.0,0.0,0.0,0.0,0.0,0.0,0.0,0.0,0.0,0.0,0.0,0.0,0.0,0.0,0.0,0.0,0.0,0.0,0.0,0.0,0.0,0.0,0.0,0.0,0.0,0.0,0.0,0.0,0.0,0.0,0.0,0.0,0.0,0.0,0.0,0.0,0.0,0.0,0.0,0.0,0.0,0.0,0.0,5.2469,5.4025,5.7671,6.3548,6.4539,6.551,6.6423,6.409,6.0126,5.4436,0.0,0.0,0.0,0.0,0.0,0.0,0.0,0.0,0.0,0.0,0.0,0.0,0.0,0.0,0.0,0.0,0.0,0.0,0.0,0.0,0.0,0.0,0.0,0.0,0.0,0.0,0.0,0.0,0.0,0.0,0.0,0.0,0.0,0.0,0.0,0.0,0.0,0.0,0.0,4.3606,4.4891,0.0,0.0,0.0,0.0,0.0,0.0,0.0,0.0,3.9343,0.0,0.0,0.0,0.0,0.0,0.0,0.0,0.0,0.0,0.0,0.0,0.0,0.0,0.0,0.0,0.0,0.0,0.0,0.0,0.0,0.0,0.0,0.0,0.0,0.0,0.0,0.0,0.0,0.0,0.0,0.0,0.0,0.0,0.0,0.0,0.0,0.0,0.0,0.0,0.0,0.0,0.0,0.0,0.0,0.0,0.0,0.0,0.0,0.0,0.0,0.0,0.0,0.0,0.0,0.0,5.1995,5.4938,5.8944,6.4226,6.4822,6.5474,6.6386,6.2475,5.8437,0.0,0.0,0.0,0.0,0.0,0.0,0.0,0.0,0.0,0.0,0.0,0.0,0.0,0.0,0.0,0.0,0.0,0.0,0.0,0.0,0.0,0.0,0.0,0.0,0.0,0.0,0.0,0.0,0.0,0.0,0.0,0.0,0.0,0.0,0.0,0.0,0.0,0.0,0.0,0.0,4.4147,4.5196,4.5703,0.0,0.0,0.0,0.0,0.0,0.0,4.029,4.0087,0.0,0.0,0.0,0.0,0.0,0.0,0.0,0.0,0.0,0.0,0.0,0.0,0.0,0.0,0.0,0.0,0.0,0.0,0.0,0.0,0.0,0.0,0.0,0.0,0.0,0.0,0.0,0.0,0.0,0.0,0.0,0.0,0.0,0.0,0.0,0.0,0.0,0.0,0.0,0.0,0.0,0.0,0.0,0.0,0.0,0.0,0.0,0.0,0.0,0.0,0.0,0.0,0.0,0.0,0.0,5.1116,5.548,5.9938,6.4489,6.5074,6.5457,6.5879,6.1385,5.7373,0.0,0.0,0.0,0.0,0.0,0.0,0.0,0.0,0.0,0.0,0.0,0.0,0.0,0.0,0.0,0.0,0.0,0.0,0.0,0.0,0.0,0.0,0.0,0.0,0.0,0.0,0.0,0.0,0.0,0.0,0.0,0.0,0.0,0.0,0.0,0.0,0.0,0.0,0.0,0.0,0.0,4.5635,4.7394,4.5128,0.0,0.0,0.0,0.0,4.188,4.2388,0.0,0.0,0.0,0.0,0.0,0.0,0.0,0.0,0.0,0.0,0.0,0.0,0.0,0.0,0.0,0.0,0.0,0.0,0.0,0.0,0.0,0.0,0.0,0.0,0.0,0.0,0.0,0.0,0.0,0.0,0.0,0.0,0.0,0.0,0.0,0.0,0.0,0.0,0.0,0.0,0.0,0.0,0.0,0.0,0.0,0.0,0.0,0.0,0.0,0.0,0.0,0.0,0.0,0.0,0.0,0.0,5.1014,5.5006,5.9208,6.3655,6.5196,6.5426,6.4224,6.2923,5.9098,0.0,0.0,0.0,0.0,0.0,0.0,0.0,0.0,0.0,0.0,0.0,0.0,0.0,0.0,0.0,0.0,0.0,0.0,0.0,0.0,0.0,0.0,0.0,0.0,0.0,0.0,0.0,0.0,0.0,0.0,0.0,0.0,0.0,0.0,0.0,0.0,0.0,0.0,0.0,0.0,0.0,4.9492,4.7225,4.6549,4.594,0.0,0.0,4.5094,4.7564,4.8037,0.0,0.0,0.0,0.0,0.0,0.0,0.0,0.0,0.0,0.0,0.0,0.0,0.0,0.0,0.0,0.0,0.0,0.0,0.0,0.0,0.0,0.0,0.0,0.0,0.0,0.0,0.0,0.0,0.0,0.0,0.0,0.0,0.0,0.0,0.0,0.0,0.0,0.0,0.0,0.0,0.0,0.0,0.0,0.0,0.0,0.0,0.0,0.0,0.0,0.0,0.0,0.0,0.0,0.0,0.0,4.5026,5.1116,5.6122,6.033,6.3615,6.5233,6.5397,6.3928,6.1412,5.7519,0.0,0.0,0.0,0.0,0.0,0.0,0.0,0.0,0.0,0.0,0.0,0.0,0.0,0.0,0.0,0.0,0.0,0.0,0.0,0.0,0.0,0.0,0.0,0.0,0.0,0.0,0.0,0.0,0.0,0.0,0.0,0.0,0.0,0.0,0.0,0.0,0.0,0.0,0.0,0.0,0.0,0.0,4.9796,4.9221,0.0,0.0,0.0,4.8646,4.9492,0.0,0.0,0.0,0.0,0.0,0.0,0.0,0.0,0.0,0.0,0.0,0.0,0.0,0.0,0.0,0.0,0.0,0.0,0.0,0.0,0.0,0.0,0.0,0.0,0.0,0.0,0.0,0.0,0.0,0.0,0.0,0.0,0.0,0.0,0.0,0.0,0.0,0.0,0.0,0.0,0.0,0.0,0.0,0.0,0.0,0.0,0.0,0.0,0.0,0.0,0.0,0.0,0.0,0.0,0.0,0.0,0.0,5.1217,5.7273,6.1374,6.3353,6.5163,6.5297,6.3597,6.0508,0.0,0.0,0.0,0.0,0.0,0.0,0.0,0.0,0.0,0.0,0.0,0.0,0.0,0.0,0.0,0.0,0.0,0.0,0.0,0.0,0.0,0.0,0.0,0.0,0.0,0.0,0.0,0.0,0.0,0.0,0.0,0.0,0.0,0.0,0.0,0.0,0.0,0.0,0.0,0.0,0.0,0.0,4.8748,5.186,5.186,5.1623,0.0,0.0,5.2198,5.1826,5.2097,5.0676,0.0,0.0,0.0,0.0,0.0,0.0,0.0,0.0,0.0,0.0,0.0,0.0,0.0,0.0,0.0,0.0,0.0,0.0,0.0,0.0,0.0,0.0,0.0,0.0,0.0,0.0,0.0,0.0,0.0,0.0,0.0,0.0,0.0,0.0,0.0,0.0,0.0,0.0,0.0,0.0,0.0,0.0,0.0,0.0,0.0,0.0,0.0,0.0,0.0,0.0,0.0,0.0,0.0,0.0,0.0,5.1251,5.7814,6.1646,6.2503,6.4845,6.5004,6.2797,6.186,5.8033,0.0,0.0,0.0,0.0,0.0,0.0,0.0,0.0,0.0,0.0,0.0,0.0,0.0,0.0,0.0,0.0,0.0,0.0,0.0,0.0,0.0,0.0,0.0,0.0,0.0,0.0,0.0,0.0,0.0,0.0,0.0,0.0,0.0,0.0,0.0,0.0,0.0,0.0,0.0,0.0,0.0,5.0439,5.2097,5.4025,5.5818,0.0,0.0,5.5615,5.6258,5.7476,5.575,4.7936,0.0,0.0,0.0,0.0,0.0,0.0,0.0,0.0,0.0,0.0,0.0,0.0,0.0,0.0,0.0,0.0,0.0,0.0,0.0,0.0,0.0,0.0,0.0,0.0,0.0,0.0,0.0,0.0,0.0,0.0,0.0,0.0,0.0,0.0,0.0,0.0,0.0,0.0,0.0,0.0,0.0,0.0,0.0,0.0,0.0,0.0,0.0,0.0,0.0,0.0,0.0,0.0,0.0,4.6752,5.1217,5.7881,6.167,6.2459,6.43,6.4462,6.2669,6.1939,5.836,0.0,0.0,0.0,0.0,0.0,0.0,0.0,0.0,0.0,0.0,0.0,0.0,0.0,0.0,0.0,0.0,0.0,0.0,0.0,0.0,0.0,0.0,0.0,0.0,0.0,0.0,0.0,0.0,3.2611,3.2747,3.1968,0.0,0.0,0.0,0.0,0.0,0.0,0.0,0.0,0.0,0.0,5.2334,5.4735,5.6596,0.0,0.0,5.7814,5.7848,5.8118,5.7103,5.46,4.9627,4.6684,0.0,0.0,0.0,0.0,0.0,0.0,0.0,0.0,0.0,0.0,0.0,0.0,0.0,0.0,0.0,0.0,0.0,0.0,0.0,0.0,0.0,0.0,0.0,0.0,0.0,0.0,0.0,0.0,0.0,0.0,0.0,0.0,0.0,0.0,0.0,0.0,0.0,0.0,0.0,0.0,0.0,0.0,0.0,0.0,0.0,0.0,0.0,0.0,0.0,0.0,0.0,0.0,4.6887,5.1522,5.7746,6.1434,6.2381,6.3755,6.3867,6.2631,6.1867,5.8822,0.0,0.0,0.0,0.0,0.0,0.0,0.0,0.0,0.0,0.0,0.0,0.0,0.0,0.0,0.0,0.0,0.0,0.0,0.0,0.0,0.0,0.0,0.0,0.0,0.0,0.0,0.0,0.0,3.4776,3.3998,3.1602,0.0,0.0,0.0,0.0,0.0,0.0,0.0,0.0,0.0,0.0,5.4329,5.707,5.8558,5.9167,5.8626,5.8626,5.8693,5.8693,5.7103,5.4668,5.1014,0.0,0.0,0.0,0.0,0.0,0.0,0.0,0.0,0.0,0.0,0.0,0.0,0.0,0.0,0.0,0.0,0.0,0.0,0.0,0.0,0.0,0.0,0.0,0.0,0.0,0.0,0.0,0.0,0.0,0.0,3.0768,0.0,0.0,0.0,0.0,0.0,0.0,0.0,0.0,0.0,0.0,0.0,0.0,0.0,0.0,0.0,0.0,0.0,0.0,0.0,0.0,0.0,0.0,0.0,5.2232,5.7476,6.0892,6.2347,6.3274,6.3373,6.2506,6.1849,5.9547,5.5476,0.0,0.0,0.0,0.0,0.0,0.0,0.0,0.0,0.0,0.0,0.0,0.0,0.0,0.0,0.0,0.0,0.0,0.0,0.0,0.0,0.0,0.0,0.0,0.0,0.0,0.0,3.4336,3.3897,3.2374,0.0,0.0,0.0,0.0,0.0,0.0,0.0,0.0,0.0,0.0,5.2807,5.6461,5.866,5.9607,6.0114,6.0047,5.8896,5.7983,5.8017,5.8423,5.7171,0.0,0.0,0.0,0.0,0.0,0.0,0.0,0.0,0.0,0.0,0.0,0.0,0.0,0.0,0.0,0.0,0.0,0.0,0.0,0.0,0.0,0.0,0.0,0.0,0.0,0.0,0.0,3.9873,3.8396,0.0,0.0,0.0,0.0,0.0,0.0,0.0,0.0,0.0,0.0,0.0,4.5703,4.665,0.0,0.0,0.0,0.0,0.0,0.0,0.0,0.0,0.0,0.0,0.0,0.0,4.7631,5.23,5.7442,6.0825,6.2313,6.2659,6.2747,6.2504,6.1777,5.9071,5.4109,0.0,0.0,0.0,0.0,0.0,0.0,0.0,0.0,0.0,0.0,0.0,0.0,0.0,0.0,0.0,0.0,0.0,0.0,0.0,0.0,0.0,0.0,0.0,0.0,0.0,3.3964,0.0,0.0,0.0,0.0,0.0,0.0,0.0,0.0,0.0,0.0,0.0,4.6684,5.1386,5.5412,5.8355,5.9573,6.1264,6.2009,0.0,0.0,0.0,0.0,0.0,0.0,0.0,0.0,0.0,0.0,0.0,0.0,0.0,0.0,5.2029,4.2895,4.0798,4.0527,4.0764,0.0,0.0,0.0,0.0,0.0,0.0,0.0,0.0,0.0,0.0,0.0,0.0,0.0,0.0,4.3424,0.0,4.1426,0.0,0.0,0.0,0.0,0.0,0.0,0.0,0.0,4.7834,4.9965,5.0676,5.186,5.1251,0.0,4.7868,4.3741,0.0,0.0,0.0,0.0,0.0,0.0,0.0,0.0,4.8815,5.345,5.8118,6.1129,6.2313,6.2415,6.2421,6.2444,6.2048,5.9572,5.502,5.1522,4.8159,0.0,0.0,0.0,0.0,0.0,0.0,0.0,0.0,0.0,0.0,0.0,0.0,0.0,0.0,0.0,0.0,0.0,0.0,0.0,0.0,0.0,0.0,0.0,3.5081,0.0,0.0,0.0,0.0,0.0,0.0,0.0,0.0,0.0,4.3132,4.6853,5.1048,5.5243,5.8118,6.008,6.0791,0.0,0.0,0.0,0.0,0.0,0.0,0.0,5.8287,5.8964,5.7509,5.6055,5.5513,5.7881,5.9201,5.7171,0.0,0.0,4.9086,4.7361,4.7327,4.7327,4.8917,5.0338,5.0608,5.2198,5.3585,0.0,0.0,0.0,0.0,0.0,0.0,0.0,0.0,4.6838,4.6838,0.0,4.5002,0.0,0.0,0.0,0.0,0.0,0.0,0.0,0.0,5.4262,5.6427,5.5852,5.6494,5.575,5.3788,5.4228,5.1522,4.5805,4.0121,0.0,0.0,0.0,0.0,0.0,0.0,5.0574,5.5581,5.937,6.167,6.2381,6.2415,6.2381,6.2436,6.2544,6.1173,5.8232,5.7207,5.3916,4.7717,4.4268,0.0,0.0,0.0,0.0,0.0,0.0,0.0,0.0,0.0,0.0,0.0,0.0,0.0,0.0,0.0,0.0,0.0,0.0,0.0,0.0,3.5926,0.0,0.0,0.0,0.0,0.0,0.0,0.0,0.0,0.0,0.0,4.753,5.1589,5.6055,5.9607,0.0,0.0,0.0,0.0,6.2279,6.1603,6.2076,6.2313,6.1637,6.3159,6.3768,6.1873,0.0,0.0,6.008,6.1772,6.2347,5.8051,5.9877,6.1061,5.9404,5.7543,5.6664,5.6765,5.6799,5.7239,5.7983,5.9032,6.0148,5.7299,0.0,0.0,0.0,0.0,5.3151,5.5133,5.818,5.6235,5.4546,5.3078,5.183,0.0,0.0,0.0,0.0,0.0,0.0,5.0236,5.2334,5.5378,5.7239,5.8084,5.8829,5.8558,5.7408,5.6562,5.4735,5.1961,4.8173,4.3369,3.7855,0.0,0.0,0.0,0.0,5.2604,5.575,5.9404,6.167,6.2381,6.2415,6.2387,6.2449,6.2543,6.2164,6.1328,6.0015,5.7642,5.4136,4.926,0.0,0.0,0.0,0.0,0.0,0.0,0.0,0.0,0.0,0.0,0.0,0.0,0.0,0.0,0.0,0.0,0.0,0.0,0.0,3.5859,3.7009,3.7415,0.0,0.0,0.0,0.0,0.0,0.0,0.0,0.0,0.0,5.531,5.6799,5.8558,0.0,0.0,6.2753,6.2415,6.3734,6.4647,6.4478,0.0,0.0,0.0,6.4444,6.4309,6.5764,6.7184,6.7658,6.644,6.6914,6.6914,6.4952,6.5865,6.6406,6.4783,6.2076,6.0554,6.1332,6.2009,6.2584,6.3328,6.4241,6.4884,6.387,5.9318,5.8217,5.8217,5.8951,5.8951,6.0786,6.3686,6.1924,6.0676,5.9832,5.8364,5.5647,5.2009,4.9892,0.0,0.0,0.0,5.3518,5.575,5.7374,5.8761,5.9945,6.0655,6.0622,5.9877,5.8693,5.734,5.5886,5.3788,4.9898,4.4418,0.0,0.0,4.594,5.0744,5.4465,5.7036,6.0148,6.1941,6.2381,6.2415,6.2421,6.2473,6.281,6.2891,6.2612,6.2068,6.063,5.825,5.4005,4.9187,0.0,0.0,0.0,0.0,0.0,0.0,0.0,0.0,0.0,0.0,0.0,2.9296,0.0,0.0,0.0,0.0,3.3897,3.7043,4.0054,4.073,0.0,0.0,0.0,0.0,0.0,0.0,0.0,5.186,5.548,5.8457,6.052,6.1569,6.2347,6.2956,6.3802,6.4309,6.4174,0.0,6.6576,6.6576,6.7455,6.8064,6.776,6.7117,6.7218,6.8944,6.962,6.9823,6.9553,6.9553,6.9248,6.8639,6.8774,6.891,6.8267,6.6305,6.4816,6.5189,6.5865,6.6508,6.6981,6.7421,6.7726,6.9302,6.8935,6.5154,6.3906,6.4457,6.4604,6.5044,6.5632,6.4934,6.5375,6.6402,6.42,6.2695,6.1545,5.7245,0.0,0.0,5.6505,5.7311,5.9201,5.9945,6.0689,6.14,6.2042,6.2042,6.1366,6.0588,5.9505,5.8152,5.7273,5.5513,5.2807,4.9323,4.8883,5.1386,5.3754,5.6325,5.9066,6.1264,6.2381,6.2415,6.2415,6.2381,6.2279,6.3096,6.3124,6.2472,6.3164,6.2609,6.0375,5.8093,5.3995,4.7901,0.0,0.0,0.0,0.0,0.0,0.0,0.0,0.0,0.0,0.0,0.0,0.0,0.0,0.0,0.0,3.9411,0.0,4.5602,4.5974,0.0,0.0,0.0,4.6718,4.7665,5.1488,5.4634,5.6156,0.0,0.0,6.3768,0.0,6.6677,6.6034,6.5967,6.617,6.6812,6.7557,6.8064,6.8064,6.9316,6.9992,6.9417,7.0161,7.0872,7.1041,7.1312,7.1007,7.0432,7.0263,6.9992,6.9451,6.9316,6.9485,7.0161,7.0026,6.9823,6.8368,6.8707,6.9248,6.9248,6.9248,6.9282,7.2532,7.2422,7.0844,6.9265,6.7871,6.9082,6.9339,6.9009,6.9412,6.8788,6.7357,6.6806,6.5411,6.3415,6.224,6.1247,6.0379,6.0806,6.0891,6.0791,6.1501,6.1941,6.2144,6.2313,6.2279,6.2076,6.1366,6.0858,6.0419,5.8558,5.7577,5.734,5.5412,5.3923,5.3112,5.6292,5.8558,5.9844,6.1535,6.2415,6.2415,6.2415,6.211,6.1569,6.1766,6.185,6.1744,6.1354,6.0915,6.0358,5.8093,5.5244,5.1903,4.5585,0.0,0.0,0.0,0.0,0.0,0.0,0.0,0.0,0.0,3.7855,3.0412,0.0,3.9851,0.0,4.2963,4.5974,4.7259,4.8409,0.0,0.0,5.1657,5.2841,5.5784,5.7543,5.9336,6.14,6.3565,6.5392,6.6677,6.732,6.7827,6.8199,6.8301,6.8132,6.776,6.8808,6.9654,6.9722,7.0398,7.0973,7.0804,7.1041,7.1312,7.1312,7.1312,7.1244,7.1075,7.1041,7.0973,7.0838,7.0804,7.0872,7.1007,7.1041,7.0939,7.0601,7.0669,7.0804,7.077,7.077,7.077,7.4221,7.4221,7.3744,7.2789,7.1615,7.1762,7.1578,7.1211,7.1651,7.0881,6.9265,6.8935,6.8017,6.6753,6.6286,6.5366,6.4119,6.4078,6.3618,6.2787,6.3193,6.3193,6.2888,6.2888,6.2719,6.2381,6.1975,6.1603,6.1231,6.0013,5.9438,5.9471,5.866,5.7848,5.707,5.866,5.9877,6.0622,6.1806,6.2415,6.2381,6.2076,6.1535,6.0791,6.0452,6.0177,5.9938,5.9516,5.9329,5.9316,5.7804,5.5925,5.3769,4.9102,4.5147,0.0,0.0,0.0,0.0,0.0,0.0,0.0,0.0,0.0,0.0,0.0,4.3301,0.0,4.7361,0.0,5.1725,5.3484,5.504,5.6325,5.734,5.8795,6.0825,6.2245,6.37,6.529,6.6474,6.7523,6.8335,6.8707,6.9045,6.9553,6.9891,6.9823,6.918,6.9958,7.0703,7.0703,7.1041,7.1312,7.1312,7.1312,7.1312,7.1312,7.1312,7.1312,7.1312,7.1312,7.1312,7.1312,7.1312,7.1312,7.1312,7.1312,7.1312,7.1312,7.1312,7.1312,7.1312,7.1312,7.1312,7.5065,7.5065,7.4955,7.4918,7.4808,7.3413,7.2753,7.2642,7.2753,7.2312,7.1431,7.0734,7.0367,7.0201,6.9454,6.8534,6.7472,6.6563,6.5704,6.4788,6.4661,6.4275,6.3666,6.3565,6.3226,6.2685,6.2482,6.211,6.1569,6.14,6.0994,6.0419,6.0283,6.0655,6.14,6.0757,6.0723,6.1434,6.2076,6.2415,6.2381,6.167,6.0858,5.9979,5.9268,5.8423,5.7509,5.7808,5.7904,5.7716,5.7388,5.6527,5.492,5.2595,4.9848,0.0,4.4748,0.0,0.0,0.0,0.0,0.0,0.0,0.0,0.0,4.6312,4.7631,4.8815,5.2198,5.5175,5.7205,5.937,6.0689,6.0757,6.2719,6.4072,6.414,6.5967,6.7489,6.8132,6.8808,6.9282,6.9417,6.9891,7.0195,7.0364,7.0804,7.0939,7.05,7.0838,7.1244,7.1312,7.1312,7.1312,7.1312,7.1312,7.1312,7.1312,7.1312,7.1312,7.1312,7.1312,7.1312,7.1312,7.1312,7.1312,7.1312,7.1312,7.1312,7.1312,7.1312,7.1312,7.1312,7.1312,7.1312,7.5873,7.5799,7.5175,7.4918,7.4882,7.4588,7.4074,7.3523,7.4184,7.3634,7.2275,7.2129,7.1688,7.1101,7.0893,6.9986,6.8498,6.7472,6.6563,6.5669,6.4914,6.4546,6.4377,6.3802,6.3768,6.4072,6.2956,6.2651,6.3057,6.1873,6.1535,6.1941,6.1366,6.1434,6.2144,0.0,0.0,0.0,6.2313,6.2415,6.2381,6.167,6.0622,5.9268,5.849,0.0,5.5414,5.6434,5.6784,5.6245,5.7861,0.0,0.0,0.0,0.0,0.0,0.0,0.0,0.0,0.0,0.0,0.0,5.2506,5.0574,4.7733,5.1826,5.46,5.4363,5.707,5.9268,6.0351,6.2448,6.3768,6.3835,6.573,6.7083,6.7117,6.8538,6.962,6.9722,6.9891,7.0229,7.0737,7.05,7.0432,7.0973,7.1244,7.1244,7.1109,7.121,7.1312,7.1312,7.1312,7.1312,7.1312,7.1312,7.1312,7.1312,7.1312,7.1312,7.1312,7.1312,7.1312,7.1312,7.1312,7.1312,7.1312,7.1312,7.1312,7.1312,7.1312,7.1312,7.1312,7.1312,7.1312,7.6717,0.0,7.6276,7.6093,0.0,7.6093,7.5616,7.4845,7.4478,7.3634,7.2532,7.2532,7.2275,7.1908,7.1908,7.1208,6.9904,6.8916,6.8293,6.7791,6.6325,6.5995,6.6526,6.568,6.5275,6.5241,6.4487,6.3981,6.3497,6.3125,6.2922,6.2956,6.2922,6.3125,6.3463,6.3497,6.3125,6.2415,6.2779,6.3026,6.2888,6.1873,6.0757,5.9573,0.0,0.0,0.0,0.0,0.0,0.0,0.0,0.0,0.0,0.0,0.0,5.6703,5.6345,5.6181,5.627,5.668,5.7569,5.9089,5.9114,5.7408,5.3687,5.6867,5.9032,5.9066,6.1028,6.2651,6.3429,6.5155,6.6237,6.6339,6.7895,6.9045,6.9147,7.0026,7.0737,7.0737,7.077,7.0906,7.1244,7.1007,7.0906,7.1244,7.1312,7.1312,7.1312,7.1312,7.1312,7.1312,7.1312,7.1312,7.1312,7.1312,7.1312,7.1312,7.1312,7.1312,7.1312,7.1312,7.1312,7.1312,7.1312,7.1312,7.1312,7.1312,7.1312,7.1312,7.1312,7.1312,7.1312,7.1312,7.1312,7.7341,7.7341,7.7341,7.7341,7.7341,7.7341,7.6864,7.6019,0.0,0.0,0.0,7.2716,7.2642,7.2532,7.2532,7.2071,7.1286,7.04,6.9849,6.9637,6.7901,6.7477,6.8254,6.7301,6.6643,6.6125,6.5883,6.5113,6.3903,6.4377,6.4309,6.3802,6.4309,6.4613,6.4613,6.4742,6.4131,6.29,6.3536,6.381,6.3632,6.2381,6.1332,6.052,5.9066,5.7611,5.6156,5.5649,5.5553,5.5985,5.5939,5.707,5.9614,6.0051,6.1134,6.3085,6.4053,6.4567,6.4751,6.4894,6.4602,6.3948,6.4186,6.3046,6.0216,6.14,6.2584,6.3294,6.4478,6.5493,6.6237,6.7489,6.8301,6.8335,6.9553,7.0398,7.0398,7.0906,7.1278,7.1312,7.1278,7.1312,7.1312,7.1278,7.1312,7.1312,7.1312,7.1312,7.1312,7.1312,7.1312,7.1312,7.1312,7.1312,7.1312,7.1312,7.1312,7.1312,7.1312,7.1312,7.1312,7.1312,7.1312,7.1312,7.1312,7.1312,7.1312,7.1312,7.1312,7.1312,7.1312,7.1312,7.1312,7.1312,7.1312,7.7341,7.7341,7.7341,7.7341,7.7341,7.7341,7.6864,7.6056,7.5139,7.4294,7.3523,7.3523,7.3156,7.2532,7.2532,7.2438,7.2226,7.135,7.0468,0.0,6.8496,6.7673,6.7073,6.6262,6.6181,6.6588,6.5433,6.5013,6.529,6.485,6.4546,6.4478,6.4546,6.4613,6.4661,6.5353,6.525,6.4275,6.4436,6.447,6.441,6.3632,6.2854,6.2042,6.0588,5.9099,5.7645,5.8118,5.8157,5.7691,5.9974,6.1636,6.2222,6.3466,6.4416,6.494,6.5705,6.6476,6.7173,6.7782,6.8291,6.8473,6.7981,6.6505,6.4119,6.5189,6.6339,6.7049,6.7252,6.776,6.8538,6.935,6.9823,6.9891,7.0601,7.1142,7.1109,7.121,7.1312,7.1312,7.1312,7.1312,7.1312,7.1312,7.1312,7.1312,7.1312,7.1312,7.1312,7.1312,7.1312,7.1312,7.1312,7.1312,7.1312,7.1312,7.1312,7.1312,7.1312,7.1312,7.1312,7.1312,7.1312,7.1312,7.1312,7.1312,7.1312,7.1312,7.1312,7.1312,7.1312,7.1312,7.1312,7.1312,7.1312,7.7341,7.7341,7.7341,7.7341,7.7341,7.7341,7.7121,7.6754,7.6387,7.5506,7.4404,7.4368,7.3927,7.3193,7.3156,7.2899,7.2438,7.1511,7.1159,7.1095,6.9672,6.9095,6.906,6.8258,6.7757,6.7513,6.6896,6.6233,6.5779,6.573,6.5595,6.5256,6.5595,6.5595,6.5304,6.6016,6.6016,6.5189,6.5278,6.5278,6.5155,6.4478,6.3937,6.3599,6.2516,6.1434,6.0385,6.0655,6.0689,6.0351,6.2021,6.3417,6.4428,6.6022,6.7366,6.8341,6.9665,7.055,7.0917,7.1199,7.1179,7.089,7.0375,6.937,6.7743,6.7861,6.8199,6.8538,6.891,6.9282,6.9654,7.0364,7.0804,7.0804,7.1142,7.1312,7.1312,7.1312,7.1312,7.1312,7.1312,7.1312,7.1312,7.1312,7.1312,7.1312,7.1312,7.1312,7.1312,7.1312,7.1312,7.1312,7.1312,7.1312,7.1312,7.1312,7.1312,7.1312,7.1312,7.1312,7.1312,7.1312,7.1312,7.1312,7.1312,7.1312,7.1312,7.1312,7.1312,7.1312,7.1312,7.1312,7.1312,7.1312,7.1312,7.7341,7.7341,7.7341,7.7341,7.7341,7.7341,7.7341,7.7341,7.7304,7.6607,7.5542,7.5285,7.4735,7.4001,7.378,7.334,7.2731,7.1805,7.1732,7.2011,7.0668,7.016,7.04,6.9849,6.9078,6.8231,6.831,6.7832,6.6732,6.6908,6.6724,6.6034,6.6542,6.6508,6.5967,6.6677,6.6779,6.6287,6.6508,6.6405,6.5982,6.5561,6.5358,6.529,6.4783,6.4241,6.3666,6.3463,6.3396,6.3429,6.4106,6.5198,6.6581,6.8176,6.9777,7.1434,7.2824,7.3823,7.4162,7.3968,7.3452,7.2613,7.217,7.1512,7.0507,6.9925,6.962,6.9654,7.0094,7.0432,7.05,7.0939,7.1312,7.1312,7.1312,7.1312,7.1312,7.1312,7.1312,7.1312,7.1312,7.1312,7.1312,7.1312,7.1312,7.1312,7.1312,7.1312,7.1312,7.1312,7.1312,7.1312,7.1312,7.1312,7.1312,7.1312,7.1312,7.1312,7.1312,7.1312,7.1312,7.1312,7.1312,7.1312,7.1312,7.1312,7.1312,7.1312,7.1312,7.1312,7.1312,7.1312,7.1312,7.1312,7.1312,7.7341,7.7341,7.7341,7.7341,7.7341,7.7341,7.7341,7.7341,7.7341,7.7268,7.6974,7.635,7.5542,7.4771,7.4074,7.3707,7.3523,7.2768,7.2048,7.1422,7.1059,7.0092,6.8903,6.9185,6.8934,6.8266,6.8854,6.9105,6.8842,6.8335,6.7628,6.6795,6.6779,6.6846,6.6812,6.7455,6.776,6.7726,6.8421,6.8116,6.6846,6.7286,6.759,6.759,6.7523,6.7455,6.7218,6.6745,6.6406,6.6474,6.7049,6.7959,6.9001,6.9862,7.1171,7.2921,7.3363,7.4151,7.5568,7.5225,7.4623,7.4109,7.3345,7.2415,7.1308,7.1109,7.1109,7.1041,7.1142,7.1142,7.121,7.1278,7.1312,7.1312,7.1312,7.1312,7.1312,7.1312,7.1312,7.1312,7.1312,7.1312,7.1312,7.1312,7.1312,7.1312,7.1312,7.1312,7.1312,7.1312,7.1312,7.1312,7.1312,7.1345,7.1312,7.1312,7.1312,7.1312,7.1312,7.1312,7.1312,7.1312,7.1312,7.1312,7.1312,7.1312,7.1312,7.1312,7.1312,7.1312,7.1312,7.1312,7.1312,7.1379,7.1413,7.7341,7.7341,7.7341,7.7341,7.7341,7.7341,7.7341,7.7341,7.7341,7.7341,7.7304,7.6974,7.635,7.5579,7.5249,7.4882,7.4404,7.4074,7.3713,7.3337,7.3337,7.2597,7.1481,7.1624,7.0996,6.9611,6.9935,6.9808,6.9233,6.891,6.8523,6.8166,6.8166,6.8166,6.8199,6.847,6.8605,6.8605,6.8944,6.8808,6.8301,6.8436,6.8605,6.8605,6.8605,6.8605,6.8605,6.8301,6.8166,6.8199,6.8876,6.9422,6.9867,7.1105,7.215,7.3053,7.419,7.5429,7.6729,7.6533,7.5999,7.5263,7.4325,7.3335,7.2329,7.1688,7.1312,7.1312,7.1312,7.1312,7.1312,7.1312,7.1312,7.1312,7.1312,7.1312,7.1312,7.1312,7.1312,7.1312,7.1312,7.1312,7.1312,7.1312,7.1312,7.1312,7.1312,7.1312,7.1312,7.1312,7.1312,7.1379,7.165,7.1718,7.1447,7.1312,7.1312,7.1312,7.1312,7.1312,7.1312,7.1312,7.1312,7.1312,7.1345,7.1345,7.1312,7.1312,7.1312,7.1345,7.1379,7.1515,7.2394,7.2259,7.2157,7.7341,7.7341,7.7341,7.7341,7.7341,7.7341,7.7341,7.7341,7.7341,7.7341,7.7341,7.7341,7.6974,7.646,7.6203,7.5763,7.5249,7.5028,7.4918,7.4918,7.4918,7.4384,7.3543,7.3389,7.2691,7.1497,7.1264,7.0958,7.0372,7.0338,7.0045,6.9612,6.9527,6.939,6.9113,6.9248,6.9383,6.9417,6.9586,6.9722,6.9722,6.9722,6.962,6.9451,6.962,6.9688,6.9722,6.9722,6.9722,6.9722,7.0229,7.05,7.0534,7.1696,7.2498,7.288,7.4385,7.5823,7.6793,7.6628,7.6197,7.544,7.446,7.3492,7.2498,7.1688,7.1312,7.1312,7.1312,7.1312,7.1312,7.1312,7.1312,7.1312,7.1312,7.1312,7.1312,7.1312,7.1312,7.1312,7.1312,7.1312,7.1312,7.1312,7.1312,7.1312,7.1312,7.1312,7.1312,7.1312,7.1312,7.1312,7.1785,7.1819,7.1447,7.1582,7.1515,7.1312,7.1312,7.1312,7.1312,7.1312,7.1312,7.1312,7.1447,7.1481,7.1413,7.1379,7.165,7.165,7.1785,7.2191,7.3071,7.2935,7.2969,7.7341,7.7341,7.7341,7.7341,7.7341,7.7341,7.7341,7.7341,7.7341,7.7341,7.7341,7.7341,7.7304,7.7157,7.6497,7.6093,7.5946,7.5359,7.5065,7.5065,7.5028,7.442,7.3513,7.3226,7.318,7.3106,7.3032,7.3046,7.3144,7.3177,7.2371,7.066,7.0603,7.0113,6.9542,6.9945,7.0128,7.0195,7.0737,7.1142,7.1176,7.1142,7.0804,7.0263,7.0804,7.1109,7.1142,7.1176,7.1176,7.1176,7.1176,7.121,7.1244,7.1367,7.1898,7.2832,7.3842,7.4902,7.5757,7.5263,7.4677,7.4416,7.3826,7.2567,7.1981,7.1694,7.1515,7.1379,7.1515,7.1481,7.1481,7.1413,7.1312,7.1312,7.1312,7.1312,7.1312,7.1312,7.1312,7.1312,7.1312,7.1312,7.1312,7.1312,7.1312,7.1312,7.1312,7.1312,7.1312,7.1312,7.1312,7.1345,7.1413,7.1379,7.1379,7.1616,7.1751,7.1548,7.1312,7.1345,7.1312,7.1312,7.1312,7.1481,7.1887,7.1954,7.1616,7.1751,7.2225,7.2496,7.28,7.3308,7.3916,7.3612,7.3646,7.7341,7.7341,7.7341,7.7341,7.7341,7.7341,7.7341,7.7341,7.7341,7.7341,7.7341,7.7341,7.7341,7.7304,7.7011,7.69,7.6864,7.657,7.646,7.646,7.646,7.624,7.5953,7.5785,7.5458,7.4939,7.4868,7.4583,7.4046,7.4011,7.3718,7.2964,7.229,7.1753,7.1438,7.1056,7.0906,7.0939,7.121,7.1312,7.1312,7.1312,7.1176,7.0939,7.1142,7.1312,7.1312,7.1312,7.1312,7.1312,7.1312,7.1312,7.1345,7.1751,7.2458,7.3392,7.4274,7.5486,7.6877,7.6328,7.6027,7.6586,7.5204,7.3963,7.3635,7.3084,7.2699,7.2665,7.2699,7.2699,7.2496,7.1887,7.1312,7.1312,7.1312,7.1379,7.1312,7.1312,7.1312,7.1312,7.1312,7.1312,7.1312,7.1312,7.1312,7.1312,7.1312,7.1312,7.1312,7.1312,7.1312,7.1379,7.1684,7.1853,7.1345,7.1481,7.1582,7.1447,7.1345,7.1616,7.1718,7.1413,7.1345,7.1853,7.2326,7.2496,7.2225,7.2631,7.3037,7.3172,7.3544,7.4119,7.4728,7.4424,7.4492,7.7488,7.7708,7.7745,7.7892,7.8075,7.7818,7.7745,7.7708,7.7451,7.7341,7.7341,7.7341,7.7341,7.7341,7.7341,7.7341,7.7341,7.7304,7.7341,7.7341,7.7341,7.7341,7.7243,7.6956,7.6628,7.633,7.6264,7.5891,7.5369,7.5299,7.5084,7.4757,7.3807,7.3125,7.2749,7.183,7.1312,7.1312,7.1312,7.1312,7.1312,7.1312,7.1312,7.1312,7.1312,7.1312,7.1312,7.1312,7.1312,7.1312,7.1312,7.1413,7.1684,7.2124,7.2824,7.3704,7.4203,7.5303,7.6724,7.6172,7.5976,7.6956,7.5602,7.4513,7.4425,7.3867,7.3569,7.3477,7.3477,7.3477,7.3308,7.2597,7.2022,7.2022,7.2022,7.2022,7.1988,7.1785,7.1582,7.1345,7.1312,7.1312,7.1312,7.1312,7.1312,7.1312,7.1312,7.1312,7.1312,7.1312,7.1312,7.1345,7.165,7.1684,7.1447,7.1413,7.1447,7.1345,7.1312,7.1684,7.1887,7.1548,7.1684,7.2225,7.2631,7.2834,7.3138,7.3544,7.3713,7.3815,7.4289,7.4864,7.5134,7.5202,7.5202,7.7818,7.8479,7.8589,7.8956,7.9433,7.8883,7.8589,7.8369,7.7708,7.7414,7.7341,7.7341,7.7341,7.7341,7.7341,7.7341,7.7341,7.7341,7.7341,7.7341,7.7341,7.7341,7.7243,7.6498,7.6563,7.7118,7.7243,7.7243,7.7019,7.6956,7.6563,7.5718,7.483,7.3928,7.2962,7.2056,7.1367,7.1367,7.1367,7.1312,7.1312,7.1312,7.1312,7.1312,7.1312,7.1312,7.1312,7.1312,7.1312,7.1312,7.1379,7.1684,7.2293,7.2563,7.28,7.3467,7.3637,7.4116,7.5016,7.4453,7.4522,7.5241,7.433,7.3898,7.3966,7.3806,7.3713,7.3747,7.3713,7.3646,7.368,7.3578,7.3409,7.3443,7.3206,7.324,7.3206,7.2766,7.2124,7.1548,7.1379,7.1312,7.1312,7.1312,7.1312,7.1312,7.1312,7.1312,7.1312,7.1312,7.1312,7.1312,7.1447,7.1447,7.1379,7.1312,7.1312,7.1312,7.1312,7.1481,7.1751,7.165,7.2022,7.2529,7.3308,7.3544,7.3883,7.4255,7.4356,7.4525,7.5067,7.5337,7.5439,7.5473,7.554,7.8369,7.8589,7.8589,7.9066,7.9727,7.9507,7.9103,7.8589,7.8295,7.7892,7.7414,7.7341,7.7341,7.7341,7.7341,7.7341,7.7341,7.7341,7.7341,7.7341,7.7341,7.7341,7.7243,7.6956,7.7019,7.7243,7.7341,7.7341,7.7341,7.7341,7.7118,7.6692,7.5823,7.5192,7.4684,7.3252,7.2364,7.2279,7.16,7.1312,7.1312,7.1312,7.1312,7.1312,7.1312,7.1312,7.1312,7.1312,7.1312,7.1345,7.1785,7.2394,7.3071,7.3646,7.4018,7.4289,7.4762,7.5491,7.6292,7.5607,7.5423,7.6114,7.5549,7.5093,7.4999,7.4999,7.5033,7.4999,7.4999,7.4999,7.4999,7.4999,7.4627,7.3612,7.3477,7.3544,7.3477,7.2902,7.2394,7.209,7.1616,7.1345,7.1345,7.1345,7.1447,7.1379,7.1379,7.1413,7.1345,7.1379,7.1312,7.1312,7.1312,7.1379,7.1481,7.1447,7.1379,7.1481,7.1548,7.1447,7.165,7.2124,7.2462,7.3037,7.3781,7.4289,7.4627,7.483,7.4931,7.4965,7.5202,7.5439,7.5608,7.5676,7.5676,7.9029,7.9066,7.936,7.9947,8.0608,8.0388,7.9984,7.947,7.914,7.8736,7.8295,7.8259,7.8259,7.8185,7.7928,7.7781,7.7745,7.7488,7.7341,7.7341,7.7341,7.7341,7.7341,7.7341,7.7341,7.7414,7.7635,7.7781,7.7781,7.7818,7.7781,7.762,7.6512,7.5823,7.558,7.385,7.2797,7.2666,7.183,7.1312,7.1312,7.1312,7.1312,7.1312,7.1312,7.1447,7.1684,7.1718,7.1718,7.1853,7.2394,7.3138,7.3849,7.4356,7.4728,7.5067,7.5371,7.5986,7.6508,7.6011,7.5926,7.645,7.6386,7.6115,7.6183,7.6318,7.6555,7.6555,7.6555,7.6555,7.6521,7.6251,7.5709,7.4897,7.4525,7.4221,7.3916,7.351,7.3105,7.2834,7.2428,7.2157,7.2124,7.2124,7.1988,7.1819,7.1954,7.1921,7.1853,7.1718,7.1718,7.1616,7.1447,7.1548,7.1718,7.1616,7.1481,7.165,7.1853,7.1718,7.1718,7.2496,7.3037,7.3781,7.4525,7.4897,7.5236,7.5371,7.5473,7.5473,7.5371,7.5506,7.5676,7.5676,7.5676,7.9837,7.9947,8.0645,8.1342,8.1929,8.1379,8.0975,8.0791,8.0167,7.9764,7.9653,7.9543,7.9617,7.9543,7.8919,7.8662,7.8516,7.7855,7.7635,7.7598,7.7561,7.7488,7.7341,7.7488,7.7561,7.7635,7.8295,7.8626,7.8662,7.8662,7.8662,7.8526,7.7189,7.614,7.6009,7.4104,7.3322,7.3309,7.2156,7.1582,7.1582,7.1548,7.1548,7.1548,7.1616,7.1887,7.236,7.2563,7.2597,7.2631,7.324,7.3883,7.4492,7.4661,7.5067,7.5709,7.5777,7.5912,7.5974,7.6177,7.6109,7.6272,7.6685,7.6961,7.6995,7.7367,7.7671,7.7705,7.7773,7.7841,7.7705,7.7333,7.6893,7.6758,7.5879,7.5236,7.4762,7.4559,7.4119,7.368,7.351,7.3443,7.3274,7.3274,7.3003,7.2732,7.2902,7.2868,7.2631,7.2462,7.2462,7.2293,7.2056,7.2124,7.2428,7.2326,7.2225,7.2394,7.2529,7.2428,7.2225,7.2935,7.3781,7.4525,7.4999,7.5405,7.5642,7.5676,7.5676,7.5608,7.5608,7.5676,7.5676,7.5676,7.5676,8.0681,8.0718,8.0901,8.1452,8.2113,8.1929,8.1525,8.1012,8.0791,8.0388,7.9947,7.98,7.9874,7.9764,7.9617,7.947,7.9286,7.8626,7.8626,7.8993,7.8479,7.7892,7.7598,7.7965,7.8259,7.8369,7.9066,7.947,7.947,7.947,7.947,7.947,7.8885,7.861,7.8413,7.6545,7.5697,7.5299,7.3753,7.2868,7.2834,7.2834,7.2935,7.2902,7.2868,7.2969,7.324,7.3747,7.4018,7.4018,7.4187,7.4661,7.5337,7.5405,7.5777,7.642,7.6589,7.6826,7.7232,7.7333,7.7333,7.7367,7.7536,7.7671,7.7705,7.7874,7.801,7.801,7.801,7.8044,7.801,7.7841,7.7502,7.6893,7.6251,7.5676,7.5371,7.4931,7.4492,7.4322,7.3849,7.3646,7.3612,7.3612,7.351,7.3308,7.3409,7.351,7.3308,7.3206,7.3206,7.3206,7.3071,7.3105,7.3138,7.3037,7.3071,7.324,7.3375,7.3443,7.3308,7.3477,7.439,7.527,7.5337,7.5608,7.5676,7.5676,7.5676,7.5676,7.5676,7.5676,7.5676,7.5676,7.5676,8.1305,8.1048,8.1379,8.1782,8.215,8.2186,8.1929,8.1562,8.1489,8.1269,8.0865,8.0791,8.0791,8.0755,8.0461,8.0314,8.0204,7.947,7.936,7.958,7.9286,7.8846,7.8589,7.8919,7.9103,7.9176,7.991,8.0277,8.0314,8.0314,8.0314,8.0204,7.9947,7.98,7.9526,7.7702,7.6611,7.6182,7.4566,7.3477,7.3477,7.3477,7.3443,7.3477,7.3477,7.3578,7.3984,7.4661,7.5067,7.5067,7.51,7.5405,7.6115,7.6217,7.6555,7.7266,7.7367,7.757,7.7874,7.801,7.801,7.8044,7.8213,7.845,7.8551,7.8686,7.8923,7.8957,7.8923,7.8923,7.8855,7.8653,7.8145,7.7468,7.6657,7.6082,7.5743,7.5337,7.51,7.4965,7.4695,7.439,7.439,7.439,7.4221,7.4119,7.4322,7.4255,7.4052,7.4018,7.395,7.395,7.3781,7.368,7.368,7.3646,7.3747,7.395,7.4086,7.4187,7.4289,7.4221,7.4728,7.5405,7.5574,7.5676,7.5676,7.5676,7.5676,7.5676,7.5676,7.5676,7.5676,7.5676,7.5676,8.1782,8.1195,8.1893,8.2186,8.2186,8.2186,8.215,8.2186,8.2113,8.2113,8.2039,8.2113,8.1966,8.215,8.1379,8.1122,8.1085,8.0277,7.9984,8.0094,8.0167,8.0241,8.0057,7.991,7.9947,8.0057,8.0755,8.1085,8.1122,8.1122,8.1122,8.1012,8.0461,8.0131,7.9917,7.8097,7.7008,7.6851,7.5357,7.4348,7.4255,7.4255,7.4187,7.3984,7.3984,7.4221,7.4762,7.5405,7.5845,7.5845,7.5811,7.6217,7.686,7.6995,7.7367,7.7942,7.8111,7.8179,7.828,7.845,7.8416,7.8653,7.9126,7.9397,7.9634,8.004,8.0175,8.0141,8.0242,8.0006,7.9904,7.9532,7.8923,7.8179,7.7468,7.669,7.6048,7.5743,7.5676,7.5676,7.5676,7.5676,7.5676,7.5642,7.5439,7.4796,7.4999,7.4931,7.4796,7.4728,7.4728,7.4728,7.4458,7.4119,7.4187,7.4255,7.4424,7.4627,7.4695,7.483,7.5067,7.51,7.5202,7.5439,7.5608,7.5676,7.5676,7.5676,7.5676,7.5676,7.5676,7.5676,7.5676,7.5676,7.5676,8.2113,8.1966,8.2113,8.2186,8.2186,8.2186,8.2223,8.226,8.2223,8.226,8.2186,8.2186,8.2186,8.2186,8.1966,8.1929,8.1782,8.1158,8.0755,8.0901,8.215,8.215,8.1672,8.1158,8.0791,8.0938,8.1562,8.1929,8.1929,8.2003,8.1966,8.1929,8.1856,8.1672,8.1337,7.9753,7.8806,7.8858,7.725,7.6109,7.598,7.5946,7.5642,7.5168,7.5168,7.527,7.5574,7.6217,7.6623,7.6657,7.6724,7.7063,7.7604,7.7739,7.8111,7.8686,7.8889,7.9092,7.9566,7.9667,7.9972,8.0344,8.0547,8.1054,8.1629,8.1156,8.1054,8.0953,8.0581,8.0242,8.0175,8.0073,7.96,7.8957,7.8213,7.7468,7.6758,7.6082,7.5743,7.5676,7.5676,7.5676,7.5676,7.5676,7.5574,7.5473,7.5506,7.5574,7.5506,7.5371,7.5303,7.5236,7.5134,7.483,7.483,7.4897,7.4965,7.5067,7.5168,7.5236,7.5473,7.5574,7.5506,7.554,7.5642,7.5676,7.5676,7.5676,7.5676,7.5676,7.5676,7.5676,7.5676,7.5676,7.5676,8.2186,8.2223,8.259,8.2774,8.281,8.3177,8.3324,8.3251,8.2884,8.2774,8.2663,8.2406,8.2186,8.2186,8.2186,8.2186,8.2223,8.2223,8.237,8.2774,8.3618,8.3691,8.3398,8.2847,8.2406,8.1856,8.237,8.2737,8.2847,8.3104,8.3361,8.3324,8.3287,8.3324,8.3154,8.1633,8.082,8.0376,7.9069,7.8006,7.7464,7.7029,7.6521,7.598,7.6048,7.6251,7.6318,7.6995,7.7536,7.7841,7.7942,7.8077,7.8416,7.8517,7.8889,7.9464,7.9634,7.9769,8.0107,8.0547,8.0851,8.1291,8.1596,8.1968,8.2137,8.1731,8.1325,8.1122,8.0682,8.0209,8.0209,8.0581,8.031,7.9701,7.8957,7.8348,7.7807,7.6657,7.5676,7.5676,7.5676,7.5676,7.5676,7.5676,7.5676,7.5574,7.5574,7.5642,7.5642,7.554,7.5574,7.5574,7.5608,7.5574,7.554,7.554,7.5473,7.5506,7.5506,7.554,7.5608,7.5676,7.5676,7.5676,7.5676,7.5676,7.5676,7.5676,7.5676,7.5676,7.5676,7.5676,7.5676,7.5676,7.5676,8.2186,8.226,8.3067,8.3434,8.3544,8.4205,8.4499,8.4425,8.3875,8.3508,8.3287,8.2663,8.248,8.237,8.2223,8.2223,8.2627,8.3434,8.4022,8.4242,8.4572,8.4572,8.4389,8.4168,8.3728,8.2737,8.3251,8.3581,8.3765,8.4205,8.4278,8.4499,8.4535,8.4315,8.4259,8.3484,8.2326,8.1426,8.0333,7.9162,7.8273,7.7638,7.7029,7.6521,7.6724,7.7063,7.7198,7.7773,7.8416,7.9058,7.9228,7.9261,7.9261,7.9295,7.9498,8.0141,8.0107,8.0242,8.0513,8.0919,8.1325,8.1528,8.2171,8.2644,8.2644,8.2137,8.1663,8.1224,8.0818,8.0209,8.0242,8.0547,8.0648,8.0175,7.9532,7.916,7.8754,7.7266,7.6386,7.5946,7.5811,7.5676,7.5676,7.5676,7.5676,7.5676,7.5676,7.5676,7.5676,7.5676,7.5676,7.5676,7.5676,7.5676,7.5676,7.5676,7.5676,7.5676,7.5676,7.5676,7.5676,7.5676,7.5676,7.5676,7.5676,7.5709,7.5709,7.5676,7.5676,7.5676,7.5676,7.5676,7.5676,7.5676,7.5811,8.2186,8.226,8.3067,8.3434,8.3544,8.4278,8.4682,8.4609,8.4499,8.4022,8.3508,8.3287,8.3214,8.3067,8.2443,8.259,8.3508,8.4499,8.5013,8.4976,8.527,8.538,8.4939,8.4903,8.4572,8.4315,8.4425,8.4499,8.4425,8.4535,8.4866,8.4682,8.4756,8.4756,8.4378,8.3593,8.2942,8.2086,8.1155,8.0258,7.9118,7.8619,7.8145,7.7502,7.7671,7.7773,7.7976,7.8483,7.8991,7.916,7.9701,7.9938,7.9972,7.9972,8.0107,8.0242,8.031,8.0547,8.1054,8.1291,8.2002,8.278,8.3253,8.3625,8.3693,8.3016,8.2272,8.1832,8.1122,8.031,8.0209,8.0581,8.0378,8.004,7.9667,7.9194,7.8957,7.8213,7.7299,7.6927,7.6352,7.5777,7.5879,7.5845,7.5676,7.5676,7.5676,7.5676,7.5676,7.5676,7.5676,7.5676,7.5676,7.5676,7.5676,7.5676,7.5676,7.5676,7.5676,7.5676,7.5676,7.5676,7.5676,7.5676,7.5709,7.5777,7.5743,7.5811,7.598,7.6183,7.598,7.5777,7.6048,7.6352,7.6386,8.2186,8.2333,8.3508,8.4022,8.4242,8.5343,8.5857,8.5783,8.5416,8.5013,8.4609,8.4242,8.4022,8.3911,8.3654,8.3911,8.4719,8.5306,8.5783,8.5857,8.6187,8.6261,8.582,8.582,8.5857,8.5857,8.582,8.5527,8.5306,8.571,8.5747,8.5857,8.5857,8.5577,8.5189,8.5154,8.384,8.2729,8.2101,8.1355,7.9766,7.9363,7.8754,7.828,7.8382,7.8551,7.872,7.9295,7.9667,7.9735,8.0006,8.0175,8.0276,8.0513,8.075,8.075,8.075,8.1088,8.1799,8.2171,8.2813,8.3355,8.3795,8.42,8.4268,8.3625,8.2813,8.2408,8.2441,8.1562,8.0919,8.1088,8.0953,8.031,7.9837,7.9667,7.9498,7.8957,7.845,7.7908,7.713,7.6589,7.6284,7.6149,7.5811,7.5676,7.5709,7.5743,7.5777,7.5912,7.6014,7.5811,7.5811,7.5676,7.5676,7.5676,7.5676,7.5676,7.5709,7.5709,7.5811,7.5845,7.5777,7.5676,7.5743,7.6048,7.6251,7.6454,7.6555,7.6724,7.6826,7.6893,7.6927,7.6995,7.7063,8.2186,8.2296,8.3765,8.4389,8.4609,8.6077,8.6701,8.6664,8.6224,8.5894,8.571,8.5159,8.4829,8.4866,8.5049,8.538,8.5857,8.593,8.6371,8.6738,8.6885,8.6958,8.6995,8.7031,8.6885,8.6701,8.6775,8.6664,8.6261,8.6518,8.6885,8.6811,8.6958,8.6428,8.5586,8.57,8.4416,8.3242,8.2661,8.2095,8.0569,7.9634,7.9092,7.8517,7.9025,7.9329,7.9397,7.9803,8.0073,8.0107,8.0175,8.0209,8.0276,8.075,8.119,8.1426,8.1393,8.1765,8.2475,8.278,8.3152,8.3795,8.4268,8.4539,8.4437,8.3896,8.3186,8.2712,8.2712,8.2644,8.1731,8.1866,8.1494,8.0818,8.0344,8.0141,8.0006,7.9667,7.9397,7.8754,7.7908,7.7435,7.7164,7.6589,7.6251,7.6217,7.6251,7.6217,7.6284,7.6521,7.6521,7.6115,7.5912,7.5743,7.5676,7.5676,7.5676,7.5676,7.5743,7.5811,7.5946,7.6082,7.6082,7.6217,7.6454,7.6758,7.6927,7.6995,7.7029,7.7232,7.7739,7.7874,7.757,7.757,7.7705,8.2186,8.226,8.3177,8.3544,8.3838,8.5306,8.5967,8.6077,8.6591,8.6407,8.5894,8.5747,8.5673,8.5783,8.6334,8.6297,8.6187,8.6481,8.6811,8.6995,8.7031,8.7031,8.7031,8.7031,8.7031,8.7031,8.7031,8.6995,8.6811,8.6921,8.7031,8.7031,8.6925,8.6392,8.5201,8.5544,8.4253,8.23,8.206,8.1474,8.0442,8.0073,7.9904,7.987,7.9904,8.004,8.004,8.0276,8.031,8.0276,8.0276,8.0242,8.0209,8.0242,8.1088,8.1629,8.1866,8.19,8.3016,8.3152,8.3355,8.4133,8.4539,8.4606,8.4471,8.4031,8.3355,8.2509,8.2644,8.2644,8.2306,8.1832,8.1426,8.1054,8.0615,8.0344,8.0175,8.0073,7.9837,7.9735,7.8923,7.845,7.8077,7.7367,7.6758,7.6758,7.6758,7.6758,7.6724,7.6927,7.6961,7.6521,7.598,7.5743,7.5676,7.5676,7.5709,7.5709,7.5912,7.598,7.6082,7.6352,7.6995,7.7164,7.7299,7.7367,7.7468,7.7502,7.7468,7.7841,7.8483,7.8348,7.7942,7.8111,7.845,8.2186,8.226,8.3067,8.3691,8.4205,8.5306,8.6077,8.6481,8.6848,8.6811,8.6518,8.6481,8.6481,8.6554,8.6885,8.6811,8.6628,8.6848,8.6995,8.7031,8.7031,8.7031,8.7031,8.7031,8.7031,8.7031,8.7031,8.7031,8.7031,8.7031,8.7031,8.7031,8.6856,8.5991,8.4809,8.5009,8.3415,8.1816,8.0868,8.0706,8.0376,8.0209,8.0209,8.0209,8.0209,8.0412,8.0682,8.0818,8.0818,8.0885,8.1122,8.1224,8.119,8.1562,8.2475,8.2813,8.278,8.3084,8.3896,8.3761,8.4031,8.4336,8.4606,8.4606,8.4539,8.4336,8.4031,8.3727,8.3693,8.349,8.3118,8.2746,8.2069,8.1528,8.1088,8.0682,8.0445,8.0242,8.0107,8.004,7.9938,7.9397,7.8855,7.8247,7.7671,7.7502,7.7536,7.7536,7.7299,7.713,7.7063,7.686,7.6251,7.5709,7.5676,7.5676,7.5743,7.5845,7.6318,7.6386,7.6318,7.6623,7.7367,7.7638,7.757,7.7705,7.7942,7.8179,7.8348,7.8788,7.9261,7.9058,7.8889,7.916,7.9464,8.2186,8.226,8.2847,8.3471,8.4095,8.5049,8.5783,8.6371,8.6848,8.6995,8.7031,8.6995,8.6995,8.7031,8.6995,8.6995,8.6995,8.7031,8.7031,8.7031,8.7031,8.7031,8.7031,8.7031,8.7031,8.7031,8.7031,8.7031,8.7031,8.7031,8.7031,8.7031,8.7031,8.5991,8.4773,8.4289,8.3277,8.0607,8.0376,8.0276,8.0209,8.0209,8.0209,8.0209,8.0276,8.0547,8.1156,8.1257,8.1257,8.1663,8.1968,8.1968,8.1799,8.2306,8.2983,8.3287,8.3253,8.3659,8.4167,8.4268,8.4471,8.4573,8.4606,8.4606,8.4606,8.4606,8.4606,8.4437,8.4437,8.42,8.3896,8.3592,8.2949,8.2272,8.1731,8.1257,8.0851,8.075,8.0615,8.0547,8.0412,8.0141,7.96,7.9058,7.8619,7.8348,7.828,7.8314,7.8111,7.7807,7.7671,7.7604,7.6758,7.6217,7.6082,7.6014,7.5946,7.6048,7.6555,7.7029,7.713,7.7333,7.7908,7.7976,7.8044,7.8551,7.9092,7.9194,7.9295,7.9532,7.9769,7.9972,8.004,8.0209,8.0175,8.2186,8.2186,8.2296,8.2406,8.2663,8.4058,8.4756,8.5343,8.6481,8.6995,8.7031,8.7031,8.7031,8.7031,8.7031,8.7031,8.7031,8.7031,8.7031,8.7031,8.7031,8.7031,8.7031,8.7031,8.7031,8.7031,8.7031,8.7031,8.7031,8.7031,8.7031,8.7031,8.6822,8.6174,8.5039,8.3883,8.2691,8.0678,8.0276,8.0209,8.0209,8.0209,8.0209,8.0209,8.0276,8.0547,8.1257,8.146,8.1765,8.2306,8.2611,8.2577,8.2509,8.278,8.3253,8.3592,8.3693,8.4031,8.437,8.4234,8.4099,8.4403,8.4606,8.4606,8.4606,8.4606,8.4606,8.4606,8.4606,8.4573,8.4268,8.3964,8.3524,8.3016,8.2475,8.2137,8.1731,8.1393,8.1257,8.1088,8.0953,8.0818,8.0716,8.0276,7.9532,7.9194,7.9058,7.9092,7.9194,7.8957,7.8788,7.845,7.7502,7.6961,7.6758,7.6657,7.6589,7.6657,7.6995,7.7705,7.828,7.8517,7.8686,7.8923,7.916,7.9701,8.0006,7.9735,7.9667,8.0006,8.0209,8.0209,8.0209,8.0209,8.0209,8.248,8.2884,8.2406,8.2774,8.3765,8.4866,8.5637,8.6114,8.6738,8.7031,8.7031,8.7031,8.7031,8.7031,8.7031,8.7031,8.7031,8.7031,8.7031,8.7031,8.7031,8.7031,8.7031,8.7031,8.7031,8.7031,8.7031,8.7031,8.7031,8.7068,8.7435,8.7296,8.6648,8.5711,8.4623,8.3451,8.1908,8.1186,8.0479,8.0209,8.0209,8.0209,8.0209,8.0209,8.075,8.1224,8.1934,8.2441,8.2746,8.3084,8.3456,8.3389,8.3219,8.3456,8.3761,8.4065,8.4099,8.4302,8.4505,8.4336,8.437,8.4471,8.4606,8.4606,8.4606,8.4606,8.4606,8.4606,8.4606,8.4606,8.4539,8.4336,8.4065,8.3592,8.3219,8.2949,8.2611,8.2238,8.2002,8.19,8.1832,8.1765,8.1697,8.1629,8.0784,8.004,7.9938,7.9803,7.9837,7.9769,7.9464,7.9126,7.8213,7.7705,7.7536,7.7367,7.7198,7.7333,7.7502,7.8145,7.8822,7.9464,7.9667,7.9938,7.9938,8.004,8.0073,7.9938,7.9972,8.0141,8.0209,8.0209,8.0209,8.0209,8.0209,8.2663,8.3361,8.303,8.3544,8.4646,8.5196,8.5894,8.6591,8.6885,8.7031,8.7031,8.7031,8.7031,8.7031,8.7031,8.7031,8.7031,8.7031,8.7031,8.7031,8.7031,8.7031,8.7031,8.7031,8.7031,8.7031,8.7031,8.7031,8.7031,8.7252,8.7655,8.7485,8.6485,8.5713,8.5273,8.3365,8.197,8.1563,8.1224,8.0851,8.0919,8.0919,8.0953,8.0987,8.1426,8.1968,8.2611,8.3084,8.349,8.3828,8.4167,8.4234,8.42,8.4268,8.4573,8.4606,8.4606,8.4606,8.4606,8.4606,8.4606,8.4606,8.4606,8.4606,8.4606,8.4606,8.4606,8.4606,8.4606,8.4606,8.4606,8.4505,8.4403,8.4031,8.3964,8.3693,8.3389,8.305,8.2847,8.2712,8.2543,8.2238,8.2205,8.2103,8.1596,8.0851,8.0615,8.0344,8.004,7.9938,7.9735,7.9363,7.8855,7.8517,7.8314,7.7976,7.7739,7.8044,7.8247,7.8483,7.9126,7.9769,8.0107,8.004,8.004,8.0175,8.0141,8.004,8.0073,8.0175,8.0209,8.0209,8.0209,8.0209,8.0209,8.2663,8.3471,8.4132,8.4462,8.4682,8.4682,8.5233,8.6114,8.6738,8.7031,8.7031,8.7031,8.7031,8.7031,8.7031,8.7105,8.7215,8.7178,8.7215,8.7362,8.7288,8.7142,8.7068,8.7105,8.7031,8.7031,8.7031,8.7031,8.7142,8.7692,8.8096,8.7812,8.6854,8.6025,8.7024,8.5175,8.3517,8.2547,8.2306,8.2137,8.2069,8.2035,8.2002,8.2035,8.2238,8.2712,8.3152,8.3558,8.393,8.437,8.4471,8.4539,8.4505,8.4505,8.4606,8.4606,8.4606,8.4606,8.4606,8.4606,8.4606,8.4606,8.4606,8.4606,8.4606,8.4606,8.4606,8.4606,8.4606,8.4606,8.4606,8.4606,8.4539,8.4471,8.4403,8.4302,8.3964,8.3795,8.3592,8.349,8.2915,8.2475,8.2475,8.2408,8.2103,8.1697,8.1393,8.0987,8.0513,8.0276,8.0141,7.9735,7.9397,7.9261,7.8957,7.845,7.8314,7.8653,7.8957,7.9194,7.9295,7.9667,7.9938,8.0006,8.0107,8.0175,8.0209,8.0175,8.0209,8.0209,8.0209,8.0209,8.0209,8.0209,8.0209,8.2663,8.3398,8.3141,8.3948,8.5343,8.6004,8.6371,8.6628,8.6885,8.7031,8.7031,8.7031,8.7031,8.7031,8.7105,8.7325,8.7729,8.7802,8.7912,8.8463,8.8059,8.7839,8.7692,8.7288,8.7068,8.7031,8.7031,8.7399,8.7839,8.8173,8.8399,8.8185,8.6983,8.5785,8.4966,8.3941,8.3396,8.3121,8.2712,8.2408,8.2441,8.2475,8.2509,8.2543,8.2915,8.3287,8.3592,8.393,8.4336,8.4573,8.4606,8.4606,8.4606,8.4606,8.4606,8.4606,8.4606,8.4606,8.4606,8.4606,8.4606,8.4606,8.4606,8.4606,8.4606,8.4606,8.4606,8.4606,8.4606,8.4606,8.4606,8.4606,8.4573,8.4573,8.4539,8.4539,8.437,8.4336,8.4268,8.4234,8.3896,8.3727,8.3693,8.3389,8.305,8.2712,8.2441,8.1697,8.1156,8.0953,8.0784,8.0276,7.9938,7.987,7.9667,7.9194,7.9058,7.9397,7.9634,7.9837,7.9938,7.9837,7.9938,8.0141,8.0175,8.0209,8.0209,8.0209,8.0209,8.0209,8.0209,8.0209,8.0209,8.0209,8.0209,8.2663,8.3361,8.3141,8.4058,8.5673,8.6077,8.6444,8.6921,8.7031,8.7031,8.7031,8.7031,8.7031,8.7068,8.7362,8.7582,8.8206,8.8536,8.872,8.9344,8.8904,8.8463,8.8059,8.7729,8.7582,8.7435,8.7509,8.7839,8.8539,8.8472,8.8179,8.7619,8.6966,8.5639,8.4489,8.3968,8.4001,8.3795,8.3524,8.3355,8.3321,8.3287,8.3253,8.3389,8.3625,8.393,8.4031,8.4302,8.4606,8.4606,8.4606,8.4606,8.4606,8.4606,8.4606,8.4606,8.4606,8.4606,8.4606,8.4606,8.4606,8.4606,8.4606,8.4606,8.4606,8.4606,8.4606,8.4606,8.4606,8.4606,8.4606,8.4606,8.4606,8.4606,8.4606,8.4606,8.4606,8.4539,8.4539,8.4606,8.4606,8.4606,8.4606,8.4471,8.4133,8.3795,8.349,8.2678,8.1866,8.1596,8.1291,8.075,8.031,8.0141,8.0073,7.9972,7.9938,8.0175,8.0209,8.0209,8.0175,8.004,8.0141,8.0209,8.0209,8.0209,8.0209,8.0209,8.0209,8.0209,8.0209,8.0209,8.0209,8.0209,8.0209,8.2663,8.3434,8.4242,8.4939,8.5563,8.5128,8.5678,8.6995,8.7031,8.7031,8.7031,8.7031,8.7031,8.7178,8.7766,8.8133,8.8426,8.905,8.9491,8.9601,8.9564,8.905,8.8683,8.8353,8.8243,8.8243,8.8353,8.8647,8.9311,8.8776,8.7899,8.6836,8.6345,8.5412,8.4755,8.4437,8.4437,8.4336,8.4302,8.4167,8.4133,8.4302,8.4234,8.4268,8.437,8.4437,8.4471,8.4573,8.4606,8.4606,8.4606,8.4606,8.4606,8.4606,8.4606,8.4606,8.4606,8.4606,8.4606,8.4606,8.4606,8.4606,8.4606,8.4606,8.4606,8.4606,8.4606,8.4606,8.4606,8.4606,8.4606,8.4606,8.4606,8.4606,8.4606,8.4606,8.4606,8.4606,8.4606,8.4606,8.4606,8.4606,8.4606,8.4573,8.4539,8.4403,8.4031,8.3693,8.2881,8.2137,8.1765,8.1156,8.0716,8.031,8.0276,8.0209,8.0209,8.0209,8.0209,8.0209,8.0209,8.0209,8.0209,8.0209,8.0209,8.0209,8.0209,8.0209,8.0209,8.0209,8.0209,8.0209,8.0209,8.0209,8.0209,8.2333,8.2627,8.3434,8.4205,8.4945,8.5046,8.5846,8.6925,8.7031,8.7031,8.7031,8.7031,8.7031,8.7068,8.7288,8.8096,8.8793,8.9454,9.0225,9.0482,9.0445,9.0152,8.9748,8.9344,8.916,8.9087,8.9197,8.9383,8.9751,8.9086,8.769,8.654,8.5617,8.4995,8.4819,8.4606,8.4606,8.4606,8.4606,8.4606,8.4606,8.4606,8.4606,8.4606,8.4606,8.4606,8.4606,8.4606,8.4606,8.4606,8.4606,8.4606,8.4606,8.4606,8.4606,8.4606,8.4606,8.4606,8.4606,8.4606,8.4606,8.4606,8.4606,8.4606,8.4606,8.4606,8.4606,8.4606,8.4606,8.4606,8.4606,8.4606,8.4606,8.4606,8.4606,8.4606,8.4606,8.4606,8.4606,8.4606,8.4606,8.4606,8.4606,8.4606,8.4573,8.4606,8.4505,8.4234,8.3795,8.3016,8.2408,8.1799,8.1088,8.0682,8.0344,8.0242,8.0209,8.0209,8.0209,8.0209,8.0209,8.0209,8.0209,8.0209,8.0209,8.0209,8.0209,8.0209,8.0209,8.0209,8.0209,8.0209,8.0209,8.0209,8.0209,8.1929,8.2333,8.3434,8.4259,8.4862,8.5221,8.5544,8.5731,8.6174,8.65,8.7031,8.7031,8.7031,8.7142,8.7729,8.8573,8.9381,9.0225,9.0959,9.1253,9.1217,9.0849,9.0482,9.008,8.9968,8.9895,8.9824,8.9935,8.9802,8.8398,8.6865,8.5684,8.4819,8.4713,8.4606,8.4606,8.4606,8.4606,8.4606,8.4606,8.4606,8.4606,8.4606,8.4606,8.4606,8.4606,8.4606,8.4606,8.4606,8.4606,8.4606,8.4606,8.4606,8.4606,8.4606,8.4606,8.4606,8.4606,8.4606,8.4606,8.4606,8.4606,8.4606,8.4606,8.4606,8.4606,8.4606,8.4606,8.4606,8.4606,8.4606,8.4606,8.4606,8.4606,8.4606,8.4606,8.4606,8.4606,8.4606,8.4606,8.4606,8.4606,8.4606,8.4606,8.4606,8.4606,8.4606,8.4539,8.4167,8.3625,8.3118,8.2644,8.1765,8.1054,8.0716,8.0378,8.0242,8.0242,8.0209,8.0209,8.0209,8.0209,8.0209,8.0209,8.0209,8.0209,8.0209,8.0209,8.0209,8.0209,8.0209,8.0209,8.0209,8.0209,8.0209,8.1117,8.1885,8.3636,8.4536,8.5138,8.4973,8.4452,8.379,8.4613,8.5695,8.6608,8.6925,8.7031,8.7215,8.8023,8.8683,8.9417,9.0298,9.0922,9.1584,9.1325,9.0848,9.03,9.0228,8.9378,8.986,8.9859,8.8909,8.8756,8.7607,8.6152,8.4713,8.4606,8.4606,8.4606,8.4606,8.4606,8.4606,8.4606,8.4606,8.4606,8.4606,8.4606,8.4606,8.4606,8.4606,8.4606,8.4606,8.4606,8.4606,8.4606,8.4606,8.4606,8.4606,8.4606,8.4606,8.4606,8.4606,8.4606,8.4606,8.4606,8.4606,8.4606,8.4606,8.4606,8.4606,8.4606,8.4606,8.4606,8.4606,8.4606,8.4606,8.4606,8.4606,8.4606,8.4606,8.4606,8.4606,8.4606,8.4606,8.4606,8.4606,8.4606,8.4606,8.4606,8.4606,8.4606,8.4606,8.4437,8.4031,8.3659,8.3321,8.2644,8.1765,8.1088,8.075,8.0378,8.0276,8.0209,8.0209,8.0209,8.0209,8.0209,8.0209,8.0209,8.0209,8.0209,8.0209,8.0209,8.0209,8.0209,8.0209,8.0209,8.0209,8.0209,7.8659,7.9088,8.1198,8.2936,8.4104,8.3167,8.3068,8.35,8.2892,8.3922,8.5619,8.65,8.6925,8.7002,8.7512,8.8133,8.8793,8.9748,9.0335,9.0483,9.0547,8.9833,8.9162,8.8509,8.7967,8.7205,8.7001,8.7208,8.6868,8.6262,8.5786,8.4713,8.4606,8.4606,8.4606,8.4606,8.4606,8.4606,8.4606,8.4606,8.4606,8.4606,8.4606,8.4606,8.4606,8.4606,8.4606,8.4606,8.4606,8.4606,8.4606,8.4606,8.4606,8.4606,8.4606,8.4606,8.4606,8.4606,8.4606,8.4606,8.4606,8.4606,8.4606,8.4606,8.4606,8.4606,8.4606,8.4606,8.4606,8.4606,8.4606,8.4606,8.4606,8.4606,8.4606,8.4606,8.4606,8.4606,8.4606,8.4606,8.4606,8.4606,8.4606,8.4606,8.4606,8.4606,8.4606,8.4606,8.4606,8.437,8.4031,8.3693,8.3456,8.2712,8.1832,8.1054,8.0682,8.0344,8.0209,8.0209,8.0209,8.0209,8.0209,8.0209,8.0209,8.0209,8.0209,8.0209,8.0209,8.0209,8.0209,8.0209,8.0209,8.0209,8.0209,7.7461,7.8027,7.9939,8.1331,8.1909,8.1589,8.1482,8.1644,8.1736,8.2571,8.3922,8.5391,8.6247,8.6538,8.7079,8.7442,8.8173,8.905,8.9203,8.9229,8.8945,8.8401,8.7646,8.6822,8.6695,8.608,8.5757,8.5659,8.5208,8.5273,8.5066,8.4606,8.4606,8.4606,8.4606,8.4606,8.4606,8.4606,8.4606,8.4606,8.4606,8.4606,8.4606,8.4606,8.4606,8.4606,8.4606,8.4606,8.4606,8.4606,8.4606,8.4606,8.4606,8.4606,8.4606,8.4606,8.4606,8.4606,8.4606,8.4606,8.4606,8.4606,8.4606,8.4606,8.4606,8.4606,8.4606,8.4606,8.4606,8.4606,8.4606,8.4606,8.4606,8.4606,8.4606,8.4606,8.4606,8.4606,8.4606,8.4606,8.4606,8.4606,8.4606,8.4606,8.4606,8.4606,8.4606,8.4606,8.4606,8.4573,8.4302,8.3964,8.3659,8.3152,8.2205,8.146,8.0919,8.0581,8.0209,8.0209,8.0209,8.0209,8.0209,8.0209,8.0209,8.0209,8.0209,8.0209,8.0209,8.0209,8.0209,8.0209,8.0209,8.0209,8.0209,7.6569,7.7797,7.9105,7.9737,7.9644,8.0167,7.9857,7.942,8.0741,8.1456,8.1887,8.3851,8.4773,8.5721,8.6645,8.7304,8.7633,8.7699,8.7756,8.7516,8.7213,8.651,8.5799,8.5339,8.4768,8.4774,8.4665,8.4689,8.4609,8.4694,8.4785,8.4606,8.4606,8.4606,8.4606,8.4606,8.4606,8.4606,8.4606,8.4606,8.4606,8.4606,8.4606,8.4606,8.4606,8.4606,8.4606,8.4606,8.4606,8.4606,8.4606,8.4606,8.4606,8.4606,8.4606,8.4606,8.4606,8.4606,8.4606,8.4606,8.4606,8.4606,8.4606,8.4606,8.4606,8.4606,8.4606,8.4606,8.4606,8.4606,8.4606,8.4606,8.4606,8.4606,8.4606,8.4606,8.4606,8.4606,8.4606,8.4606,8.4606,8.4606,8.4606,8.4606,8.4606,8.4606,8.4606,8.4606,8.4606,8.4539,8.437,8.4031,8.3693,8.3084,8.2441,8.19,8.1257,8.0547,8.0209,8.0209,8.0209,8.0209,8.0209,8.0209,8.0209,8.0209,8.0209,8.0209,8.0209,8.0209,8.0209,8.0209,8.0209,8.0209,8.0209,7.4463,7.6555,7.7205,7.7961,7.859,7.864,7.8375,7.8413,7.9254,7.9658,8.0281,8.1667,8.3016,8.3922,8.4195,8.4738,8.5347,8.5723,8.5692,8.5344,8.5093,8.4432,8.374,8.3132,8.1987,8.2098,8.2679,8.2956,8.3499,8.4109,8.4573,8.4471,8.4573,8.4573,8.4606,8.4606,8.4606,8.4606,8.4606,8.4606,8.4606,8.4606,8.4606,8.4606,8.4606,8.4606,8.4606,8.4606,8.4606,8.4606,8.4606,8.4606,8.4606,8.4606,8.4606,8.4606,8.4606,8.4606,8.4606,8.4606,8.4606,8.4606,8.4606,8.4606,8.4606,8.4606,8.4606,8.4606,8.4606,8.4606,8.4606,8.4606,8.4606,8.4606,8.4606,8.4606,8.4606,8.4606,8.4606,8.4606,8.4606,8.4606,8.4606,8.4606,8.4606,8.4606,8.4606,8.4606,8.4606,8.4505,8.437,8.3998,8.3592,8.3118,8.2509,8.2205,8.1596,8.0818,8.0209,8.0209,8.0209,8.0209,8.0209,8.0209,8.0209,8.0209,8.0209,8.0209,8.0209,8.0209,8.0209,8.0209,8.0209,8.0209,8.0209]},{"header":{"parameterUnit":"m.s-1","parameterCategory":1,"la1":31.0,"la2":29.5877,"lo1":-88.7671,"lo2":-86.6584,"dy":0.0162,"dx":0.0185,"nx":115,"ny":88,"refTime":"2024-12-19T18:00:00:Z","depth":0,"parameterNumber":3,"parameterNumberName":"V-component_of_WINDS"},"data":[0.0,0.0,0.0,0.0,0.0,0.0,0.0,0.0,0.0,0.0,0.0,0.0,0.0,0.0,0.0,0.0,0.0,0.0,0.0,0.0,0.0,0.0,0.0,0.0,0.0,0.0,0.0,0.0,0.0,0.0,0.0,0.0,0.0,0.0,0.0,0.0,0.0,0.0,0.0,0.0,0.0,0.0,0.0,0.0,0.0,0.0,0.0,0.0,0.0,0.0,0.0,0.0,0.0,0.0,0.0,0.0,0.0,0.0,0.0,0.0,0.0,0.0,0.0,0.0,0.0,0.0,0.0,0.0,0.0,0.0,0.0,0.0,0.0,0.0,0.0,0.0,0.0,0.0,0.0,0.0,0.0,0.0,0.0,0.0,0.0,0.0,0.0,0.0,0.0,0.0,0.0,0.0,0.0,0.0,0.0,0.0,0.0,0.0,0.0,0.0,0.0,0.0,0.0,0.0,0.0,0.0,0.0,0.0,0.0,0.0,0.0,0.0,0.0,0.0,0.0,0.0,0.0,0.0,0.0,0.0,0.0,0.0,0.0,0.0,0.0,0.0,0.0,0.0,0.0,0.0,0.0,0.0,0.0,0.0,0.0,0.0,0.0,0.0,0.0,0.0,0.0,0.0,0.0,0.0,0.0,0.0,0.0,0.0,0.0,0.0,0.0,0.0,0.0,0.0,0.0,0.0,0.0,0.0,0.0,0.0,0.0,0.0,0.0,0.0,0.0,0.0,0.0,0.0,0.0,0.0,0.0,0.0,0.0,0.0,0.0,0.0,0.0,0.0,0.0,0.0,0.0,0.0,0.0,0.0,0.0,0.0,0.0,0.0,0.0,0.0,0.0,0.0,0.0,0.0,0.0,0.0,0.0,0.0,0.0,0.0,0.0,0.0,0.0,0.0,0.0,0.0,0.0,0.0,0.0,0.0,0.0,0.0,0.0,0.0,0.0,0.0,0.0,0.0,0.0,0.0,0.0,0.0,0.0,0.0,0.0,0.0,0.0,0.0,0.0,0.0,0.0,0.0,0.0,0.0,0.0,0.0,0.0,0.0,0.0,0.0,0.0,0.0,0.0,0.0,0.0,0.0,0.0,0.0,0.0,0.0,0.0,0.0,0.0,0.0,0.0,0.0,0.0,0.0,0.0,0.0,0.0,0.0,0.0,0.0,0.0,0.0,0.0,0.0,0.0,0.0,0.0,0.0,0.0,0.0,0.0,0.0,0.0,0.0,0.0,0.0,0.0,0.0,0.0,0.0,0.0,0.0,0.0,0.0,0.0,0.0,0.0,0.0,0.0,0.0,0.0,0.0,0.0,0.0,0.0,0.0,0.0,0.0,0.0,0.0,0.0,0.0,0.0,0.0,0.0,0.0,0.0,0.0,0.0,0.0,0.0,0.0,0.0,0.0,0.0,0.0,0.0,0.0,0.0,0.0,0.0,0.0,0.0,0.0,0.0,0.0,0.0,0.0,0.0,0.0,0.0,0.0,0.0,0.0,0.0,0.0,0.0,0.0,0.0,0.0,0.0,0.0,0.0,0.0,0.0,0.0,0.0,0.0,0.0,0.0,0.0,0.0,0.0,0.0,0.0,0.0,0.0,0.0,0.0,0.0,0.0,0.0,0.0,0.0,0.0,0.0,0.0,0.0,0.0,0.0,0.0,0.0,0.0,0.0,0.0,0.0,0.0,0.0,0.0,0.0,0.0,0.0,0.0,0.0,0.0,0.0,0.0,0.0,0.0,0.0,0.0,0.0,0.0,0.0,0.0,0.0,0.0,0.0,0.0,0.0,0.0,0.0,0.0,0.0,0.0,0.0,0.0,0.0,0.0,0.0,0.0,0.0,0.0,0.0,0.0,0.0,0.0,0.0,0.0,0.0,0.0,0.0,0.0,0.0,0.0,0.0,0.0,0.0,0.0,0.0,0.0,0.0,0.0,0.0,0.0,0.0,0.0,0.0,0.0,0.0,0.0,0.0,0.0,0.0,0.0,0.0,0.0,0.0,0.0,0.0,0.0,0.0,0.0,0.0,0.0,0.0,0.0,0.0,0.0,0.0,0.0,0.0,0.0,0.0,0.0,0.0,0.0,0.0,0.0,0.0,0.0,0.0,0.0,0.0,0.0,0.0,0.0,0.0,0.0,0.0,0.0,0.0,0.0,0.0,0.0,0.0,0.0,0.0,0.0,0.0,0.0,0.0,0.0,0.0,0.0,0.0,0.0,0.0,0.0,0.0,0.0,0.0,0.0,0.0,0.0,0.0,0.0,0.0,0.0,0.0,0.0,0.0,0.0,0.0,0.0,0.0,0.0,0.0,0.0,0.0,0.0,0.0,0.0,0.0,0.0,0.0,0.0,0.0,0.0,0.0,0.0,0.0,0.0,0.0,0.0,0.0,0.0,0.0,0.0,0.0,0.0,0.0,0.0,0.0,0.0,0.0,0.0,0.0,0.0,0.0,0.0,0.0,0.0,0.0,0.0,0.0,0.0,0.0,0.0,0.0,0.0,0.0,0.0,0.0,0.0,0.0,0.0,0.0,0.0,0.0,0.0,0.0,0.0,0.0,0.0,0.0,0.0,0.0,0.0,0.0,0.0,0.0,0.0,0.0,0.0,0.0,0.0,0.0,0.0,0.0,0.0,0.0,0.0,0.0,0.0,0.0,0.0,0.0,0.0,0.0,0.0,0.0,0.0,0.0,0.0,0.0,0.0,0.0,0.0,0.0,0.0,0.0,0.0,0.0,0.0,0.0,0.0,0.0,0.0,0.0,0.0,0.0,0.0,0.0,0.0,0.0,0.0,0.0,0.0,0.0,0.0,0.0,0.0,0.0,0.0,0.0,0.0,0.0,0.0,0.0,0.0,0.0,0.0,0.0,0.0,0.0,0.0,0.0,0.0,0.0,0.0,0.0,0.0,0.0,0.0,0.0,0.0,0.0,0.0,0.0,0.0,0.0,0.0,0.0,0.0,0.0,0.0,0.0,0.0,0.0,0.0,0.0,0.0,0.0,0.0,0.0,0.0,0.0,0.0,0.0,0.0,0.0,0.0,0.0,0.0,0.0,0.0,0.0,0.0,0.0,0.0,0.0,0.0,0.0,0.0,0.0,0.0,0.0,0.0,0.0,0.0,0.0,0.0,0.0,0.0,0.0,0.0,0.0,0.0,0.0,0.0,0.0,0.0,0.0,0.0,0.0,0.0,0.0,0.0,0.0,0.0,0.0,0.0,0.0,0.0,0.0,0.0,0.0,0.0,0.0,0.0,0.0,0.0,0.0,0.0,0.0,0.0,0.0,0.0,0.0,0.0,0.0,0.0,0.0,0.0,0.0,0.0,0.0,0.0,0.0,0.0,0.0,0.0,0.0,0.0,0.0,0.0,0.0,0.0,0.0,0.0,0.0,0.0,0.0,0.0,0.0,0.0,0.0,0.0,0.0,0.0,0.0,0.0,0.0,0.0,0.0,0.0,0.0,0.0,0.0,0.0,0.0,0.0,0.0,0.0,0.0,0.0,0.0,0.0,0.0,0.0,0.0,0.0,0.0,0.0,0.0,0.0,0.0,0.0,0.0,0.0,0.0,0.0,0.0,0.0,0.0,0.0,0.0,0.0,0.0,0.0,0.0,0.0,0.0,0.0,0.0,0.0,0.0,0.0,0.0,0.0,0.0,0.0,0.0,0.0,0.0,0.0,0.0,0.0,0.0,0.0,0.0,0.0,0.0,0.0,0.0,0.0,0.0,0.0,0.0,0.0,0.0,0.0,0.0,0.0,0.0,0.0,0.0,0.0,0.0,0.0,0.0,0.0,0.0,0.0,0.0,0.0,0.0,0.0,0.0,0.0,0.0,0.0,0.0,0.0,0.0,0.0,0.0,0.0,0.0,0.0,0.0,0.0,0.0,0.0,0.0,0.0,0.0,0.0,0.0,0.0,0.0,0.0,0.0,0.0,0.0,0.0,0.0,0.0,0.0,0.0,0.0,0.0,0.0,0.0,0.0,0.0,0.0,0.0,0.0,0.0,0.0,0.0,0.0,0.0,0.0,0.0,0.0,0.0,0.0,0.0,0.0,0.0,0.0,0.0,0.0,0.0,0.0,0.0,0.0,0.0,0.0,0.0,0.0,0.0,0.0,0.0,0.0,0.0,0.0,0.0,0.0,0.0,0.0,0.0,0.0,0.0,0.0,0.0,0.0,0.0,0.0,0.0,0.0,0.0,0.0,0.0,0.0,0.0,0.0,0.0,0.0,0.0,0.0,0.0,0.0,0.0,0.0,0.0,0.0,0.0,0.0,-1.499,0.0,0.0,0.0,0.0,0.0,0.0,0.0,0.0,0.0,0.0,0.0,0.0,0.0,0.0,0.0,0.0,0.0,0.0,0.0,0.0,0.0,0.0,0.0,0.0,0.0,0.0,0.0,0.0,0.0,0.0,0.0,0.0,0.0,0.0,0.0,0.0,0.0,0.0,0.0,0.0,0.0,0.0,0.0,0.0,0.0,0.0,0.0,0.0,0.0,0.0,0.0,0.0,0.0,0.0,0.0,0.0,0.0,0.0,0.0,0.0,0.0,0.0,0.0,0.0,0.0,0.0,0.0,0.0,0.0,0.0,0.0,0.0,0.0,0.0,0.0,0.0,0.0,0.0,0.0,0.0,0.0,0.0,0.0,0.0,0.0,0.0,0.0,0.0,0.0,0.0,0.0,0.0,0.0,0.0,0.0,0.0,0.0,0.0,0.0,0.0,0.0,0.0,0.0,0.0,0.0,0.0,0.0,0.0,0.0,0.0,-1.5832,-1.5832,-1.5832,-1.5551,-1.499,0.0,0.0,0.0,0.0,0.0,0.0,0.0,0.0,0.0,0.0,0.0,0.0,0.0,0.0,0.0,0.0,0.0,0.0,0.0,0.0,0.0,0.0,0.0,0.0,0.0,0.0,0.0,0.0,0.0,0.0,0.0,0.0,0.0,0.0,0.0,0.0,0.0,0.0,0.0,0.0,0.0,0.0,0.0,0.0,0.0,0.0,0.0,0.0,0.0,0.0,0.0,0.0,0.0,0.0,0.0,0.0,0.0,0.0,0.0,0.0,0.0,0.0,0.0,0.0,0.0,0.0,0.0,0.0,0.0,0.0,0.0,0.0,0.0,0.0,0.0,0.0,0.0,0.0,0.0,0.0,0.0,0.0,0.0,0.0,0.0,0.0,0.0,0.0,0.0,0.0,0.0,0.0,0.0,0.0,0.0,0.0,0.0,0.0,0.0,0.0,0.0,0.0,0.0,0.0,0.0,0.0,0.0,0.0,0.0,0.0,0.0,0.0,-1.6126,-1.5858,-1.5284,0.0,0.0,0.0,0.0,0.0,0.0,0.0,0.0,0.0,0.0,0.0,0.0,0.0,0.0,0.0,0.0,0.0,0.0,0.0,0.0,0.0,0.0,0.0,0.0,0.0,0.0,0.0,0.0,0.0,0.0,0.0,0.0,0.0,0.0,0.0,0.0,0.0,0.0,0.0,0.0,0.0,0.0,0.0,0.0,0.0,0.0,0.0,0.0,0.0,0.0,0.0,0.0,0.0,0.0,0.0,0.0,0.0,0.0,0.0,0.0,0.0,0.0,0.0,0.0,0.0,0.0,0.0,0.0,0.0,0.0,0.0,0.0,0.0,0.0,0.0,0.0,0.0,0.0,0.0,0.0,0.0,0.0,0.0,0.0,0.0,0.0,0.0,0.0,0.0,0.0,0.0,0.0,0.0,0.0,0.0,0.0,0.0,0.0,0.0,0.0,0.0,0.0,0.0,0.0,0.0,0.0,0.0,0.0,0.0,0.0,-1.6219,-1.7096,-1.7021,0.0,-1.6303,0.0,0.0,0.0,0.0,0.0,0.0,0.0,0.0,0.0,0.0,0.0,0.0,0.0,0.0,0.0,0.0,0.0,0.0,0.0,0.0,0.0,0.0,0.0,0.0,0.0,0.0,0.0,0.0,0.0,0.0,0.0,0.0,0.0,0.0,0.0,0.0,0.0,0.0,0.0,0.0,0.0,0.0,0.0,0.0,0.0,0.0,0.0,0.0,0.0,0.0,0.0,0.0,0.0,0.0,0.0,0.0,0.0,0.0,0.0,0.0,0.0,0.0,0.0,0.0,0.0,0.0,0.0,0.0,0.0,0.0,0.0,0.0,0.0,0.0,0.0,0.0,0.0,0.0,0.0,0.0,0.0,0.0,0.0,0.0,0.0,0.0,0.0,0.0,0.0,0.0,0.0,0.0,0.0,0.0,0.0,0.0,0.0,0.0,0.0,0.0,0.0,0.0,0.0,0.0,0.0,0.0,0.0,0.0,0.0,0.0,0.0,-1.7141,-1.6807,-1.6513,0.0,0.0,0.0,0.0,0.0,0.0,0.0,0.0,0.0,0.0,0.0,0.0,0.0,0.0,0.0,0.0,0.0,0.0,0.0,0.0,0.0,0.0,0.0,0.0,0.0,0.0,0.0,0.0,0.0,0.0,0.0,0.0,0.0,0.0,0.0,0.0,0.0,0.0,0.0,0.0,0.0,0.0,0.0,0.0,0.0,0.0,0.0,0.0,0.0,0.0,0.0,0.0,0.0,0.0,0.0,0.0,0.0,0.0,0.0,0.0,0.0,0.0,0.0,0.0,0.0,0.0,0.0,0.0,0.0,0.0,0.0,0.0,0.0,0.0,0.0,0.0,0.0,0.0,0.0,0.0,0.0,0.0,0.0,0.0,0.0,0.0,0.0,0.0,0.0,0.0,0.0,0.0,0.0,0.0,0.0,0.0,0.0,0.0,0.0,0.0,0.0,0.0,0.0,0.0,0.0,0.0,0.0,0.0,0.0,0.0,-1.6954,0.0,-1.7368,-1.7061,-1.662,-1.6059,0.0,0.0,0.0,0.0,0.0,0.0,0.0,0.0,0.0,0.0,0.0,0.0,0.0,0.0,0.0,0.0,0.0,0.0,0.0,0.0,0.0,0.0,0.0,0.0,0.0,0.0,0.0,0.0,0.0,0.0,0.0,0.0,0.0,0.0,0.0,0.0,0.0,0.0,0.0,0.0,0.0,0.0,0.0,0.0,0.0,0.0,0.0,0.0,0.0,0.0,0.0,0.0,0.0,0.0,0.0,0.0,0.0,0.0,0.0,0.0,0.0,0.0,0.0,0.0,0.0,0.0,0.0,0.0,0.0,0.0,0.0,0.0,0.0,0.0,0.0,0.0,0.0,0.0,0.0,0.0,0.0,0.0,0.0,0.0,0.0,0.0,0.0,0.0,0.0,0.0,0.0,0.0,0.0,0.0,0.0,0.0,0.0,0.0,0.0,0.0,0.0,0.0,0.0,0.0,0.0,0.0,0.0,0.0,0.0,-1.7555,-1.7422,-1.7969,-1.8237,-1.7462,0.0,0.0,0.0,0.0,0.0,0.0,0.0,0.0,0.0,0.0,0.0,0.0,0.0,0.0,0.0,0.0,0.0,0.0,0.0,0.0,0.0,0.0,0.0,0.0,0.0,0.0,0.0,0.0,0.0,0.0,0.0,0.0,0.0,0.0,0.0,0.0,0.0,0.0,0.0,0.0,0.0,0.0,0.0,0.0,0.0,0.0,0.0,0.0,0.0,0.0,0.0,0.0,0.0,0.0,0.0,0.0,0.0,0.0,0.0,0.0,0.0,0.0,0.0,0.0,0.0,0.0,0.0,0.0,0.0,0.0,0.0,0.0,0.0,0.0,0.0,0.0,0.0,0.0,0.0,0.0,0.0,0.0,0.0,0.0,0.0,0.0,0.0,0.0,0.0,0.0,0.0,0.0,0.0,0.0,0.0,0.0,0.0,0.0,0.0,0.0,0.0,0.0,0.0,0.0,0.0,0.0,0.0,0.0,0.0,-1.6754,-1.7021,-1.7796,-1.9052,-1.7809,-1.6901,0.0,0.0,0.0,0.0,0.0,0.0,0.0,0.0,0.0,0.0,0.0,0.0,0.0,0.0,0.0,0.0,0.0,0.0,0.0,0.0,0.0,0.0,0.0,0.0,0.0,0.0,0.0,0.0,0.0,0.0,0.0,0.0,0.0,0.0,0.0,0.0,0.0,0.0,0.0,0.0,0.0,0.0,0.0,0.0,0.0,0.0,0.0,0.0,0.0,0.0,0.0,0.0,0.0,0.0,0.0,0.0,0.0,0.0,0.0,0.0,0.0,0.0,0.0,0.0,0.0,0.0,0.0,0.0,0.0,0.0,0.0,0.0,0.0,0.0,0.0,0.0,0.0,0.0,0.0,0.0,0.0,0.0,0.0,0.0,0.0,0.0,0.0,0.0,0.0,0.0,0.0,0.0,0.0,0.0,0.0,0.0,0.0,0.0,0.0,0.0,0.0,0.0,0.0,0.0,0.0,0.0,0.0,0.0,0.0,-1.654,0.0,-1.8263,0.0,-1.7542,-1.6446,0.0,0.0,0.0,0.0,0.0,0.0,0.0,0.0,0.0,0.0,0.0,0.0,0.0,0.0,0.0,0.0,0.0,0.0,0.0,0.0,0.0,0.0,0.0,0.0,0.0,0.0,0.0,0.0,0.0,0.0,0.0,0.0,0.0,0.0,0.0,0.0,0.0,0.0,0.0,0.0,0.0,0.0,0.0,0.0,0.0,0.0,0.0,0.0,0.0,0.0,0.0,0.0,0.0,0.0,0.0,0.0,0.0,0.0,0.0,0.0,0.0,0.0,0.0,0.0,0.0,0.0,0.0,0.0,0.0,0.0,0.0,0.0,0.0,0.0,0.0,0.0,0.0,0.0,0.0,0.0,0.0,0.0,0.0,0.0,0.0,0.0,0.0,0.0,0.0,0.0,0.0,0.0,0.0,0.0,0.0,0.0,0.0,0.0,0.0,0.0,0.0,0.0,0.0,0.0,0.0,0.0,0.0,0.0,0.0,-1.7929,-1.8824,-1.8744,-1.7675,-1.7555,-1.6206,0.0,0.0,0.0,0.0,0.0,0.0,0.0,0.0,0.0,0.0,0.0,0.0,0.0,0.0,0.0,0.0,0.0,0.0,0.0,0.0,0.0,0.0,0.0,0.0,0.0,0.0,0.0,0.0,0.0,0.0,0.0,0.0,0.0,0.0,0.0,0.0,0.0,0.0,0.0,0.0,0.0,0.0,0.0,0.0,0.0,0.0,0.0,0.0,0.0,0.0,0.0,0.0,0.0,0.0,0.0,0.0,0.0,0.0,0.0,0.0,0.0,0.0,0.0,0.0,0.0,0.0,0.0,0.0,0.0,0.0,0.0,0.0,0.0,0.0,0.0,0.0,0.0,0.0,0.0,0.0,0.0,0.0,0.0,0.0,0.0,0.0,0.0,0.0,0.0,0.0,0.0,0.0,0.0,0.0,0.0,0.0,0.0,0.0,0.0,0.0,0.0,0.0,0.0,0.0,0.0,0.0,0.0,0.0,0.0,-1.7128,-1.7983,-1.8557,-1.8744,-1.7221,-1.6233,0.0,0.0,0.0,0.0,0.0,0.0,0.0,0.0,0.0,0.0,0.0,0.0,0.0,0.0,0.0,0.0,0.0,0.0,0.0,0.0,0.0,0.0,0.0,0.0,0.0,0.0,0.0,0.0,0.0,0.0,0.0,0.0,0.0,0.0,0.0,0.0,0.0,0.0,0.0,0.0,0.0,0.0,0.0,0.0,0.0,0.0,0.0,0.0,0.0,0.0,0.0,0.0,0.0,0.0,0.0,0.0,0.0,0.0,0.0,0.0,0.0,0.0,0.0,0.0,0.0,0.0,0.0,0.0,0.0,0.0,0.0,0.0,0.0,0.0,0.0,0.0,0.0,0.0,0.0,0.0,0.0,0.0,0.0,0.0,0.0,0.0,0.0,0.0,0.0,0.0,0.0,0.0,0.0,0.0,0.0,0.0,0.0,0.0,0.0,0.0,0.0,0.0,0.0,0.0,0.0,0.0,0.0,0.0,0.0,-1.8716,-1.8931,-1.9118,-1.9359,-1.7488,-1.6433,-1.6299,0.0,0.0,0.0,0.0,0.0,0.0,0.0,0.0,0.0,0.0,0.0,0.0,0.0,0.0,0.0,0.0,0.0,0.0,0.0,0.0,0.0,0.0,0.0,0.0,0.0,0.0,0.0,0.0,0.0,0.0,0.0,0.0,0.0,0.0,0.0,0.0,0.0,0.0,0.0,0.0,0.0,0.0,0.0,0.0,0.0,0.0,0.0,0.0,0.0,0.0,0.0,0.0,0.0,0.0,0.0,0.0,0.0,0.0,0.0,0.0,0.0,0.0,0.0,0.0,0.0,0.0,0.0,0.0,0.0,0.0,0.0,0.0,0.0,0.0,0.0,0.0,0.0,0.0,0.0,0.0,0.0,0.0,0.0,0.0,0.0,0.0,0.0,0.0,0.0,0.0,0.0,0.0,0.0,0.0,0.0,0.0,0.0,0.0,0.0,0.0,0.0,0.0,0.0,0.0,0.0,0.0,0.0,0.0,-2.2109,-2.1296,-2.0374,-1.9533,-1.8263,-1.682,0.0,0.0,0.0,0.0,0.0,0.0,0.0,0.0,0.0,0.0,0.0,0.0,0.0,0.0,0.0,0.0,0.0,0.0,0.0,0.0,0.0,0.0,0.0,0.0,0.0,0.0,0.0,0.0,0.0,0.0,0.0,0.0,0.0,0.0,0.0,0.0,0.0,0.0,0.0,0.0,0.0,0.0,0.0,0.0,0.0,0.0,0.0,0.0,0.0,0.0,0.0,0.0,0.0,0.0,0.0,0.0,0.0,0.0,0.0,0.0,0.0,0.0,0.0,0.0,0.0,0.0,0.0,0.0,0.0,0.0,0.0,0.0,0.0,0.0,0.0,0.0,0.0,0.0,0.0,0.0,0.0,0.0,0.0,0.0,0.0,0.0,0.0,0.0,0.0,0.0,0.0,0.0,0.0,0.0,0.0,0.0,0.0,0.0,0.0,0.0,0.0,0.0,0.0,0.0,0.0,0.0,0.0,0.0,0.0,-2.3857,-2.2907,-2.1871,-2.0975,-1.8985,-1.7582,0.0,0.0,0.0,0.0,0.0,0.0,0.0,0.0,0.0,0.0,0.0,0.0,0.0,0.0,0.0,0.0,0.0,0.0,0.0,0.0,0.0,0.0,0.0,0.0,0.0,0.0,0.0,0.0,0.0,0.0,0.0,0.0,0.0,0.0,0.0,0.0,0.0,0.0,0.0,0.0,0.0,0.0,0.0,0.0,0.0,0.0,0.0,0.0,0.0,0.0,0.0,0.0,0.0,0.0,0.0,0.0,0.0,0.0,0.0,0.0,0.0,0.0,0.0,0.0,0.0,0.0,0.0,0.0,0.0,0.0,0.0,0.0,0.0,0.0,0.0,0.0,0.0,0.0,0.0,0.0,0.0,0.0,0.0,0.0,0.0,0.0,0.0,0.0,0.0,0.0,0.0,0.0,0.0,0.0,0.0,0.0,0.0,0.0,0.0,0.0,0.0,0.0,0.0,0.0,0.0,0.0,0.0,0.0,-2.4493,-2.573,-2.5616,-2.4524,-2.2445,-2.0494,-1.8891,0.0,0.0,0.0,0.0,0.0,0.0,0.0,0.0,0.0,0.0,0.0,0.0,0.0,0.0,0.0,0.0,0.0,0.0,0.0,0.0,0.0,0.0,0.0,0.0,0.0,0.0,0.0,0.0,0.0,0.0,0.0,0.0,0.0,0.0,0.0,0.0,0.0,0.0,0.0,0.0,0.0,0.0,0.0,0.0,0.0,0.0,0.0,0.0,0.0,0.0,0.0,0.0,0.0,0.0,0.0,0.0,0.0,0.0,0.0,0.0,0.0,0.0,0.0,0.0,0.0,0.0,0.0,0.0,0.0,0.0,0.0,0.0,0.0,0.0,0.0,0.0,0.0,0.0,0.0,0.0,0.0,0.0,0.0,0.0,0.0,0.0,0.0,0.0,0.0,0.0,0.0,0.0,0.0,0.0,0.0,0.0,0.0,0.0,0.0,0.0,0.0,0.0,0.0,0.0,0.0,0.0,0.0,0.0,-2.7621,-2.7085,-2.8354,-2.7247,-2.3493,-2.2164,-2.0307,0.0,0.0,0.0,0.0,0.0,0.0,0.0,0.0,0.0,0.0,0.0,0.0,0.0,0.0,0.0,0.0,0.0,0.0,0.0,0.0,0.0,0.0,0.0,0.0,0.0,0.0,0.0,0.0,0.0,0.0,0.0,0.0,0.0,0.0,0.0,0.0,0.0,0.0,0.0,0.0,0.0,0.0,0.0,0.0,0.0,0.0,0.0,0.0,0.0,0.0,0.0,0.0,0.0,0.0,0.0,0.0,0.0,0.0,0.0,0.0,0.0,0.0,0.0,0.0,0.0,0.0,0.0,0.0,0.0,0.0,0.0,0.0,0.0,0.0,0.0,0.0,0.0,0.0,0.0,0.0,0.0,0.0,0.0,0.0,0.0,0.0,0.0,0.0,0.0,0.0,0.0,0.0,0.0,0.0,0.0,0.0,0.0,0.0,0.0,0.0,0.0,0.0,0.0,0.0,0.0,0.0,0.0,0.0,-2.8026,-2.7101,-2.7616,-2.6599,-2.3829,-2.2071,-2.0281,0.0,0.0,0.0,0.0,0.0,0.0,0.0,0.0,0.0,0.0,0.0,0.0,0.0,0.0,0.0,0.0,0.0,0.0,0.0,0.0,0.0,0.0,0.0,0.0,0.0,0.0,0.0,0.0,0.0,0.0,0.0,0.0,0.0,0.0,0.0,0.0,0.0,0.0,0.0,0.0,0.0,0.0,0.0,0.0,0.0,0.0,0.0,0.0,-2.0819,0.0,0.0,0.0,0.0,0.0,0.0,0.0,0.0,0.0,0.0,0.0,0.0,0.0,0.0,0.0,0.0,0.0,0.0,0.0,0.0,0.0,0.0,0.0,0.0,0.0,0.0,0.0,0.0,0.0,0.0,0.0,0.0,0.0,0.0,0.0,0.0,0.0,0.0,0.0,0.0,0.0,0.0,0.0,0.0,0.0,0.0,0.0,0.0,0.0,0.0,0.0,0.0,0.0,0.0,0.0,0.0,0.0,0.0,0.0,-2.9601,-2.8112,-2.8551,-2.7251,-2.4085,-2.2645,-2.0975,0.0,0.0,0.0,0.0,0.0,0.0,0.0,0.0,0.0,0.0,0.0,0.0,0.0,0.0,0.0,0.0,0.0,0.0,0.0,0.0,0.0,0.0,0.0,0.0,0.0,0.0,0.0,0.0,0.0,0.0,0.0,0.0,0.0,0.0,0.0,0.0,0.0,0.0,0.0,0.0,0.0,0.0,0.0,0.0,0.0,0.0,0.0,0.0,0.0,0.0,0.0,0.0,0.0,0.0,0.0,0.0,0.0,0.0,0.0,0.0,0.0,0.0,0.0,0.0,0.0,0.0,0.0,0.0,0.0,0.0,0.0,0.0,0.0,0.0,0.0,0.0,0.0,0.0,0.0,0.0,0.0,0.0,0.0,0.0,0.0,0.0,0.0,0.0,0.0,0.0,0.0,0.0,0.0,0.0,0.0,0.0,0.0,0.0,0.0,0.0,0.0,0.0,0.0,0.0,0.0,0.0,0.0,-3.0742,-3.1135,-2.927,-2.9823,-2.8315,-2.434,-2.3327,-2.179,-1.9533,0.0,0.0,0.0,0.0,0.0,0.0,0.0,0.0,0.0,0.0,0.0,0.0,0.0,0.0,0.0,0.0,0.0,0.0,0.0,0.0,0.0,0.0,0.0,0.0,0.0,0.0,0.0,0.0,0.0,0.0,0.0,0.0,0.0,0.0,0.0,0.0,0.0,0.0,-2.0449,-2.2109,0.0,0.0,0.0,0.0,0.0,0.0,0.0,0.0,-2.2168,0.0,0.0,0.0,0.0,0.0,0.0,0.0,0.0,0.0,0.0,0.0,0.0,0.0,0.0,0.0,0.0,0.0,0.0,0.0,0.0,0.0,0.0,0.0,0.0,0.0,0.0,0.0,0.0,0.0,0.0,0.0,0.0,0.0,0.0,0.0,0.0,0.0,0.0,0.0,0.0,0.0,0.0,0.0,0.0,0.0,0.0,0.0,0.0,0.0,0.0,0.0,0.0,0.0,0.0,0.0,0.0,-3.0293,-3.1191,-3.0988,-2.9633,-3.0095,-2.8315,-2.434,-2.3327,-2.1884,-1.9813,0.0,0.0,0.0,0.0,0.0,0.0,0.0,0.0,0.0,0.0,0.0,0.0,0.0,0.0,0.0,0.0,0.0,0.0,0.0,0.0,0.0,0.0,0.0,0.0,0.0,0.0,0.0,0.0,0.0,0.0,0.0,0.0,0.0,0.0,0.0,0.0,0.0,0.0,0.0,-2.5176,-2.5918,0.0,0.0,0.0,0.0,0.0,0.0,0.0,0.0,-2.2715,0.0,0.0,0.0,0.0,0.0,0.0,0.0,0.0,0.0,0.0,0.0,0.0,0.0,0.0,0.0,0.0,0.0,0.0,0.0,0.0,0.0,0.0,0.0,0.0,0.0,0.0,0.0,0.0,0.0,0.0,0.0,0.0,0.0,0.0,0.0,0.0,0.0,0.0,0.0,0.0,0.0,0.0,0.0,0.0,0.0,0.0,0.0,0.0,0.0,0.0,0.0,0.0,0.0,0.0,0.0,-3.0019,-3.1719,-3.1672,-3.012,-3.0227,-2.8299,-2.4327,-2.2739,-2.1269,0.0,0.0,0.0,0.0,0.0,0.0,0.0,0.0,0.0,0.0,0.0,0.0,0.0,0.0,0.0,0.0,0.0,0.0,0.0,0.0,0.0,0.0,0.0,0.0,0.0,0.0,0.0,0.0,0.0,0.0,0.0,0.0,0.0,0.0,0.0,0.0,0.0,0.0,0.0,0.0,-2.5488,-2.6094,-2.6387,0.0,0.0,0.0,0.0,0.0,0.0,-2.3262,-2.3144,0.0,0.0,0.0,0.0,0.0,0.0,0.0,0.0,0.0,0.0,0.0,0.0,0.0,0.0,0.0,0.0,0.0,0.0,0.0,0.0,0.0,0.0,0.0,0.0,0.0,0.0,0.0,0.0,0.0,0.0,0.0,0.0,0.0,0.0,0.0,0.0,0.0,0.0,0.0,0.0,0.0,0.0,0.0,0.0,0.0,0.0,0.0,0.0,0.0,0.0,0.0,0.0,0.0,0.0,0.0,-2.9512,-3.2031,-3.2544,-3.0932,-3.0518,-2.8632,-2.4795,-2.2646,-2.0882,0.0,0.0,0.0,0.0,0.0,0.0,0.0,0.0,0.0,0.0,0.0,0.0,0.0,0.0,0.0,0.0,0.0,0.0,0.0,0.0,0.0,0.0,0.0,0.0,0.0,0.0,0.0,0.0,0.0,0.0,0.0,0.0,0.0,0.0,0.0,0.0,0.0,0.0,0.0,0.0,0.0,-2.6348,-2.7363,-2.6055,0.0,0.0,0.0,0.0,-2.418,-2.4473,0.0,0.0,0.0,0.0,0.0,0.0,0.0,0.0,0.0,0.0,0.0,0.0,0.0,0.0,0.0,0.0,0.0,0.0,0.0,0.0,0.0,0.0,0.0,0.0,0.0,0.0,0.0,0.0,0.0,0.0,0.0,0.0,0.0,0.0,0.0,0.0,0.0,0.0,0.0,0.0,0.0,0.0,0.0,0.0,0.0,0.0,0.0,0.0,0.0,0.0,0.0,0.0,0.0,0.0,0.0,0.0,-2.9453,-3.1758,-3.2819,-3.2784,-3.1623,-2.9472,-2.6438,-2.3997,-2.151,0.0,0.0,0.0,0.0,0.0,0.0,0.0,0.0,0.0,0.0,0.0,0.0,0.0,0.0,0.0,0.0,0.0,0.0,0.0,0.0,0.0,0.0,0.0,0.0,0.0,0.0,0.0,0.0,0.0,0.0,0.0,0.0,0.0,0.0,0.0,0.0,0.0,0.0,0.0,0.0,0.0,-2.8574,-2.7266,-2.6875,-2.6523,0.0,0.0,-2.6035,-2.7461,-2.7734,0.0,0.0,0.0,0.0,0.0,0.0,0.0,0.0,0.0,0.0,0.0,0.0,0.0,0.0,0.0,0.0,0.0,0.0,0.0,0.0,0.0,0.0,0.0,0.0,0.0,0.0,0.0,0.0,0.0,0.0,0.0,0.0,0.0,0.0,0.0,0.0,0.0,0.0,0.0,0.0,0.0,0.0,0.0,0.0,0.0,0.0,0.0,0.0,0.0,0.0,0.0,0.0,0.0,0.0,0.0,-2.5996,-2.9512,-3.2402,-3.3614,-3.3116,-3.1816,-2.9631,-2.6643,-2.3574,-2.0935,0.0,0.0,0.0,0.0,0.0,0.0,0.0,0.0,0.0,0.0,0.0,0.0,0.0,0.0,0.0,0.0,0.0,0.0,0.0,0.0,0.0,0.0,0.0,0.0,0.0,0.0,0.0,0.0,0.0,0.0,0.0,0.0,0.0,0.0,0.0,0.0,0.0,0.0,0.0,0.0,0.0,0.0,-2.875,-2.8418,0.0,0.0,0.0,-2.8086,-2.8574,0.0,0.0,0.0,0.0,0.0,0.0,0.0,0.0,0.0,0.0,0.0,0.0,0.0,0.0,0.0,0.0,0.0,0.0,0.0,0.0,0.0,0.0,0.0,0.0,0.0,0.0,0.0,0.0,0.0,0.0,0.0,0.0,0.0,0.0,0.0,0.0,0.0,0.0,0.0,0.0,0.0,0.0,0.0,0.0,0.0,0.0,0.0,0.0,0.0,0.0,0.0,0.0,0.0,0.0,0.0,0.0,0.0,-2.957,-3.3066,-3.4547,-3.3863,-3.1958,-2.9757,-2.7324,-2.353,0.0,0.0,0.0,0.0,0.0,0.0,0.0,0.0,0.0,0.0,0.0,0.0,0.0,0.0,0.0,0.0,0.0,0.0,0.0,0.0,0.0,0.0,0.0,0.0,0.0,0.0,0.0,0.0,0.0,0.0,0.0,0.0,0.0,0.0,0.0,0.0,0.0,0.0,0.0,0.0,0.0,0.0,-2.8144,-2.9941,-2.9941,-2.9805,0.0,0.0,-3.0137,-2.9922,-3.0078,-2.9258,0.0,0.0,0.0,0.0,0.0,0.0,0.0,0.0,0.0,0.0,0.0,0.0,0.0,0.0,0.0,0.0,0.0,0.0,0.0,0.0,0.0,0.0,0.0,0.0,0.0,0.0,0.0,0.0,0.0,0.0,0.0,0.0,0.0,0.0,0.0,0.0,0.0,0.0,0.0,0.0,0.0,0.0,0.0,0.0,0.0,0.0,0.0,0.0,0.0,0.0,0.0,0.0,0.0,0.0,0.0,-2.959,-3.3379,-3.5412,-3.5724,-3.2685,-3.0484,-2.9116,-2.468,-2.1122,0.0,0.0,0.0,0.0,0.0,0.0,0.0,0.0,0.0,0.0,0.0,0.0,0.0,0.0,0.0,0.0,0.0,0.0,0.0,0.0,0.0,0.0,0.0,0.0,0.0,0.0,0.0,0.0,0.0,0.0,0.0,0.0,0.0,0.0,0.0,0.0,0.0,0.0,0.0,0.0,0.0,-2.9121,-3.0078,-3.1191,-3.2226,0.0,0.0,-3.2109,-3.248,-3.3184,-3.2187,-2.7676,0.0,0.0,0.0,0.0,0.0,0.0,0.0,0.0,0.0,0.0,0.0,0.0,0.0,0.0,0.0,0.0,0.0,0.0,0.0,0.0,0.0,0.0,0.0,0.0,0.0,0.0,0.0,0.0,0.0,0.0,0.0,0.0,0.0,0.0,0.0,0.0,0.0,0.0,0.0,0.0,0.0,0.0,0.0,0.0,0.0,0.0,0.0,0.0,0.0,0.0,0.0,0.0,0.0,-2.6992,-2.957,-3.3418,-3.5605,-3.5879,-3.383,-3.1614,-2.939,-2.6132,-2.2695,0.0,0.0,0.0,0.0,0.0,0.0,0.0,0.0,0.0,0.0,0.0,0.0,0.0,0.0,0.0,0.0,0.0,0.0,0.0,0.0,0.0,0.0,0.0,0.0,0.0,0.0,0.0,0.0,-1.8828,-1.8906,-1.8457,0.0,0.0,0.0,0.0,0.0,0.0,0.0,0.0,0.0,0.0,-3.0215,-3.1601,-3.2676,0.0,0.0,-3.3379,-3.3398,-3.3555,-3.2969,-3.1523,-2.8652,-2.6953,0.0,0.0,0.0,0.0,0.0,0.0,0.0,0.0,0.0,0.0,0.0,0.0,0.0,0.0,0.0,0.0,0.0,0.0,0.0,0.0,0.0,0.0,0.0,0.0,0.0,0.0,0.0,0.0,0.0,0.0,0.0,0.0,0.0,0.0,0.0,0.0,0.0,0.0,0.0,0.0,0.0,0.0,0.0,0.0,0.0,0.0,0.0,0.0,0.0,0.0,0.0,0.0,-2.707,-2.9746,-3.334,-3.5469,-3.6016,-3.4436,-3.2542,-3.0378,-2.7383,-2.4065,0.0,0.0,0.0,0.0,0.0,0.0,0.0,0.0,0.0,0.0,0.0,0.0,0.0,0.0,0.0,0.0,0.0,0.0,0.0,0.0,0.0,0.0,0.0,0.0,0.0,0.0,0.0,0.0,-2.0078,-1.9629,-1.8154,0.0,0.0,0.0,0.0,0.0,0.0,0.0,0.0,0.0,0.0,-3.1367,-3.2949,-3.3809,-3.416,-3.3848,-3.3848,-3.3887,-3.3887,-3.2969,-3.1562,-2.9453,0.0,0.0,0.0,0.0,0.0,0.0,0.0,0.0,0.0,0.0,0.0,0.0,0.0,0.0,0.0,0.0,0.0,0.0,0.0,0.0,0.0,0.0,0.0,0.0,0.0,0.0,0.0,0.0,0.0,0.0,-1.6017,0.0,0.0,0.0,0.0,0.0,0.0,0.0,0.0,0.0,0.0,0.0,0.0,0.0,0.0,0.0,0.0,0.0,0.0,0.0,0.0,0.0,0.0,0.0,-3.0156,-3.3184,-3.5156,-3.5996,-3.4176,-3.299,-3.2539,-2.8186,-2.497,-2.3263,0.0,0.0,0.0,0.0,0.0,0.0,0.0,0.0,0.0,0.0,0.0,0.0,0.0,0.0,0.0,0.0,0.0,0.0,0.0,0.0,0.0,0.0,0.0,0.0,0.0,0.0,-1.9824,-1.957,-1.8691,0.0,0.0,0.0,0.0,0.0,0.0,0.0,0.0,0.0,0.0,-3.0488,-3.2598,-3.3867,-3.4414,-3.4707,-3.4668,-3.4004,-3.3476,-3.3496,-3.373,-3.3008,0.0,0.0,0.0,0.0,0.0,0.0,0.0,0.0,0.0,0.0,0.0,0.0,0.0,0.0,0.0,0.0,0.0,0.0,0.0,0.0,0.0,0.0,0.0,0.0,0.0,0.0,0.0,-1.471,-1.4643,0.0,0.0,0.0,0.0,0.0,0.0,0.0,0.0,0.0,0.0,0.0,-2.6387,-2.6934,0.0,0.0,0.0,0.0,0.0,0.0,0.0,0.0,0.0,0.0,0.0,0.0,-2.75,-3.0195,-3.3164,-3.5117,-3.5976,-3.5451,-3.4246,-3.2711,-2.9632,-2.5685,-2.0906,0.0,0.0,0.0,0.0,0.0,0.0,0.0,0.0,0.0,0.0,0.0,0.0,0.0,0.0,0.0,0.0,0.0,0.0,0.0,0.0,0.0,0.0,0.0,0.0,0.0,-1.9609,0.0,0.0,0.0,0.0,0.0,0.0,0.0,0.0,0.0,0.0,0.0,-2.6953,-2.9668,-3.1992,-3.3691,-3.4394,-3.5371,-3.5801,0.0,0.0,0.0,0.0,0.0,0.0,0.0,0.0,0.0,0.0,0.0,0.0,0.0,0.0,-3.0039,-2.4766,-2.3555,-2.3398,-2.3535,0.0,0.0,0.0,0.0,0.0,0.0,0.0,0.0,0.0,0.0,0.0,0.0,0.0,0.0,-1.5805,0.0,-1.5798,0.0,0.0,0.0,0.0,0.0,0.0,0.0,0.0,-2.7617,-2.8848,-2.9258,-2.9941,-2.959,0.0,-2.7637,-2.5254,0.0,0.0,0.0,0.0,0.0,0.0,0.0,0.0,-2.8184,-3.0859,-3.3555,-3.5293,-3.5976,-3.6035,-3.5316,-3.3904,-3.0767,-2.6679,-2.1258,-1.9135,-1.7528,0.0,0.0,0.0,0.0,0.0,0.0,0.0,0.0,0.0,0.0,0.0,0.0,0.0,0.0,0.0,0.0,0.0,0.0,0.0,0.0,0.0,0.0,0.0,-2.0254,0.0,0.0,0.0,0.0,0.0,0.0,0.0,0.0,0.0,-2.4902,-2.7051,-2.9473,-3.1894,-3.3555,-3.4687,-3.5098,0.0,0.0,0.0,0.0,0.0,0.0,0.0,-3.3652,-3.4043,-3.3203,-3.2363,-3.2051,-3.3418,-3.418,-3.3008,0.0,0.0,-2.834,-2.7344,-2.7324,-2.7324,-2.8242,-2.9062,-2.9219,-3.0137,-3.0937,0.0,0.0,0.0,0.0,0.0,0.0,0.0,0.0,-1.7048,-1.7048,0.0,-1.638,0.0,0.0,0.0,0.0,0.0,0.0,0.0,0.0,-3.1328,-3.2578,-3.2246,-3.2617,-3.2187,-3.1055,-3.1309,-2.9746,-2.6445,-2.3164,0.0,0.0,0.0,0.0,0.0,0.0,-2.9199,-3.209,-3.4277,-3.5605,-3.6016,-3.6035,-3.6016,-3.5685,-3.1696,-2.7878,-2.4568,-2.2103,-1.9757,-1.7486,-1.6112,0.0,0.0,0.0,0.0,0.0,0.0,0.0,0.0,0.0,0.0,0.0,0.0,0.0,0.0,0.0,0.0,0.0,0.0,0.0,0.0,-2.0742,0.0,0.0,0.0,0.0,0.0,0.0,0.0,0.0,0.0,0.0,-2.7441,-2.9785,-3.2363,-3.4414,0.0,0.0,0.0,0.0,-3.5957,-3.5566,-3.584,-3.5976,-3.5586,-3.6465,-3.6816,-3.5723,0.0,0.0,-3.4687,-3.5664,-3.5996,-3.3516,-3.457,-3.5254,-3.4297,-3.3223,-3.2715,-3.2773,-3.2793,-3.3047,-3.3476,-3.4082,-3.4726,-2.0855,0.0,0.0,0.0,0.0,-1.9345,-2.0067,-2.1176,-2.0468,-1.9853,-1.9319,-1.8865,0.0,0.0,0.0,0.0,0.0,0.0,-2.9004,-3.0215,-3.1973,-3.3047,-3.3535,-3.3965,-3.3809,-3.3144,-3.2656,-3.1601,-3.0,-2.7812,-2.5039,-2.1855,0.0,0.0,0.0,0.0,-3.0371,-3.2187,-3.4297,-3.5605,-3.6016,-3.6035,-3.5297,-3.3731,-3.2384,-2.9817,-2.5874,-2.4553,-2.2706,-1.9838,-1.7929,0.0,0.0,0.0,0.0,0.0,0.0,0.0,0.0,0.0,0.0,0.0,0.0,0.0,0.0,0.0,0.0,0.0,0.0,0.0,-2.0703,-2.1367,-2.1602,0.0,0.0,0.0,0.0,0.0,0.0,0.0,0.0,0.0,-3.1934,-3.2793,-3.3809,0.0,0.0,-3.623,-3.6035,-3.6797,-3.7324,-3.7226,0.0,0.0,0.0,-3.7207,-3.7129,-3.7969,-3.8789,-3.9062,-3.8359,-3.8633,-3.8633,-3.75,-3.8027,-3.834,-3.7402,-3.584,-3.4961,-3.541,-3.5801,-3.6133,-3.6562,-3.709,-3.7461,-2.3247,-2.159,-2.1189,-2.1189,-2.1456,-2.1456,-2.2124,-2.318,-2.2539,-2.2084,-2.1777,-2.1243,-2.0254,-1.9058,-2.0411,0.0,0.0,0.0,-3.0898,-3.2187,-3.3125,-3.3926,-3.4609,-3.5019,-3.5,-3.457,-3.3887,-3.3105,-3.2266,-3.1055,-2.8809,-2.5644,0.0,0.0,-2.6523,-2.9297,-3.1445,-3.293,-3.4726,-3.5762,-3.6016,-3.6035,-3.5316,-3.4097,-3.3221,-3.1528,-2.8865,-2.6827,-2.4804,-2.2652,-2.0192,-1.7903,0.0,0.0,0.0,0.0,0.0,0.0,0.0,0.0,0.0,0.0,0.0,-1.6914,0.0,0.0,0.0,0.0,-1.957,-2.1387,-2.3125,-2.3516,0.0,0.0,0.0,0.0,0.0,0.0,0.0,-2.9941,-3.2031,-3.375,-3.4941,-3.5547,-3.5996,-3.6348,-3.6836,-3.7129,-3.7051,0.0,-3.8437,-3.8437,-3.8945,-3.9297,-3.9121,-3.875,-3.8809,-3.9805,-4.0195,-4.0312,-4.0156,-4.0156,-3.998,-3.9629,-3.9707,-3.9785,-3.9414,-3.8281,-3.7422,-3.7637,-3.8027,-3.8398,-3.8672,-3.8926,-3.9101,-2.5224,-2.509,-2.3714,-2.326,-2.346,-2.3514,-2.3674,-2.3888,-2.3634,-2.3794,-2.4168,-2.3367,-2.2819,-2.2553,-2.4594,0.0,0.0,-3.068,-3.2922,-3.418,-3.4609,-3.5039,-3.5449,-3.582,-3.582,-3.543,-3.498,-3.4355,-3.3574,-3.3066,-3.2051,-3.0488,-2.8476,-2.8223,-2.9668,-3.1035,-3.2519,-3.4101,-3.5371,-3.6016,-3.6035,-3.6035,-3.6016,-3.5957,-3.4258,-3.3211,-3.2521,-2.8785,-2.6254,-2.5317,-2.23,-1.9653,-1.7553,0.0,0.0,0.0,0.0,0.0,0.0,0.0,0.0,0.0,0.0,0.0,0.0,0.0,0.0,0.0,-2.2754,0.0,-2.6328,-2.6543,0.0,0.0,0.0,-2.6973,-2.7519,-2.9726,-3.1543,-3.2422,0.0,0.0,-3.6816,0.0,-3.8496,-3.8125,-3.8086,-3.8203,-3.8574,-3.9004,-3.9297,-3.9297,-4.0019,-4.041,-4.0078,-4.0508,-4.0918,-4.1016,-4.1172,-4.0996,-4.0664,-4.0566,-4.041,-4.0098,-4.0019,-4.0117,-4.0508,-4.043,-4.0312,-3.9473,-3.9668,-3.998,-3.998,-3.998,-4.0,-2.64,-2.636,-2.5785,-2.5211,-2.4703,-2.5144,-2.5237,-2.5117,-2.5264,-2.5037,-2.4516,-2.4315,-2.3808,-2.3238,-2.5305,-2.6949,-2.8477,-3.1149,-3.3406,-3.5098,-3.5508,-3.5762,-3.5879,-3.5976,-3.5957,-3.584,-3.543,-3.5137,-3.4883,-3.3809,-3.3242,-3.3105,-3.1992,-3.1133,-3.0664,-3.25,-3.3809,-3.4551,-3.5527,-3.6035,-3.6035,-3.6035,-3.5859,-3.5547,-3.5124,-3.3932,-3.2142,-2.9429,-2.7121,-2.5156,-2.23,-2.0107,-1.8891,-1.7498,0.0,0.0,0.0,0.0,0.0,0.0,0.0,0.0,0.0,-2.1855,-1.7559,0.0,-2.3008,0.0,-2.4805,-2.6543,-2.7285,-2.7949,0.0,0.0,-2.9824,-3.0508,-3.2207,-3.3223,-3.4258,-3.5449,-3.6699,-3.7754,-3.8496,-3.8867,-3.916,-3.9375,-3.9434,-3.9336,-3.9121,-3.9726,-4.0215,-4.0254,-4.0644,-4.0976,-4.0879,-4.1016,-4.1172,-4.1172,-4.1172,-4.1133,-4.1035,-4.1016,-4.0976,-4.0898,-4.0879,-4.0918,-4.0996,-4.1016,-4.0957,-4.0762,-4.0801,-4.0879,-4.0859,-4.0859,-4.0859,-2.7014,-2.7014,-2.6841,-2.6493,-2.6066,-2.6119,-2.6052,-2.5919,-2.6079,-2.5798,-2.5211,-2.509,-2.4756,-2.4461,-2.6446,-2.8253,-3.007,-3.2298,-3.4362,-3.625,-3.6484,-3.6484,-3.6309,-3.6309,-3.6211,-3.6016,-3.5781,-3.5566,-3.5351,-3.4648,-3.4316,-3.4336,-3.3867,-3.3398,-3.2949,-3.3867,-3.457,-3.5,-3.5684,-3.6035,-3.6016,-3.584,-3.5527,-3.5098,-3.4902,-3.4046,-3.2544,-3.0325,-2.814,-2.61,-2.3354,-2.1188,-1.9703,-1.8358,-1.733,0.0,0.0,0.0,0.0,0.0,0.0,0.0,0.0,0.0,0.0,0.0,-2.5,0.0,-2.7344,0.0,-2.9863,-3.0879,-3.1777,-3.2519,-3.3105,-3.3945,-3.5117,-3.5937,-3.6777,-3.7695,-3.8379,-3.8984,-3.9453,-3.9668,-3.9863,-4.0156,-4.0351,-4.0312,-3.9941,-4.0391,-4.082,-4.082,-4.1016,-4.1172,-4.1172,-4.1172,-4.1172,-4.1172,-4.1172,-4.1172,-4.1172,-4.1172,-4.1172,-4.1172,-4.1172,-4.1172,-4.1172,-4.1172,-4.1172,-4.1172,-4.1172,-4.1172,-4.1172,-4.1172,-4.1172,-2.7321,-2.7321,-2.7281,-2.7268,-2.7228,-2.672,-2.648,-2.644,-2.648,-2.6319,-2.5999,-2.5745,-2.5611,-2.5725,-2.7359,-2.9091,-3.1105,-3.3006,-3.4935,-3.6842,-3.7144,-3.7109,-3.6758,-3.6699,-3.6504,-3.6191,-3.6074,-3.5859,-3.5547,-3.5449,-3.5215,-3.4883,-3.4805,-3.5019,-3.5449,-3.5078,-3.5059,-3.5469,-3.584,-3.6035,-3.6016,-3.5605,-3.5137,-3.4629,-3.4219,-3.373,-3.3203,-3.1062,-2.9186,-2.7529,-2.4953,-2.2552,-2.0534,-1.9273,-1.8143,0.0,-1.6953,0.0,0.0,0.0,0.0,0.0,0.0,0.0,0.0,-2.6738,-2.75,-2.8184,-3.0137,-3.1855,-3.3027,-3.4277,-3.5039,-3.5078,-3.6211,-3.6992,-3.7031,-3.8086,-3.8965,-3.9336,-3.9726,-4.0,-4.0078,-4.0351,-4.0527,-4.0625,-4.0879,-4.0957,-4.0703,-4.0898,-4.1133,-4.1172,-4.1172,-4.1172,-4.1172,-4.1172,-4.1172,-4.1172,-4.1172,-4.1172,-4.1172,-4.1172,-4.1172,-4.1172,-4.1172,-4.1172,-4.1172,-4.1172,-4.1172,-4.1172,-4.1172,-4.1172,-4.1172,-4.1172,-4.1172,-2.7615,-2.7589,-2.7362,-2.7268,-2.7255,-2.7148,-2.6961,-2.676,-2.7001,-2.68,-2.6306,-2.6253,-2.6092,-2.5879,-2.633,-2.7392,-2.9076,-3.1105,-3.3006,-3.4917,-3.654,-3.7266,-3.7168,-3.6836,-3.6816,-3.6992,-3.6348,-3.6172,-3.6406,-3.5723,-3.5527,-3.5762,-3.543,-3.5469,-3.5879,0.0,0.0,0.0,-3.5976,-3.6035,-3.6016,-3.5605,-3.5,-3.4219,-3.3769,0.0,-3.1832,-3.0482,-2.9403,-2.8658,-2.5913,0.0,0.0,0.0,0.0,0.0,0.0,0.0,0.0,0.0,0.0,0.0,-2.8955,-2.9199,-2.7559,-2.9922,-3.1523,-3.1387,-3.2949,-3.4219,-3.4844,-3.6055,-3.6816,-3.6855,-3.7949,-3.873,-3.875,-3.957,-4.0195,-4.0254,-4.0351,-4.0547,-4.084,-4.0703,-4.0664,-4.0976,-4.1133,-4.1133,-4.1055,-4.1113,-4.1172,-4.1172,-4.1172,-4.1172,-4.1172,-4.1172,-4.1172,-4.1172,-4.1172,-4.1172,-4.1172,-4.1172,-4.1172,-4.1172,-4.1172,-4.1172,-4.1172,-4.1172,-4.1172,-4.1172,-4.1172,-4.1172,-4.1172,-4.1172,-4.1172,-2.7923,0.0,-2.7762,-2.7696,0.0,-2.7696,-2.7522,-2.7241,-2.7108,-2.68,-2.64,-2.64,-2.6306,-2.6172,-2.6172,-2.7156,-2.8955,-3.1044,-3.2392,-3.3431,-3.6576,-3.677,-3.4631,-3.5476,-3.5811,-3.5792,-3.5379,-3.5648,-3.666,-3.6445,-3.6328,-3.6348,-3.6328,-3.6445,-3.6641,-3.666,-3.6445,-3.6035,-3.5158,-3.5116,-3.6309,-3.5723,-3.5078,-3.4394,0.0,0.0,0.0,0.0,0.0,0.0,0.0,0.0,0.0,0.0,0.0,-2.0779,-2.0508,-2.0726,-2.16,-2.3623,-2.6084,-2.8819,-3.2096,-3.3144,-3.0996,-3.2832,-3.4082,-3.4101,-3.5234,-3.6172,-3.6621,-3.7617,-3.8242,-3.8301,-3.9199,-3.9863,-3.9922,-4.043,-4.084,-4.084,-4.0859,-4.0937,-4.1133,-4.0996,-4.0937,-4.1133,-4.1172,-4.1172,-4.1172,-4.1172,-4.1172,-4.1172,-4.1172,-4.1172,-4.1172,-4.1172,-4.1172,-4.1172,-4.1172,-4.1172,-4.1172,-4.1172,-4.1172,-4.1172,-4.1172,-4.1172,-4.1172,-4.1172,-4.1172,-4.1172,-4.1172,-4.1172,-4.1172,-4.1172,-4.1172,-2.815,-2.815,-2.815,-2.815,-2.815,-2.815,-2.7976,-2.7669,0.0,0.0,0.0,-2.6466,-2.644,-2.64,-2.64,-2.7305,-2.8983,-3.0977,-3.2201,-3.2657,-3.6294,-3.6257,-3.3106,-3.4662,-3.5248,-3.4974,-3.4847,-3.5538,-3.6894,-3.7168,-3.7129,-3.6836,-3.7129,-3.7305,-3.7305,-3.7003,-3.6654,-3.6132,-3.4677,-3.4826,-3.6738,-3.6016,-3.541,-3.4941,-3.4101,-3.3262,-3.2422,-3.2129,-3.143,-3.0082,-2.9587,-2.8144,-2.5612,-2.5181,-2.439,-2.3117,-2.3313,-2.35,-2.3567,-2.5399,-2.7755,-3.016,-3.4128,-3.6034,-3.4766,-3.5449,-3.6133,-3.6543,-3.7226,-3.7812,-3.8242,-3.8965,-3.9434,-3.9453,-4.0156,-4.0644,-4.0644,-4.0937,-4.1152,-4.1172,-4.1152,-4.1172,-4.1172,-4.1152,-4.1172,-4.1172,-4.1172,-4.1172,-4.1172,-4.1172,-4.1172,-4.1172,-4.1172,-4.1172,-4.1172,-4.1172,-4.1172,-4.1172,-4.1172,-4.1172,-4.1172,-4.1172,-4.1172,-4.1172,-4.1172,-4.1172,-4.1172,-4.1172,-4.1172,-4.1172,-4.1172,-4.1172,-4.1172,-4.1172,-4.1172,-2.815,-2.815,-2.815,-2.815,-2.815,-2.815,-2.7976,-2.7682,-2.7348,-2.7041,-2.676,-2.676,-2.6627,-2.64,-2.64,-2.6544,-2.7004,-2.8827,-3.0823,0.0,-3.49,-3.6553,-3.7563,-3.749,-3.7634,-3.7866,-3.7209,-3.7158,-3.7695,-3.7441,-3.7266,-3.7226,-3.7266,-3.7305,-3.7144,-3.5669,-3.5612,-3.7109,-3.6828,-3.6848,-3.7187,-3.6738,-3.6289,-3.582,-3.498,-3.4121,-3.3281,-3.3555,-3.3408,-3.2807,-3.2394,-3.1067,-2.8685,-2.7431,-2.5862,-2.3958,-2.3915,-2.4195,-2.4449,-2.67,-3.0049,-3.4513,-3.5389,-3.5921,-3.6833,-3.7637,-3.8301,-3.8711,-3.8828,-3.9121,-3.957,-4.0039,-4.0312,-4.0351,-4.0762,-4.1074,-4.1055,-4.1113,-4.1172,-4.1172,-4.1172,-4.1172,-4.1172,-4.1172,-4.1172,-4.1172,-4.1172,-4.1172,-4.1172,-4.1172,-4.1172,-4.1172,-4.1172,-4.1172,-4.1172,-4.1172,-4.1172,-4.1172,-4.1172,-4.1172,-4.1172,-4.1172,-4.1172,-4.1172,-4.1172,-4.1172,-4.1172,-4.1172,-4.1172,-4.1172,-4.1172,-4.1172,-4.1172,-4.1172,-4.1172,-2.815,-2.815,-2.815,-2.815,-2.815,-2.815,-2.807,-2.7936,-2.7802,-2.7482,-2.7081,-2.7068,-2.6907,-2.664,-2.6627,-2.6533,-2.6544,-2.853,-2.9293,-2.9449,-3.2489,-3.37,-3.3683,-3.4592,-3.5649,-3.6848,-3.6511,-3.6903,-3.7786,-3.7949,-3.7871,-3.7676,-3.7871,-3.7871,-3.7514,-3.6971,-3.6971,-3.7637,-3.6371,-3.6371,-3.7617,-3.7226,-3.6914,-3.6719,-3.6094,-3.5469,-3.4863,-3.5019,-3.5039,-3.4844,-3.4911,-3.4075,-3.2123,-3.0611,-2.8943,-2.7093,-2.6047,-2.5678,-2.5812,-2.8046,-3.095,-3.4384,-3.5858,-3.7274,-3.8915,-3.918,-3.9375,-3.957,-3.9785,-4.0,-4.0215,-4.0625,-4.0879,-4.0879,-4.1074,-4.1172,-4.1172,-4.1172,-4.1172,-4.1172,-4.1172,-4.1172,-4.1172,-4.1172,-4.1172,-4.1172,-4.1172,-4.1172,-4.1172,-4.1172,-4.1172,-4.1172,-4.1172,-4.1172,-4.1172,-4.1172,-4.1172,-4.1172,-4.1172,-4.1172,-4.1172,-4.1172,-4.1172,-4.1172,-4.1172,-4.1172,-4.1172,-4.1172,-4.1172,-4.1172,-4.1172,-4.1172,-4.1172,-4.1172,-4.1172,-2.815,-2.815,-2.815,-2.815,-2.815,-2.815,-2.815,-2.815,-2.8136,-2.7883,-2.7495,-2.7402,-2.7201,-2.6934,-2.6854,-2.6694,-2.6652,-2.8104,-2.8076,-2.7462,-3.0361,-3.1421,-3.0977,-3.2571,-3.4441,-3.6088,-3.594,-3.6257,-3.7372,-3.7855,-3.7943,-3.8125,-3.8418,-3.8398,-3.8086,-3.8496,-3.8555,-3.8078,-3.6487,-3.6431,-3.7903,-3.7851,-3.7734,-3.7695,-3.7402,-3.709,-3.6758,-3.6641,-3.6601,-3.6621,-3.7012,-3.6513,-3.503,-3.3621,-3.1983,-2.9955,-2.8503,-2.7418,-2.7176,-2.8579,-3.0801,-3.3668,-3.559,-3.7824,-4.0298,-4.0371,-4.0195,-4.0215,-4.0469,-4.0664,-4.0703,-4.0957,-4.1172,-4.1172,-4.1172,-4.1172,-4.1172,-4.1172,-4.1172,-4.1172,-4.1172,-4.1172,-4.1172,-4.1172,-4.1172,-4.1172,-4.1172,-4.1172,-4.1172,-4.1172,-4.1172,-4.1172,-4.1172,-4.1172,-4.1172,-4.1172,-4.1172,-4.1172,-4.1172,-4.1172,-4.1172,-4.1172,-4.1172,-4.1172,-4.1172,-4.1172,-4.1172,-4.1172,-4.1172,-4.1172,-4.1172,-4.1172,-4.1172,-4.1172,-4.1172,-2.815,-2.815,-2.815,-2.815,-2.815,-2.815,-2.815,-2.815,-2.815,-2.8123,-2.8016,-2.7789,-2.7495,-2.7215,-2.6961,-2.6827,-2.676,-2.6665,-2.7476,-2.8856,-2.9434,-3.1574,-3.4354,-3.5442,-3.6846,-3.8231,-3.6997,-3.6358,-3.6604,-3.6143,-3.6719,-3.837,-3.8555,-3.8594,-3.8574,-3.8945,-3.9121,-3.9101,-3.9304,-3.9129,-3.8594,-3.8848,-3.9023,-3.9023,-3.8984,-3.8945,-3.8809,-3.8535,-3.834,-3.8379,-3.8711,-3.8059,-3.6303,-3.6174,-3.4521,-3.0953,-3.02,-2.9396,-2.7879,-2.7566,-2.9583,-3.3969,-3.4592,-3.65,-4.055,-4.1055,-4.1055,-4.1016,-4.1074,-4.1074,-4.1113,-4.1152,-4.1172,-4.1172,-4.1172,-4.1172,-4.1172,-4.1172,-4.1172,-4.1172,-4.1172,-4.1172,-4.1172,-4.1172,-4.1172,-4.1172,-4.1172,-4.1172,-4.1172,-4.1172,-4.1172,-4.1172,-4.1172,-4.1191,-4.1172,-4.1172,-4.1172,-4.1172,-4.1172,-4.1172,-4.1172,-4.1172,-4.1172,-4.1172,-4.1172,-4.1172,-4.1172,-4.1172,-4.1172,-4.1172,-4.1172,-4.1172,-4.1172,-4.1211,-4.123,-2.815,-2.815,-2.815,-2.815,-2.815,-2.815,-2.815,-2.815,-2.815,-2.815,-2.8136,-2.8016,-2.7789,-2.7509,-2.7388,-2.7255,-2.7081,-2.6961,-2.7377,-2.8151,-2.8151,-2.97,-3.22,-3.2641,-3.4435,-3.7403,-3.6794,-3.7118,-3.8179,-3.8198,-3.8571,-3.9355,-3.9355,-3.9355,-3.9375,-3.9531,-3.9609,-3.9609,-3.9805,-3.9726,-3.9434,-3.9512,-3.9609,-3.9609,-3.9609,-3.9609,-3.9609,-3.9434,-3.9355,-3.9375,-3.9766,-3.9678,-3.8728,-3.8006,-3.6763,-3.4844,-3.2451,-3.0093,-2.8117,-2.7856,-2.9173,-3.253,-3.3872,-3.5966,-3.8864,-4.0353,-4.1172,-4.1172,-4.1172,-4.1172,-4.1172,-4.1172,-4.1172,-4.1172,-4.1172,-4.1172,-4.1172,-4.1172,-4.1172,-4.1172,-4.1172,-4.1172,-4.1172,-4.1172,-4.1172,-4.1172,-4.1172,-4.1172,-4.1172,-4.1172,-4.1172,-4.1211,-4.1367,-4.1406,-4.125,-4.1172,-4.1172,-4.1172,-4.1172,-4.1172,-4.1172,-4.1172,-4.1172,-4.1172,-4.1191,-4.1191,-4.1172,-4.1172,-4.1172,-4.1191,-4.1211,-4.1289,-4.1797,-4.1719,-4.166,-2.815,-2.815,-2.815,-2.815,-2.815,-2.815,-2.815,-2.815,-2.815,-2.815,-2.815,-2.815,-2.8016,-2.7829,-2.7736,-2.7575,-2.7388,-2.7308,-2.7268,-2.7268,-2.7268,-2.8367,-3.0275,-3.1152,-3.2936,-3.5453,-3.592,-3.635,-3.7221,-3.7203,-3.7833,-3.8785,-3.8937,-3.9259,-3.9902,-3.998,-4.0059,-4.0078,-4.0176,-4.0254,-4.0254,-4.0254,-4.0195,-4.0098,-4.0195,-4.0234,-4.0254,-4.0254,-4.0254,-4.0254,-4.0547,-4.0703,-4.0723,-3.9537,-3.8548,-3.7737,-3.4489,-3.1407,-2.9286,-2.9607,-3.0592,-3.2217,-3.4327,-3.6442,-3.8548,-4.0353,-4.1172,-4.1172,-4.1172,-4.1172,-4.1172,-4.1172,-4.1172,-4.1172,-4.1172,-4.1172,-4.1172,-4.1172,-4.1172,-4.1172,-4.1172,-4.1172,-4.1172,-4.1172,-4.1172,-4.1172,-4.1172,-4.1172,-4.1172,-4.1172,-4.1172,-4.1172,-4.1445,-4.1465,-4.125,-4.1328,-4.1289,-4.1172,-4.1172,-4.1172,-4.1172,-4.1172,-4.1172,-4.1172,-4.125,-4.1269,-4.123,-4.1211,-4.1367,-4.1367,-4.1445,-4.168,-4.2187,-4.2109,-4.2129,-2.815,-2.815,-2.815,-2.815,-2.815,-2.815,-2.815,-2.815,-2.815,-2.815,-2.815,-2.815,-2.8136,-2.8083,-2.7843,-2.7696,-2.7642,-2.7428,-2.7321,-2.7321,-2.7308,-2.8381,-3.045,-3.2794,-3.393,-3.409,-3.4249,-3.3289,-3.1425,-3.125,-3.2791,-3.6587,-3.695,-3.7871,-3.9546,-4.0179,-4.0488,-4.0527,-4.084,-4.1074,-4.1094,-4.1074,-4.0879,-4.0566,-4.0879,-4.1055,-4.1074,-4.1094,-4.1094,-4.1094,-4.1094,-4.1113,-4.1133,-4.0997,-4.0059,-3.7914,-3.5816,-3.3544,-3.1768,-3.2921,-3.4229,-3.4701,-3.6207,-3.8585,-4.0311,-4.0977,-4.1289,-4.1211,-4.1289,-4.1269,-4.1269,-4.123,-4.1172,-4.1172,-4.1172,-4.1172,-4.1172,-4.1172,-4.1172,-4.1172,-4.1172,-4.1172,-4.1172,-4.1172,-4.1172,-4.1172,-4.1172,-4.1172,-4.1172,-4.1172,-4.1172,-4.1191,-4.123,-4.1211,-4.1211,-4.1348,-4.1426,-4.1308,-4.1172,-4.1191,-4.1172,-4.1172,-4.1172,-4.1269,-4.1504,-4.1543,-4.1348,-4.1426,-4.1699,-4.1855,-4.2031,-4.2324,-4.2676,-4.25,-4.2519,-2.815,-2.815,-2.815,-2.815,-2.815,-2.815,-2.815,-2.815,-2.815,-2.815,-2.815,-2.815,-2.815,-2.8136,-2.803,-2.7989,-2.7976,-2.7869,-2.7829,-2.7829,-2.7829,-2.8315,-2.8966,-3.0044,-3.1063,-3.2196,-3.236,-3.2623,-3.3161,-3.3145,-3.379,-3.539,-3.6833,-3.7951,-3.8788,-4.0202,-4.0937,-4.0957,-4.1113,-4.1172,-4.1172,-4.1172,-4.1094,-4.0957,-4.1074,-4.1172,-4.1172,-4.1172,-4.1172,-4.1172,-4.1172,-4.1172,-4.1191,-4.1426,-4.0578,-3.8613,-3.7844,-3.6005,-3.3029,-3.4183,-3.4848,-3.3698,-3.6679,-3.912,-3.9981,-4.1139,-4.1973,-4.1953,-4.1973,-4.1973,-4.1855,-4.1504,-4.1172,-4.1172,-4.1172,-4.1211,-4.1172,-4.1172,-4.1172,-4.1172,-4.1172,-4.1172,-4.1172,-4.1172,-4.1172,-4.1172,-4.1172,-4.1172,-4.1172,-4.1172,-4.1172,-4.1211,-4.1387,-4.1484,-4.1191,-4.1269,-4.1328,-4.125,-4.1191,-4.1348,-4.1406,-4.123,-4.1191,-4.1484,-4.1758,-4.1855,-4.1699,-4.1933,-4.2168,-4.2246,-4.2461,-4.2793,-4.3144,-4.2969,-4.3008,-2.8203,-2.8283,-2.8297,-2.835,-2.8417,-2.8323,-2.8297,-2.8283,-2.819,-2.815,-2.815,-2.815,-2.815,-2.815,-2.815,-2.815,-2.815,-2.8136,-2.815,-2.815,-2.815,-2.815,-2.8305,-2.8964,-2.9607,-3.026,-3.0426,-3.1241,-3.2381,-3.2546,-3.3038,-3.3676,-3.5799,-3.7259,-3.8073,-4.0021,-4.1172,-4.1172,-4.1172,-4.1172,-4.1172,-4.1172,-4.1172,-4.1172,-4.1172,-4.1172,-4.1172,-4.1172,-4.1172,-4.1172,-4.1172,-4.123,-4.1387,-4.1641,-4.1202,-4.0018,-4.008,-3.8576,-3.5574,-3.6741,-3.7056,-3.5071,-3.79,-4.0247,-4.0409,-4.1579,-4.2261,-4.2422,-4.2422,-4.2422,-4.2324,-4.1914,-4.1582,-4.1582,-4.1582,-4.1582,-4.1562,-4.1445,-4.1328,-4.1191,-4.1172,-4.1172,-4.1172,-4.1172,-4.1172,-4.1172,-4.1172,-4.1172,-4.1172,-4.1172,-4.1172,-4.1191,-4.1367,-4.1387,-4.125,-4.123,-4.125,-4.1191,-4.1172,-4.1387,-4.1504,-4.1308,-4.1387,-4.1699,-4.1933,-4.2051,-4.2226,-4.2461,-4.2558,-4.2617,-4.2891,-4.3223,-4.3379,-4.3418,-4.3418,-2.8323,-2.8564,-2.8604,-2.8738,-2.8911,-2.8711,-2.8604,-2.8524,-2.8283,-2.8177,-2.815,-2.815,-2.815,-2.815,-2.815,-2.815,-2.815,-2.815,-2.815,-2.815,-2.815,-2.815,-2.8305,-2.9941,-2.9774,-2.8642,-2.8305,-2.8305,-2.8796,-2.8964,-2.9774,-3.1557,-3.3512,-3.546,-3.7578,-3.9531,-4.0997,-4.0997,-4.0997,-4.1172,-4.1172,-4.1172,-4.1172,-4.1172,-4.1172,-4.1172,-4.1172,-4.1172,-4.1172,-4.1172,-4.1211,-4.1387,-4.1738,-4.1894,-4.2031,-4.2203,-4.23,-4.1295,-3.9468,-4.0846,-4.0884,-3.9377,-4.099,-4.2236,-4.2275,-4.2398,-4.2558,-4.2578,-4.2558,-4.2519,-4.2539,-4.248,-4.2383,-4.2402,-4.2266,-4.2285,-4.2266,-4.2012,-4.1641,-4.1308,-4.1211,-4.1172,-4.1172,-4.1172,-4.1172,-4.1172,-4.1172,-4.1172,-4.1172,-4.1172,-4.1172,-4.1172,-4.125,-4.125,-4.1211,-4.1172,-4.1172,-4.1172,-4.1172,-4.1269,-4.1426,-4.1367,-4.1582,-4.1875,-4.2324,-4.2461,-4.2656,-4.2871,-4.293,-4.3027,-4.334,-4.3496,-4.3555,-4.3574,-4.3613,-2.8524,-2.8604,-2.8604,-2.8778,-2.9018,-2.8938,-2.8791,-2.8604,-2.8497,-2.835,-2.8177,-2.815,-2.815,-2.815,-2.815,-2.815,-2.815,-2.815,-2.815,-2.815,-2.815,-2.815,-2.8305,-2.8964,-2.8796,-2.8305,-2.815,-2.815,-2.815,-2.815,-2.8642,-2.9439,-3.1407,-3.2694,-3.3839,-3.6922,-3.8882,-3.904,-4.0509,-4.1172,-4.1172,-4.1172,-4.1172,-4.1172,-4.1172,-4.1172,-4.1172,-4.1172,-4.1172,-4.1191,-4.1445,-4.1797,-4.2187,-4.2519,-4.2734,-4.2891,-4.3164,-4.2277,-4.0565,-4.1909,-4.2239,-4.0898,-4.2093,-4.3137,-4.3301,-4.3301,-4.332,-4.3301,-4.3301,-4.3301,-4.3301,-4.3301,-4.3086,-4.25,-4.2422,-4.2461,-4.2422,-4.209,-4.1797,-4.1621,-4.1348,-4.1191,-4.1191,-4.1191,-4.125,-4.1211,-4.1211,-4.123,-4.1191,-4.1211,-4.1172,-4.1172,-4.1172,-4.1211,-4.1269,-4.125,-4.1211,-4.1269,-4.1308,-4.125,-4.1367,-4.1641,-4.1836,-4.2168,-4.2598,-4.2891,-4.3086,-4.3203,-4.3262,-4.3281,-4.3418,-4.3555,-4.3652,-4.3691,-4.3691,-2.8764,-2.8778,-2.8885,-2.9098,-2.9339,-2.9259,-2.9112,-2.8925,-2.8804,-2.8657,-2.8497,-2.8484,-2.8484,-2.8457,-2.8364,-2.831,-2.8297,-2.8203,-2.815,-2.815,-2.815,-2.815,-2.815,-2.815,-2.815,-2.8177,-2.8257,-2.831,-2.831,-2.8323,-2.831,-2.8636,-3.0332,-3.1407,-3.1887,-3.5621,-3.7896,-3.8231,-4.0021,-4.1172,-4.1172,-4.1172,-4.1172,-4.1172,-4.1172,-4.125,-4.1387,-4.1406,-4.1406,-4.1484,-4.1797,-4.2226,-4.2637,-4.293,-4.3144,-4.334,-4.3516,-4.2991,-4.1974,-4.2787,-4.3176,-4.2159,-4.2997,-4.3945,-4.3984,-4.4062,-4.4199,-4.4199,-4.4199,-4.4199,-4.418,-4.4023,-4.3711,-4.3242,-4.3027,-4.2851,-4.2676,-4.2441,-4.2207,-4.2051,-4.1816,-4.166,-4.1641,-4.1641,-4.1562,-4.1465,-4.1543,-4.1523,-4.1484,-4.1406,-4.1406,-4.1348,-4.125,-4.1308,-4.1406,-4.1348,-4.1269,-4.1367,-4.1484,-4.1406,-4.1406,-4.1855,-4.2168,-4.2598,-4.3027,-4.3242,-4.3437,-4.3516,-4.3574,-4.3574,-4.3516,-4.3594,-4.3691,-4.3691,-4.3691,-2.9058,-2.9098,-2.9352,-2.9606,-2.982,-2.9619,-2.9472,-2.9406,-2.9179,-2.9032,-2.8991,-2.8951,-2.8978,-2.8951,-2.8724,-2.8631,-2.8577,-2.8337,-2.8257,-2.8243,-2.823,-2.8203,-2.815,-2.8203,-2.823,-2.8257,-2.8497,-2.8617,-2.8631,-2.8631,-2.8631,-2.8775,-3.0211,-3.115,-3.1873,-3.5544,-3.7561,-3.7757,-3.9997,-4.1328,-4.1328,-4.1308,-4.1308,-4.1308,-4.1348,-4.1504,-4.1777,-4.1894,-4.1914,-4.1933,-4.2285,-4.2656,-4.3008,-4.3105,-4.334,-4.3711,-4.375,-4.3828,-4.3643,-4.376,-4.3721,-4.3593,-4.4051,-4.4433,-4.4453,-4.4668,-4.4844,-4.4863,-4.4902,-4.4941,-4.4863,-4.4648,-4.4394,-4.4316,-4.3808,-4.3437,-4.3164,-4.3047,-4.2793,-4.2539,-4.2441,-4.2402,-4.2305,-4.2305,-4.2148,-4.1992,-4.209,-4.207,-4.1933,-4.1836,-4.1836,-4.1738,-4.1601,-4.1641,-4.1816,-4.1758,-4.1699,-4.1797,-4.1875,-4.1816,-4.1699,-4.2109,-4.2598,-4.3027,-4.3301,-4.3535,-4.3672,-4.3691,-4.3691,-4.3652,-4.3652,-4.3691,-4.3691,-4.3691,-4.3691,-2.9366,-2.9379,-2.9446,-2.9646,-2.9887,-2.982,-2.9673,-2.9486,-2.9406,-2.9259,-2.9098,-2.9045,-2.9072,-2.9032,-2.8978,-2.8925,-2.8858,-2.8617,-2.8617,-2.8751,-2.8564,-2.835,-2.8243,-2.8377,-2.8484,-2.8524,-2.8778,-2.8925,-2.8925,-2.8925,-2.8925,-2.8925,-2.9494,-2.9783,-3.0296,-3.408,-3.6106,-3.6929,-4.0253,-4.207,-4.2051,-4.2051,-4.2109,-4.209,-4.207,-4.2129,-4.2285,-4.2578,-4.2734,-4.2734,-4.2832,-4.3105,-4.3496,-4.3535,-4.375,-4.4121,-4.4219,-4.4355,-4.459,-4.4648,-4.4648,-4.4668,-4.4766,-4.4844,-4.4863,-4.4961,-4.5039,-4.5039,-4.5039,-4.5058,-4.5039,-4.4941,-4.4746,-4.4394,-4.4023,-4.3691,-4.3516,-4.3262,-4.3008,-4.291,-4.2637,-4.2519,-4.25,-4.25,-4.2441,-4.2324,-4.2383,-4.2441,-4.2324,-4.2266,-4.2266,-4.2266,-4.2187,-4.2207,-4.2226,-4.2168,-4.2187,-4.2285,-4.2363,-4.2402,-4.2324,-4.2422,-4.2949,-4.3457,-4.3496,-4.3652,-4.3691,-4.3691,-4.3691,-4.3691,-4.3691,-4.3691,-4.3691,-4.3691,-4.3691,-2.9593,-2.9499,-2.9619,-2.9766,-2.99,-2.9913,-2.982,-2.9686,-2.9659,-2.9579,-2.9432,-2.9406,-2.9406,-2.9392,-2.9285,-2.9232,-2.9192,-2.8925,-2.8885,-2.8965,-2.8858,-2.8698,-2.8604,-2.8724,-2.8791,-2.8818,-2.9085,-2.9219,-2.9232,-2.9232,-2.9232,-2.9192,-2.9098,-2.9045,-2.9339,-3.3384,-3.5724,-3.6541,-4.0066,-4.2422,-4.2422,-4.2422,-4.2402,-4.2422,-4.2422,-4.248,-4.2715,-4.3105,-4.334,-4.334,-4.3359,-4.3535,-4.3945,-4.4004,-4.4199,-4.4609,-4.4668,-4.4785,-4.4961,-4.5039,-4.5039,-4.5058,-4.5156,-4.5293,-4.5351,-4.543,-4.5566,-4.5586,-4.5566,-4.5566,-4.5527,-4.541,-4.5117,-4.4726,-4.4258,-4.3926,-4.373,-4.3496,-4.3359,-4.3281,-4.3125,-4.2949,-4.2949,-4.2949,-4.2851,-4.2793,-4.291,-4.2871,-4.2754,-4.2734,-4.2695,-4.2695,-4.2598,-4.2539,-4.2539,-4.2519,-4.2578,-4.2695,-4.2773,-4.2832,-4.2891,-4.2851,-4.3144,-4.3535,-4.3633,-4.3691,-4.3691,-4.3691,-4.3691,-4.3691,-4.3691,-4.3691,-4.3691,-4.3691,-4.3691,-2.9766,-2.9553,-2.9806,-2.9913,-2.9913,-2.9913,-2.99,-2.9913,-2.9887,-2.9887,-2.986,-2.9887,-2.9833,-2.99,-2.9619,-2.9526,-2.9513,-2.9219,-2.9112,-2.9152,-2.9179,-2.9205,-2.9138,-2.9085,-2.9098,-2.9138,-2.9392,-2.9513,-2.9526,-2.9526,-2.9526,-2.9486,-2.9285,-2.9165,-3.0079,-3.3553,-3.5705,-3.6862,-4.0491,-4.2709,-4.2871,-4.2871,-4.2832,-4.2715,-4.2715,-4.2851,-4.3164,-4.3535,-4.3789,-4.3789,-4.3769,-4.4004,-4.4375,-4.4453,-4.4668,-4.5,-4.5098,-4.5137,-4.5195,-4.5293,-4.5273,-4.541,-4.5683,-4.584,-4.5976,-4.6211,-4.6289,-4.6269,-4.6328,-4.6191,-4.6133,-4.5918,-4.5566,-4.5137,-4.4726,-4.4277,-4.3906,-4.373,-4.3691,-4.3691,-4.3691,-4.3691,-4.3691,-4.3672,-4.3555,-4.3183,-4.3301,-4.3262,-4.3183,-4.3144,-4.3144,-4.3144,-4.2988,-4.2793,-4.2832,-4.2871,-4.2969,-4.3086,-4.3125,-4.3203,-4.334,-4.3359,-4.3418,-4.3555,-4.3652,-4.3691,-4.3691,-4.3691,-4.3691,-4.3691,-4.3691,-4.3691,-4.3691,-4.3691,-4.3691,-2.9887,-2.9833,-2.9887,-2.9913,-2.9913,-2.9913,-2.9927,-2.994,-2.9927,-2.994,-2.9913,-2.9913,-2.9913,-2.9913,-2.9833,-2.982,-2.9766,-2.9539,-2.9392,-2.9446,-2.99,-2.99,-2.9726,-2.9539,-2.9406,-2.9459,-2.9686,-2.982,-2.982,-2.9847,-2.9833,-2.982,-2.9793,-2.9726,-3.0411,-3.3853,-3.6748,-3.7825,-4.1508,-4.3721,-4.3867,-4.3848,-4.3672,-4.3398,-4.3398,-4.3457,-4.3633,-4.4004,-4.4238,-4.4258,-4.4297,-4.4492,-4.4805,-4.4883,-4.5098,-4.543,-4.5547,-4.5664,-4.5937,-4.5996,-4.6172,-4.6387,-4.6504,-4.6797,-4.7129,-4.6855,-4.6797,-4.6738,-4.6523,-4.6328,-4.6289,-4.623,-4.5957,-4.5586,-4.5156,-4.4726,-4.4316,-4.3926,-4.373,-4.3691,-4.3691,-4.3691,-4.3691,-4.3691,-4.3633,-4.3574,-4.3594,-4.3633,-4.3594,-4.3516,-4.3476,-4.3437,-4.3379,-4.3203,-4.3203,-4.3242,-4.3281,-4.334,-4.3398,-4.3437,-4.3574,-4.3633,-4.3594,-4.3613,-4.3672,-4.3691,-4.3691,-4.3691,-4.3691,-4.3691,-4.3691,-4.3691,-4.3691,-4.3691,-4.3691,-2.9913,-2.9927,-3.006,-3.0127,-3.014,-3.0274,-3.0327,-3.0301,-3.0167,-3.0127,-3.0087,-2.9993,-2.9913,-2.9913,-2.9913,-2.9913,-2.9927,-2.9927,-2.998,-3.0127,-3.0434,-3.0461,-3.0354,-3.0154,-2.9993,-2.9793,-2.998,-3.0114,-3.0154,-3.0247,-3.0341,-3.0327,-3.0314,-3.0327,-3.0677,-3.3814,-3.6195,-3.7908,-4.116,-4.3462,-4.4499,-4.4473,-4.418,-4.3867,-4.3906,-4.4023,-4.4062,-4.4453,-4.4766,-4.4941,-4.5,-4.5078,-4.5273,-4.5332,-4.5547,-4.5879,-4.5976,-4.6055,-4.625,-4.6504,-4.668,-4.6933,-4.7109,-4.7324,-4.7422,-4.7187,-4.6953,-4.6836,-4.6582,-4.6308,-4.6308,-4.6523,-4.6367,-4.6016,-4.5586,-4.5234,-4.4922,-4.4258,-4.3691,-4.3691,-4.3691,-4.3691,-4.3691,-4.3691,-4.3691,-4.3633,-4.3633,-4.3672,-4.3672,-4.3613,-4.3633,-4.3633,-4.3652,-4.3633,-4.3613,-4.3613,-4.3574,-4.3594,-4.3594,-4.3613,-4.3652,-4.3691,-4.3691,-4.3691,-4.3691,-4.3691,-4.3691,-4.3691,-4.3691,-4.3691,-4.3691,-4.3691,-4.3691,-4.3691,-4.3691,-2.9913,-2.994,-3.0234,-3.0368,-3.0408,-3.0648,-3.0755,-3.0728,-3.0528,-3.0394,-3.0314,-3.0087,-3.002,-2.998,-2.9927,-2.9927,-3.0074,-3.0368,-3.0581,-3.0662,-3.0782,-3.0782,-3.0715,-3.0635,-3.0474,-3.0114,-3.0301,-3.0421,-3.0488,-3.0648,-3.0675,-3.0755,-3.0768,-3.0688,-3.1294,-3.3096,-3.5583,-3.797,-4.0491,-4.2981,-4.4737,-4.4824,-4.4473,-4.418,-4.4297,-4.4492,-4.457,-4.4902,-4.5273,-4.5644,-4.5742,-4.5762,-4.5762,-4.5781,-4.5898,-4.6269,-4.625,-4.6328,-4.6484,-4.6719,-4.6953,-4.707,-4.7441,-4.7715,-4.7715,-4.7422,-4.7148,-4.6894,-4.666,-4.6308,-4.6328,-4.6504,-4.6562,-4.6289,-4.5918,-4.5703,-4.5469,-4.4609,-4.4101,-4.3848,-4.3769,-4.3691,-4.3691,-4.3691,-4.3691,-4.3691,-4.3691,-4.3691,-4.3691,-4.3691,-4.3691,-4.3691,-4.3691,-4.3691,-4.3691,-4.3691,-4.3691,-4.3691,-4.3691,-4.3691,-4.3691,-4.3691,-4.3691,-4.3691,-4.3691,-4.3711,-4.3711,-4.3691,-4.3691,-4.3691,-4.3691,-4.3691,-4.3691,-4.3691,-4.3769,-2.9913,-2.994,-3.0234,-3.0368,-3.0408,-3.0675,-3.0822,-3.0795,-3.0755,-3.0581,-3.0394,-3.0314,-3.0287,-3.0234,-3.0007,-3.006,-3.0394,-3.0755,-3.0942,-3.0929,-3.1036,-3.1076,-3.0915,-3.0902,-3.0782,-3.0688,-3.0728,-3.0755,-3.0728,-3.0768,-3.0889,-3.0822,-3.0849,-3.0849,-3.1757,-3.3139,-3.5635,-3.8495,-4.0683,-4.2674,-4.4991,-4.5391,-4.5117,-4.4746,-4.4844,-4.4902,-4.5019,-4.5312,-4.5605,-4.5703,-4.6016,-4.6152,-4.6172,-4.6172,-4.625,-4.6328,-4.6367,-4.6504,-4.6797,-4.6933,-4.7344,-4.7793,-4.8066,-4.8281,-4.832,-4.793,-4.75,-4.7246,-4.6836,-4.6367,-4.6308,-4.6523,-4.6406,-4.6211,-4.5996,-4.5723,-4.5586,-4.5156,-4.4629,-4.4414,-4.4082,-4.375,-4.3808,-4.3789,-4.3691,-4.3691,-4.3691,-4.3691,-4.3691,-4.3691,-4.3691,-4.3691,-4.3691,-4.3691,-4.3691,-4.3691,-4.3691,-4.3691,-4.3691,-4.3691,-4.3691,-4.3691,-4.3691,-4.3691,-4.3711,-4.375,-4.373,-4.3769,-4.3867,-4.3984,-4.3867,-4.375,-4.3906,-4.4082,-4.4101,-2.9913,-2.9967,-3.0394,-3.0581,-3.0662,-3.1062,-3.1249,-3.1223,-3.1089,-3.0942,-3.0795,-3.0662,-3.0581,-3.0541,-3.0448,-3.0541,-3.0835,-3.1049,-3.1223,-3.1249,-3.137,-3.1396,-3.1236,-3.1236,-3.1249,-3.1249,-3.1236,-3.1129,-3.1049,-3.1196,-3.1209,-3.1249,-3.1249,-3.1783,-3.2701,-3.2901,-3.602,-3.9238,-4.0711,-4.2351,-4.559,-4.582,-4.5469,-4.5195,-4.5254,-4.5351,-4.5449,-4.5781,-4.5996,-4.6035,-4.6191,-4.6289,-4.6348,-4.6484,-4.6621,-4.6621,-4.6621,-4.6816,-4.7226,-4.7441,-4.7812,-4.8125,-4.8379,-4.8613,-4.8652,-4.8281,-4.7812,-4.7578,-4.7598,-4.709,-4.6719,-4.6816,-4.6738,-4.6367,-4.6094,-4.5996,-4.5898,-4.5586,-4.5293,-4.498,-4.4531,-4.4219,-4.4043,-4.3965,-4.3769,-4.3691,-4.3711,-4.373,-4.375,-4.3828,-4.3887,-4.3769,-4.3769,-4.3691,-4.3691,-4.3691,-4.3691,-4.3691,-4.3711,-4.3711,-4.3769,-4.3789,-4.375,-4.3691,-4.373,-4.3906,-4.4023,-4.4141,-4.4199,-4.4297,-4.4355,-4.4394,-4.4414,-4.4453,-4.4492,-2.9913,-2.9953,-3.0488,-3.0715,-3.0795,-3.133,-3.1557,-3.1543,-3.1383,-3.1263,-3.1196,-3.0996,-3.0875,-3.0889,-3.0955,-3.1076,-3.1249,-3.1276,-3.1436,-3.157,-3.1623,-3.165,-3.1664,-3.1677,-3.1623,-3.1557,-3.1583,-3.1543,-3.1396,-3.149,-3.1623,-3.1597,-3.165,-3.296,-3.4362,-3.3758,-3.7144,-3.9704,-4.0988,-4.2282,-4.5121,-4.5976,-4.5664,-4.5332,-4.5625,-4.5801,-4.584,-4.6074,-4.623,-4.625,-4.6289,-4.6308,-4.6348,-4.6621,-4.6875,-4.7012,-4.6992,-4.7207,-4.7617,-4.7793,-4.8008,-4.8379,-4.8652,-4.8808,-4.875,-4.8437,-4.8027,-4.7754,-4.7754,-4.7715,-4.7187,-4.7266,-4.7051,-4.666,-4.6387,-4.6269,-4.6191,-4.5996,-4.584,-4.5469,-4.498,-4.4707,-4.4551,-4.4219,-4.4023,-4.4004,-4.4023,-4.4004,-4.4043,-4.418,-4.418,-4.3945,-4.3828,-4.373,-4.3691,-4.3691,-4.3691,-4.3691,-4.373,-4.3769,-4.3848,-4.3926,-4.3926,-4.4004,-4.4141,-4.4316,-4.4414,-4.4453,-4.4473,-4.459,-4.4883,-4.4961,-4.4785,-4.4785,-4.4863,-2.9913,-2.994,-3.0274,-3.0408,-3.0515,-3.1049,-3.1289,-3.133,-3.1517,-3.145,-3.1263,-3.1209,-3.1183,-3.1223,-3.1423,-3.141,-3.137,-3.1476,-3.1597,-3.1664,-3.1677,-3.1677,-3.1677,-3.1677,-3.1677,-3.1677,-3.1677,-3.1664,-3.1597,-3.1637,-3.1677,-3.1677,-3.1853,-3.2947,-3.5509,-3.4779,-3.7512,-4.1708,-4.2264,-4.3549,-4.5744,-4.623,-4.6133,-4.6113,-4.6133,-4.6211,-4.6211,-4.6348,-4.6367,-4.6348,-4.6348,-4.6328,-4.6308,-4.6328,-4.6816,-4.7129,-4.7266,-4.7285,-4.793,-4.8008,-4.8125,-4.8574,-4.8808,-4.8848,-4.8769,-4.8516,-4.8125,-4.7637,-4.7715,-4.7715,-4.7519,-4.7246,-4.7012,-4.6797,-4.6543,-4.6387,-4.6289,-4.623,-4.6094,-4.6035,-4.5566,-4.5293,-4.5078,-4.4668,-4.4316,-4.4316,-4.4316,-4.4316,-4.4297,-4.4414,-4.4433,-4.418,-4.3867,-4.373,-4.3691,-4.3691,-4.3711,-4.3711,-4.3828,-4.3867,-4.3926,-4.4082,-4.4453,-4.4551,-4.4629,-4.4668,-4.4726,-4.4746,-4.4726,-4.4941,-4.5312,-4.5234,-4.5,-4.5098,-4.5293,-2.9913,-2.994,-3.0234,-3.0461,-3.0648,-3.1049,-3.133,-3.1476,-3.161,-3.1597,-3.149,-3.1476,-3.1476,-3.1503,-3.1623,-3.1597,-3.153,-3.161,-3.1664,-3.1677,-3.1677,-3.1677,-3.1677,-3.1677,-3.1677,-3.1677,-3.1677,-3.1677,-3.1677,-3.1677,-3.1677,-3.1677,-3.2043,-3.3873,-3.6437,-3.5866,-3.9341,-4.2818,-4.4826,-4.5197,-4.5939,-4.6308,-4.6308,-4.6308,-4.6308,-4.6426,-4.6582,-4.666,-4.666,-4.6699,-4.6836,-4.6894,-4.6875,-4.709,-4.7617,-4.7812,-4.7793,-4.7969,-4.8437,-4.8359,-4.8516,-4.8691,-4.8848,-4.8848,-4.8808,-4.8691,-4.8516,-4.834,-4.832,-4.8203,-4.7988,-4.7773,-4.7383,-4.707,-4.6816,-4.6582,-4.6445,-4.6328,-4.625,-4.6211,-4.6152,-4.584,-4.5527,-4.5176,-4.4844,-4.4746,-4.4766,-4.4766,-4.4629,-4.4531,-4.4492,-4.4375,-4.4023,-4.3711,-4.3691,-4.3691,-4.373,-4.3789,-4.4062,-4.4101,-4.4062,-4.4238,-4.4668,-4.4824,-4.4785,-4.4863,-4.5,-4.5137,-4.5234,-4.5488,-4.5762,-4.5644,-4.5547,-4.5703,-4.5879,-2.9913,-2.994,-3.0154,-3.0381,-3.0608,-3.0955,-3.1223,-3.1436,-3.161,-3.1664,-3.1677,-3.1664,-3.1664,-3.1677,-3.1664,-3.1664,-3.1664,-3.1677,-3.1677,-3.1677,-3.1677,-3.1677,-3.1677,-3.1677,-3.1677,-3.1677,-3.1677,-3.1677,-3.1677,-3.1677,-3.1677,-3.1677,-3.1677,-3.3873,-3.6421,-3.7528,-3.9721,-4.5373,-4.5939,-4.6114,-4.6308,-4.6308,-4.6308,-4.6308,-4.6348,-4.6504,-4.6855,-4.6914,-4.6914,-4.7148,-4.7324,-4.7324,-4.7226,-4.7519,-4.791,-4.8086,-4.8066,-4.8301,-4.8594,-4.8652,-4.8769,-4.8828,-4.8848,-4.8848,-4.8848,-4.8848,-4.8848,-4.875,-4.875,-4.8613,-4.8437,-4.8262,-4.7891,-4.75,-4.7187,-4.6914,-4.668,-4.6621,-4.6543,-4.6504,-4.6426,-4.6269,-4.5957,-4.5644,-4.5391,-4.5234,-4.5195,-4.5215,-4.5098,-4.4922,-4.4844,-4.4805,-4.4316,-4.4004,-4.3926,-4.3887,-4.3848,-4.3906,-4.4199,-4.4473,-4.4531,-4.4648,-4.498,-4.5019,-4.5058,-4.5351,-4.5664,-4.5723,-4.5781,-4.5918,-4.6055,-4.6172,-4.6211,-4.6308,-4.6289,-2.9913,-2.9913,-2.9953,-2.9993,-3.0087,-3.0595,-3.0849,-3.1062,-3.1476,-3.1664,-3.1677,-3.1677,-3.1677,-3.1677,-3.1677,-3.1677,-3.1677,-3.1677,-3.1677,-3.1677,-3.1677,-3.1677,-3.1677,-3.1677,-3.1677,-3.1677,-3.1677,-3.1677,-3.1677,-3.1677,-3.1677,-3.1677,-3.2246,-3.3511,-3.6097,-3.8893,-4.1454,-4.5645,-4.6348,-4.6308,-4.6308,-4.6308,-4.6308,-4.6308,-4.6348,-4.6504,-4.6914,-4.7031,-4.7207,-4.7519,-4.7695,-4.7676,-4.7637,-4.7793,-4.8066,-4.8262,-4.832,-4.8516,-4.8711,-4.8633,-4.8555,-4.873,-4.8848,-4.8848,-4.8848,-4.8848,-4.8848,-4.8848,-4.8848,-4.8828,-4.8652,-4.8476,-4.8223,-4.793,-4.7617,-4.7422,-4.7187,-4.6992,-4.6914,-4.6816,-4.6738,-4.666,-4.6601,-4.6348,-4.5918,-4.5723,-4.5644,-4.5664,-4.5723,-4.5586,-4.5488,-4.5293,-4.4746,-4.4433,-4.4316,-4.4258,-4.4219,-4.4258,-4.4453,-4.4863,-4.5195,-4.5332,-4.543,-4.5566,-4.5703,-4.6016,-4.6191,-4.6035,-4.5996,-4.6191,-4.6308,-4.6308,-4.6308,-4.6308,-4.6308,-3.002,-3.0167,-2.9993,-3.0127,-3.0488,-3.0889,-3.1169,-3.1343,-3.157,-3.1677,-3.1677,-3.1677,-3.1677,-3.1677,-3.1677,-3.1677,-3.1677,-3.1677,-3.1677,-3.1677,-3.1677,-3.1677,-3.1677,-3.1677,-3.1677,-3.1677,-3.1677,-3.1677,-3.1677,-3.169,-3.1824,-3.2205,-3.3261,-3.5503,-3.812,-4.1153,-4.4473,-4.5699,-4.6465,-4.6308,-4.6308,-4.6308,-4.6308,-4.6308,-4.6621,-4.6894,-4.7305,-4.7598,-4.7773,-4.7969,-4.8183,-4.8144,-4.8047,-4.8183,-4.8359,-4.8535,-4.8555,-4.8672,-4.8789,-4.8691,-4.8711,-4.8769,-4.8848,-4.8848,-4.8848,-4.8848,-4.8848,-4.8848,-4.8848,-4.8848,-4.8808,-4.8691,-4.8535,-4.8262,-4.8047,-4.7891,-4.7695,-4.748,-4.7344,-4.7285,-4.7246,-4.7207,-4.7168,-4.7129,-4.6641,-4.6211,-4.6152,-4.6074,-4.6094,-4.6055,-4.5879,-4.5683,-4.5156,-4.4863,-4.4766,-4.4668,-4.457,-4.4648,-4.4746,-4.5117,-4.5508,-4.5879,-4.5996,-4.6152,-4.6152,-4.6211,-4.623,-4.6152,-4.6172,-4.6269,-4.6308,-4.6308,-4.6308,-4.6308,-4.6308,-3.0087,-3.0341,-3.0221,-3.0408,-3.0808,-3.1009,-3.1263,-3.1517,-3.1623,-3.1677,-3.1677,-3.1677,-3.1677,-3.1677,-3.1677,-3.1677,-3.1677,-3.1677,-3.1677,-3.1677,-3.1677,-3.1677,-3.1677,-3.1677,-3.1677,-3.1677,-3.1677,-3.1677,-3.1677,-3.1757,-3.1904,-3.2927,-3.5162,-3.7492,-3.8861,-4.3397,-4.6376,-4.6853,-4.6894,-4.668,-4.6719,-4.6719,-4.6738,-4.6758,-4.7012,-4.7324,-4.7695,-4.7969,-4.8203,-4.8398,-4.8594,-4.8633,-4.8613,-4.8652,-4.8828,-4.8848,-4.8848,-4.8848,-4.8848,-4.8848,-4.8848,-4.8848,-4.8848,-4.8848,-4.8848,-4.8848,-4.8848,-4.8848,-4.8848,-4.8848,-4.8848,-4.8789,-4.873,-4.8516,-4.8476,-4.832,-4.8144,-4.7949,-4.7832,-4.7754,-4.7656,-4.748,-4.7461,-4.7402,-4.7109,-4.668,-4.6543,-4.6387,-4.6211,-4.6152,-4.6035,-4.582,-4.5527,-4.5332,-4.5215,-4.5019,-4.4883,-4.5058,-4.5176,-4.5312,-4.5683,-4.6055,-4.625,-4.6211,-4.6211,-4.6289,-4.6269,-4.6211,-4.623,-4.6289,-4.6308,-4.6308,-4.6308,-4.6308,-4.6308,-3.0087,-3.0381,-3.0621,-3.0742,-3.0822,-3.0822,-3.1022,-3.1343,-3.157,-3.1677,-3.1677,-3.1677,-3.1677,-3.1677,-3.1677,-3.1704,-3.1744,-3.173,-3.1744,-3.1797,-3.177,-3.1717,-3.169,-3.1704,-3.1677,-3.1677,-3.1677,-3.1677,-3.1717,-3.1917,-3.2064,-3.4148,-3.7316,-3.9658,-3.7613,-4.1542,-4.5111,-4.7179,-4.7519,-4.7422,-4.7383,-4.7363,-4.7344,-4.7363,-4.748,-4.7754,-4.8008,-4.8242,-4.8457,-4.8711,-4.8769,-4.8808,-4.8789,-4.8789,-4.8848,-4.8848,-4.8848,-4.8848,-4.8848,-4.8848,-4.8848,-4.8848,-4.8848,-4.8848,-4.8848,-4.8848,-4.8848,-4.8848,-4.8848,-4.8848,-4.8848,-4.8848,-4.8808,-4.8769,-4.873,-4.8672,-4.8476,-4.8379,-4.8262,-4.8203,-4.7871,-4.7617,-4.7617,-4.7578,-4.7402,-4.7168,-4.6992,-4.6758,-4.6484,-4.6348,-4.6269,-4.6035,-4.584,-4.5762,-4.5586,-4.5293,-4.5215,-4.541,-4.5586,-4.5723,-4.5781,-4.5996,-4.6152,-4.6191,-4.625,-4.6289,-4.6308,-4.6289,-4.6308,-4.6308,-4.6308,-4.6308,-4.6308,-4.6308,-4.6308,-3.0087,-3.0354,-3.0261,-3.0555,-3.1062,-3.1303,-3.1436,-3.153,-3.1623,-3.1677,-3.1677,-3.1677,-3.1677,-3.1677,-3.1704,-3.1784,-3.1931,-3.1957,-3.1998,-3.2198,-3.2051,-3.1971,-3.1917,-3.177,-3.169,-3.1677,-3.1677,-3.181,-3.1971,-3.231,-3.3712,-3.5853,-4.01,-4.3474,-4.4466,-4.629,-4.7424,-4.7748,-4.7754,-4.7578,-4.7598,-4.7617,-4.7637,-4.7656,-4.7871,-4.8086,-4.8262,-4.8457,-4.8691,-4.8828,-4.8848,-4.8848,-4.8848,-4.8848,-4.8848,-4.8848,-4.8848,-4.8848,-4.8848,-4.8848,-4.8848,-4.8848,-4.8848,-4.8848,-4.8848,-4.8848,-4.8848,-4.8848,-4.8848,-4.8848,-4.8848,-4.8848,-4.8828,-4.8828,-4.8808,-4.8808,-4.8711,-4.8691,-4.8652,-4.8633,-4.8437,-4.834,-4.832,-4.8144,-4.7949,-4.7754,-4.7598,-4.7168,-4.6855,-4.6738,-4.6641,-4.6348,-4.6152,-4.6113,-4.5996,-4.5723,-4.5644,-4.584,-4.5976,-4.6094,-4.6152,-4.6094,-4.6152,-4.6269,-4.6289,-4.6308,-4.6308,-4.6308,-4.6308,-4.6308,-4.6308,-4.6308,-4.6308,-4.6308,-4.6308,-3.0087,-3.0341,-3.0261,-3.0595,-3.1183,-3.133,-3.1463,-3.1637,-3.1677,-3.1677,-3.1677,-3.1677,-3.1677,-3.169,-3.1797,-3.1877,-3.2104,-3.2225,-3.2291,-3.2519,-3.2358,-3.2198,-3.2051,-3.1931,-3.1877,-3.1824,-3.1851,-3.1971,-3.2445,-3.3299,-3.6075,-3.993,-4.3123,-4.5535,-4.7316,-4.8235,-4.8254,-4.8379,-4.8223,-4.8125,-4.8105,-4.8086,-4.8066,-4.8144,-4.8281,-4.8457,-4.8516,-4.8672,-4.8848,-4.8848,-4.8848,-4.8848,-4.8848,-4.8848,-4.8848,-4.8848,-4.8848,-4.8848,-4.8848,-4.8848,-4.8848,-4.8848,-4.8848,-4.8848,-4.8848,-4.8848,-4.8848,-4.8848,-4.8848,-4.8848,-4.8848,-4.8848,-4.8848,-4.8848,-4.8848,-4.8848,-4.8848,-4.8808,-4.8808,-4.8848,-4.8848,-4.8848,-4.8848,-4.8769,-4.8574,-4.8379,-4.8203,-4.7734,-4.7266,-4.7109,-4.6933,-4.6621,-4.6367,-4.6269,-4.623,-4.6172,-4.6152,-4.6289,-4.6308,-4.6308,-4.6289,-4.6211,-4.6269,-4.6308,-4.6308,-4.6308,-4.6308,-4.6308,-4.6308,-4.6308,-4.6308,-4.6308,-4.6308,-4.6308,-4.6308,-3.0087,-3.0368,-3.0662,-3.0915,-3.1142,-3.1195,-3.1396,-3.1664,-3.1677,-3.1677,-3.1677,-3.1677,-3.1677,-3.173,-3.1944,-3.2078,-3.2185,-3.2412,-3.2572,-3.2612,-3.2599,-3.2412,-3.2278,-3.2158,-3.2118,-3.2118,-3.2158,-3.2265,-3.2949,-3.5643,-3.9596,-4.3295,-4.4948,-4.6859,-4.8196,-4.875,-4.875,-4.8691,-4.8672,-4.8594,-4.8574,-4.8672,-4.8633,-4.8652,-4.8711,-4.875,-4.8769,-4.8828,-4.8848,-4.8848,-4.8848,-4.8848,-4.8848,-4.8848,-4.8848,-4.8848,-4.8848,-4.8848,-4.8848,-4.8848,-4.8848,-4.8848,-4.8848,-4.8848,-4.8848,-4.8848,-4.8848,-4.8848,-4.8848,-4.8848,-4.8848,-4.8848,-4.8848,-4.8848,-4.8848,-4.8848,-4.8848,-4.8848,-4.8848,-4.8848,-4.8848,-4.8848,-4.8848,-4.8828,-4.8808,-4.873,-4.8516,-4.832,-4.7851,-4.7422,-4.7207,-4.6855,-4.6601,-4.6367,-4.6348,-4.6308,-4.6308,-4.6308,-4.6308,-4.6308,-4.6308,-4.6308,-4.6308,-4.6308,-4.6308,-4.6308,-4.6308,-4.6308,-4.6308,-4.6308,-4.6308,-4.6308,-4.6308,-4.6308,-4.6308,-2.9967,-3.0074,-3.0368,-3.0648,-3.1127,-3.3072,-3.3168,-3.1853,-3.1677,-3.1677,-3.1677,-3.1677,-3.1677,-3.169,-3.177,-3.2064,-3.2318,-3.2559,-3.2839,-3.2933,-3.2919,-3.2812,-3.2666,-3.2519,-3.2452,-3.2425,-3.2465,-3.2754,-3.4004,-3.7357,-4.1357,-4.4571,-4.6728,-4.8088,-4.8478,-4.8848,-4.8848,-4.8848,-4.8848,-4.8848,-4.8848,-4.8848,-4.8848,-4.8848,-4.8848,-4.8848,-4.8848,-4.8848,-4.8848,-4.8848,-4.8848,-4.8848,-4.8848,-4.8848,-4.8848,-4.8848,-4.8848,-4.8848,-4.8848,-4.8848,-4.8848,-4.8848,-4.8848,-4.8848,-4.8848,-4.8848,-4.8848,-4.8848,-4.8848,-4.8848,-4.8848,-4.8848,-4.8848,-4.8848,-4.8848,-4.8848,-4.8848,-4.8848,-4.8848,-4.8848,-4.8848,-4.8848,-4.8848,-4.8848,-4.8828,-4.8848,-4.8789,-4.8633,-4.8379,-4.793,-4.7578,-4.7226,-4.6816,-4.6582,-4.6387,-4.6328,-4.6308,-4.6308,-4.6308,-4.6308,-4.6308,-4.6308,-4.6308,-4.6308,-4.6308,-4.6308,-4.6308,-4.6308,-4.6308,-4.6308,-4.6308,-4.6308,-4.6308,-4.6308,-4.6308,-2.982,-2.9967,-3.0368,-3.1294,-3.2788,-3.4432,-3.4779,-3.442,-3.3511,-3.2772,-3.1677,-3.1677,-3.1677,-3.1717,-3.1931,-3.2238,-3.2532,-3.2839,-3.3106,-3.3213,-3.3426,-3.3066,-3.2933,-3.3009,-3.2746,-3.2719,-3.3138,-3.3625,-3.5601,-3.982,-4.4021,-4.6523,-4.8478,-4.8663,-4.8848,-4.8848,-4.8848,-4.8848,-4.8848,-4.8848,-4.8848,-4.8848,-4.8848,-4.8848,-4.8848,-4.8848,-4.8848,-4.8848,-4.8848,-4.8848,-4.8848,-4.8848,-4.8848,-4.8848,-4.8848,-4.8848,-4.8848,-4.8848,-4.8848,-4.8848,-4.8848,-4.8848,-4.8848,-4.8848,-4.8848,-4.8848,-4.8848,-4.8848,-4.8848,-4.8848,-4.8848,-4.8848,-4.8848,-4.8848,-4.8848,-4.8848,-4.8848,-4.8848,-4.8848,-4.8848,-4.8848,-4.8848,-4.8848,-4.8848,-4.8848,-4.8848,-4.8848,-4.8808,-4.8594,-4.8281,-4.7988,-4.7715,-4.7207,-4.6797,-4.6601,-4.6406,-4.6328,-4.6328,-4.6308,-4.6308,-4.6308,-4.6308,-4.6308,-4.6308,-4.6308,-4.6308,-4.6308,-4.6308,-4.6308,-4.6308,-4.6308,-4.6308,-4.6308,-4.6308,-4.6308,-3.0328,-3.0616,-3.1063,-3.2874,-3.5048,-3.585,-3.716,-3.8628,-3.6791,-3.4406,-3.2597,-3.1853,-3.1677,-3.1744,-3.2038,-3.2278,-3.2545,-3.2866,-3.3093,-3.356,-3.4145,-3.4193,-3.3987,-3.3735,-3.4757,-3.4045,-3.4269,-3.6147,-3.8822,-4.2256,-4.5567,-4.8663,-4.8848,-4.8848,-4.8848,-4.8848,-4.8848,-4.8848,-4.8848,-4.8848,-4.8848,-4.8848,-4.8848,-4.8848,-4.8848,-4.8848,-4.8848,-4.8848,-4.8848,-4.8848,-4.8848,-4.8848,-4.8848,-4.8848,-4.8848,-4.8848,-4.8848,-4.8848,-4.8848,-4.8848,-4.8848,-4.8848,-4.8848,-4.8848,-4.8848,-4.8848,-4.8848,-4.8848,-4.8848,-4.8848,-4.8848,-4.8848,-4.8848,-4.8848,-4.8848,-4.8848,-4.8848,-4.8848,-4.8848,-4.8848,-4.8848,-4.8848,-4.8848,-4.8848,-4.8848,-4.8848,-4.8848,-4.8848,-4.875,-4.8516,-4.8301,-4.8105,-4.7715,-4.7207,-4.6816,-4.6621,-4.6406,-4.6348,-4.6308,-4.6308,-4.6308,-4.6308,-4.6308,-4.6308,-4.6308,-4.6308,-4.6308,-4.6308,-4.6308,-4.6308,-4.6308,-4.6308,-4.6308,-4.6308,-4.6308,-3.4611,-3.48,-3.5728,-3.5847,-3.57,-3.9224,-4.0067,-3.9159,-4.0429,-3.8246,-3.4592,-3.2772,-3.1853,-3.2097,-3.2068,-3.2078,-3.2318,-3.2666,-3.2879,-3.4055,-3.4984,-3.584,-3.625,-3.7115,-3.7794,-3.8371,-3.8735,-3.9513,-4.19,-4.4428,-4.6336,-4.8663,-4.8848,-4.8848,-4.8848,-4.8848,-4.8848,-4.8848,-4.8848,-4.8848,-4.8848,-4.8848,-4.8848,-4.8848,-4.8848,-4.8848,-4.8848,-4.8848,-4.8848,-4.8848,-4.8848,-4.8848,-4.8848,-4.8848,-4.8848,-4.8848,-4.8848,-4.8848,-4.8848,-4.8848,-4.8848,-4.8848,-4.8848,-4.8848,-4.8848,-4.8848,-4.8848,-4.8848,-4.8848,-4.8848,-4.8848,-4.8848,-4.8848,-4.8848,-4.8848,-4.8848,-4.8848,-4.8848,-4.8848,-4.8848,-4.8848,-4.8848,-4.8848,-4.8848,-4.8848,-4.8848,-4.8848,-4.8848,-4.8848,-4.8711,-4.8516,-4.832,-4.8183,-4.7754,-4.7246,-4.6797,-4.6582,-4.6387,-4.6308,-4.6308,-4.6308,-4.6308,-4.6308,-4.6308,-4.6308,-4.6308,-4.6308,-4.6308,-4.6308,-4.6308,-4.6308,-4.6308,-4.6308,-4.6308,-4.6308,-3.6121,-3.6385,-3.7276,-3.771,-3.8412,-4.1124,-4.2191,-4.2049,-4.2549,-4.1169,-3.8246,-3.5152,-3.3323,-3.3002,-3.2341,-3.2259,-3.231,-3.2412,-3.3574,-3.4924,-3.6162,-3.707,-3.8337,-3.9796,-3.9509,-3.9911,-4.1595,-4.2942,-4.4593,-4.6299,-4.7883,-4.8848,-4.8848,-4.8848,-4.8848,-4.8848,-4.8848,-4.8848,-4.8848,-4.8848,-4.8848,-4.8848,-4.8848,-4.8848,-4.8848,-4.8848,-4.8848,-4.8848,-4.8848,-4.8848,-4.8848,-4.8848,-4.8848,-4.8848,-4.8848,-4.8848,-4.8848,-4.8848,-4.8848,-4.8848,-4.8848,-4.8848,-4.8848,-4.8848,-4.8848,-4.8848,-4.8848,-4.8848,-4.8848,-4.8848,-4.8848,-4.8848,-4.8848,-4.8848,-4.8848,-4.8848,-4.8848,-4.8848,-4.8848,-4.8848,-4.8848,-4.8848,-4.8848,-4.8848,-4.8848,-4.8848,-4.8848,-4.8848,-4.8848,-4.8828,-4.8672,-4.8476,-4.8301,-4.8008,-4.7461,-4.7031,-4.6719,-4.6523,-4.6308,-4.6308,-4.6308,-4.6308,-4.6308,-4.6308,-4.6308,-4.6308,-4.6308,-4.6308,-4.6308,-4.6308,-4.6308,-4.6308,-4.6308,-4.6308,-4.6308,-3.6727,-3.6691,-3.7943,-3.9322,-4.1239,-4.2178,-4.3584,-4.4934,-4.3839,-4.3083,-4.2174,-3.8213,-3.6421,-3.5069,-3.413,-3.3295,-3.342,-3.4546,-3.5456,-3.625,-3.747,-3.897,-4.0237,-4.0933,-4.1573,-4.2267,-4.3605,-4.4321,-4.5225,-4.7189,-4.8459,-4.8848,-4.8848,-4.8848,-4.8848,-4.8848,-4.8848,-4.8848,-4.8848,-4.8848,-4.8848,-4.8848,-4.8848,-4.8848,-4.8848,-4.8848,-4.8848,-4.8848,-4.8848,-4.8848,-4.8848,-4.8848,-4.8848,-4.8848,-4.8848,-4.8848,-4.8848,-4.8848,-4.8848,-4.8848,-4.8848,-4.8848,-4.8848,-4.8848,-4.8848,-4.8848,-4.8848,-4.8848,-4.8848,-4.8848,-4.8848,-4.8848,-4.8848,-4.8848,-4.8848,-4.8848,-4.8848,-4.8848,-4.8848,-4.8848,-4.8848,-4.8848,-4.8848,-4.8848,-4.8848,-4.8848,-4.8848,-4.8848,-4.8848,-4.8808,-4.8711,-4.8516,-4.832,-4.7969,-4.7598,-4.7285,-4.6914,-4.6504,-4.6308,-4.6308,-4.6308,-4.6308,-4.6308,-4.6308,-4.6308,-4.6308,-4.6308,-4.6308,-4.6308,-4.6308,-4.6308,-4.6308,-4.6308,-4.6308,-4.6308,-4.001,-3.9217,-4.1919,-4.2329,-4.1568,-4.3367,-4.4795,-4.5044,-4.5068,-4.5068,-4.4272,-4.2513,-4.0265,-3.8246,-3.7927,-3.7285,-3.6668,-3.7274,-3.7929,-3.8894,-4.036,-4.1637,-4.2668,-4.3506,-4.498,-4.5508,-4.583,-4.6695,-4.6284,-4.7829,-4.8828,-4.8769,-4.8828,-4.8828,-4.8848,-4.8848,-4.8848,-4.8848,-4.8848,-4.8848,-4.8848,-4.8848,-4.8848,-4.8848,-4.8848,-4.8848,-4.8848,-4.8848,-4.8848,-4.8848,-4.8848,-4.8848,-4.8848,-4.8848,-4.8848,-4.8848,-4.8848,-4.8848,-4.8848,-4.8848,-4.8848,-4.8848,-4.8848,-4.8848,-4.8848,-4.8848,-4.8848,-4.8848,-4.8848,-4.8848,-4.8848,-4.8848,-4.8848,-4.8848,-4.8848,-4.8848,-4.8848,-4.8848,-4.8848,-4.8848,-4.8848,-4.8848,-4.8848,-4.8848,-4.8848,-4.8848,-4.8848,-4.8848,-4.8848,-4.8789,-4.8711,-4.8496,-4.8262,-4.7988,-4.7637,-4.7461,-4.7109,-4.666,-4.6308,-4.6308,-4.6308,-4.6308,-4.6308,-4.6308,-4.6308,-4.6308,-4.6308,-4.6308,-4.6308,-4.6308,-4.6308,-4.6308,-4.6308,-4.6308,-4.6308]}]]